[[{"header":{"parameterUnit":"m.s-1","parameterCategory":1,"la1":30.6,"la2":29.2853,"lo1":-89.7004,"lo2":-87.6739,"dx":0.0162,"dy":0.0183,"nx":112,"ny":82,"refTime":"2023-01-24T18:00:00:Z","depth":0,"parameterNumber":2,"parameterNumberName":"U-component_of_WINDS"},"data":[0.0,0.0,0.0,0.0,0.0,0.0,0.0,0.0,0.0,0.0,0.0,0.0,0.0,0.0,0.0,0.0,0.0,0.0,0.0,0.0,0.0,0.0,0.0,0.0,0.0,0.0,0.0,0.0,0.0,0.0,0.0,0.0,0.0,0.0,0.0,0.0,0.0,0.0,0.0,0.0,0.0,0.0,0.0,0.0,0.0,0.0,0.0,0.0,0.0,0.0,0.0,0.0,0.0,0.0,0.0,0.0,0.0,0.0,0.0,0.0,0.0,0.0,0.0,0.0,0.0,0.0,0.0,0.0,0.0,0.0,0.0,0.0,0.0,0.0,0.0,0.0,0.0,0.0,0.0,0.0,0.0,0.0,0.0,0.0,0.0,0.0,0.0,0.0,0.0,0.0,0.0,-2.5693,-2.5693,-2.545,-2.4813,-2.4446,-2.3948,-2.324,0.0,0.0,0.0,0.0,0.0,0.0,0.0,0.0,0.0,0.0,0.0,0.0,0.0,0.0,0.0,0.0,0.0,0.0,0.0,0.0,0.0,0.0,0.0,0.0,0.0,0.0,0.0,0.0,0.0,0.0,0.0,0.0,0.0,0.0,0.0,0.0,0.0,0.0,0.0,0.0,0.0,0.0,0.0,0.0,0.0,0.0,0.0,0.0,0.0,0.0,0.0,0.0,0.0,0.0,0.0,0.0,0.0,0.0,0.0,0.0,0.0,0.0,0.0,0.0,0.0,0.0,0.0,0.0,0.0,0.0,0.0,0.0,0.0,0.0,0.0,0.0,0.0,0.0,0.0,0.0,0.0,0.0,0.0,0.0,0.0,0.0,0.0,0.0,0.0,0.0,0.0,0.0,0.0,0.0,0.0,0.0,0.0,0.0,0.0,0.0,0.0,0.0,0.0,0.0,-2.5693,-2.5693,-2.5693,-2.5499,-2.505,-2.4953,-2.4582,-2.3757,0.0,0.0,0.0,0.0,0.0,0.0,0.0,0.0,0.0,0.0,0.0,0.0,0.0,0.0,0.0,0.0,0.0,0.0,0.0,0.0,0.0,0.0,0.0,0.0,0.0,0.0,0.0,0.0,0.0,0.0,0.0,0.0,0.0,0.0,0.0,0.0,0.0,0.0,0.0,0.0,0.0,0.0,0.0,0.0,0.0,0.0,0.0,0.0,0.0,0.0,0.0,0.0,0.0,0.0,0.0,0.0,0.0,0.0,0.0,0.0,0.0,0.0,0.0,0.0,0.0,0.0,0.0,0.0,0.0,0.0,0.0,0.0,0.0,0.0,0.0,0.0,0.0,0.0,0.0,0.0,0.0,0.0,0.0,0.0,0.0,0.0,0.0,0.0,0.0,0.0,0.0,0.0,0.0,0.0,0.0,0.0,0.0,0.0,0.0,0.0,0.0,0.0,0.0,-2.7105,-2.6284,-2.5791,-2.5693,-2.5615,-2.5449,-2.5215,-2.4805,-2.416,-2.3641,0.0,0.0,0.0,0.0,0.0,0.0,0.0,0.0,0.0,0.0,0.0,0.0,0.0,0.0,0.0,0.0,0.0,0.0,0.0,0.0,0.0,0.0,0.0,0.0,0.0,0.0,0.0,0.0,0.0,0.0,0.0,0.0,0.0,0.0,0.0,0.0,0.0,0.0,0.0,0.0,0.0,0.0,0.0,0.0,0.0,0.0,0.0,0.0,0.0,0.0,0.0,0.0,0.0,0.0,0.0,0.0,0.0,0.0,0.0,0.0,0.0,0.0,0.0,0.0,0.0,0.0,0.0,0.0,0.0,0.0,0.0,0.0,0.0,0.0,0.0,0.0,0.0,0.0,0.0,0.0,0.0,0.0,0.0,0.0,0.0,0.0,0.0,0.0,0.0,0.0,0.0,0.0,0.0,0.0,0.0,0.0,0.0,0.0,0.0,0.0,0.0,0.0,-2.7746,-2.751,-2.6524,-2.6187,-2.6062,-2.6062,-2.5554,-2.5039,-2.459,-2.418,0.0,0.0,0.0,0.0,0.0,0.0,0.0,0.0,0.0,0.0,0.0,0.0,0.0,0.0,0.0,0.0,0.0,0.0,0.0,0.0,0.0,0.0,0.0,0.0,0.0,0.0,0.0,0.0,0.0,0.0,0.0,0.0,0.0,0.0,0.0,0.0,0.0,0.0,0.0,0.0,0.0,0.0,0.0,0.0,0.0,0.0,0.0,0.0,0.0,0.0,0.0,0.0,0.0,0.0,0.0,0.0,0.0,0.0,0.0,0.0,0.0,0.0,0.0,0.0,0.0,0.0,0.0,0.0,0.0,0.0,0.0,0.0,0.0,0.0,0.0,0.0,0.0,0.0,0.0,0.0,0.0,0.0,0.0,0.0,0.0,0.0,0.0,0.0,0.0,0.0,0.0,0.0,0.0,0.0,0.0,0.0,0.0,0.0,0.0,0.0,0.0,0.0,-2.9418,-2.9601,-2.8588,-2.7652,-2.7105,-2.7105,-2.6196,-2.5488,-2.5106,-2.4609,0.0,0.0,0.0,0.0,0.0,0.0,0.0,0.0,0.0,0.0,0.0,0.0,0.0,0.0,0.0,0.0,0.0,0.0,0.0,0.0,0.0,0.0,0.0,0.0,0.0,0.0,0.0,0.0,0.0,0.0,0.0,0.0,0.0,0.0,0.0,0.0,0.0,0.0,0.0,0.0,0.0,0.0,0.0,0.0,0.0,0.0,0.0,0.0,0.0,0.0,0.0,0.0,0.0,0.0,0.0,0.0,0.0,0.0,0.0,0.0,0.0,0.0,0.0,0.0,0.0,0.0,0.0,0.0,0.0,0.0,0.0,0.0,0.0,0.0,0.0,0.0,0.0,0.0,0.0,0.0,0.0,0.0,0.0,0.0,0.0,0.0,0.0,0.0,0.0,0.0,0.0,0.0,0.0,0.0,0.0,0.0,0.0,0.0,0.0,0.0,0.0,0.0,-2.9988,-2.9784,0.0,-2.8355,-2.8121,-2.8121,-2.72,-2.6445,-2.6046,0.0,0.0,0.0,0.0,0.0,0.0,0.0,0.0,0.0,0.0,0.0,0.0,0.0,0.0,0.0,0.0,0.0,0.0,0.0,0.0,0.0,0.0,0.0,0.0,0.0,0.0,0.0,0.0,0.0,0.0,0.0,0.0,0.0,0.0,0.0,0.0,0.0,0.0,0.0,0.0,0.0,0.0,0.0,0.0,0.0,0.0,0.0,0.0,0.0,0.0,0.0,0.0,0.0,0.0,0.0,0.0,0.0,0.0,0.0,0.0,0.0,0.0,0.0,0.0,0.0,0.0,0.0,0.0,0.0,0.0,0.0,0.0,0.0,0.0,0.0,0.0,0.0,0.0,0.0,0.0,0.0,0.0,0.0,0.0,0.0,0.0,0.0,0.0,0.0,0.0,0.0,0.0,0.0,0.0,0.0,0.0,0.0,0.0,0.0,0.0,0.0,0.0,-3.106,-3.0946,-3.0581,0.0,-2.9372,-2.9189,-2.9189,-2.8262,-2.7572,-2.7302,0.0,0.0,0.0,0.0,0.0,0.0,0.0,0.0,0.0,0.0,0.0,0.0,0.0,0.0,0.0,0.0,0.0,0.0,0.0,0.0,0.0,0.0,0.0,0.0,0.0,0.0,0.0,0.0,0.0,0.0,0.0,0.0,0.0,0.0,0.0,0.0,0.0,0.0,0.0,0.0,0.0,0.0,0.0,0.0,0.0,0.0,0.0,0.0,0.0,0.0,0.0,0.0,0.0,0.0,0.0,0.0,0.0,0.0,0.0,0.0,0.0,0.0,0.0,0.0,0.0,0.0,0.0,0.0,0.0,0.0,0.0,0.0,0.0,0.0,0.0,0.0,0.0,0.0,0.0,0.0,0.0,0.0,0.0,0.0,0.0,0.0,0.0,0.0,0.0,0.0,0.0,0.0,0.0,0.0,0.0,0.0,0.0,0.0,0.0,0.0,0.0,0.0,-3.2587,-3.2515,-3.2298,-3.1789,-3.0824,-3.0215,-3.0215,-2.928,-2.8727,0.0,0.0,0.0,0.0,0.0,0.0,0.0,0.0,0.0,0.0,0.0,0.0,0.0,0.0,0.0,0.0,0.0,0.0,0.0,0.0,0.0,0.0,0.0,0.0,0.0,0.0,0.0,0.0,0.0,0.0,0.0,0.0,0.0,0.0,0.0,0.0,0.0,0.0,0.0,0.0,0.0,0.0,0.0,0.0,0.0,0.0,0.0,0.0,0.0,0.0,0.0,0.0,0.0,0.0,0.0,0.0,0.0,0.0,0.0,0.0,0.0,0.0,0.0,0.0,0.0,0.0,0.0,0.0,0.0,0.0,0.0,0.0,0.0,0.0,0.0,0.0,0.0,0.0,0.0,0.0,0.0,0.0,0.0,0.0,0.0,0.0,0.0,0.0,0.0,0.0,0.0,0.0,0.0,0.0,0.0,0.0,0.0,0.0,0.0,0.0,0.0,0.0,0.0,-3.3114,-3.3068,-3.2996,-3.2827,-3.2239,-3.1819,-3.1819,-3.0582,-2.9738,-2.9738,0.0,0.0,0.0,0.0,0.0,0.0,0.0,0.0,0.0,0.0,0.0,0.0,0.0,0.0,0.0,0.0,0.0,0.0,0.0,0.0,0.0,0.0,0.0,0.0,0.0,0.0,0.0,0.0,0.0,0.0,0.0,0.0,0.0,0.0,0.0,0.0,0.0,0.0,0.0,0.0,0.0,0.0,0.0,0.0,0.0,0.0,0.0,0.0,0.0,0.0,0.0,0.0,0.0,0.0,0.0,0.0,0.0,0.0,0.0,0.0,0.0,0.0,0.0,0.0,0.0,0.0,0.0,0.0,0.0,0.0,0.0,0.0,0.0,0.0,0.0,0.0,0.0,0.0,0.0,0.0,0.0,0.0,0.0,0.0,0.0,0.0,0.0,0.0,0.0,0.0,0.0,0.0,0.0,0.0,0.0,0.0,0.0,0.0,0.0,0.0,0.0,0.0,-3.3948,-3.3924,-3.3827,-3.3608,-3.3293,-3.298,-3.2672,-3.177,-3.1125,-3.0824,0.0,0.0,0.0,0.0,0.0,0.0,0.0,0.0,0.0,0.0,0.0,0.0,0.0,0.0,0.0,0.0,0.0,0.0,0.0,0.0,0.0,0.0,0.0,0.0,0.0,0.0,0.0,0.0,0.0,0.0,0.0,0.0,0.0,0.0,0.0,0.0,0.0,0.0,0.0,0.0,0.0,0.0,0.0,0.0,0.0,0.0,0.0,0.0,0.0,0.0,0.0,0.0,0.0,0.0,0.0,0.0,0.0,0.0,0.0,0.0,0.0,0.0,0.0,0.0,0.0,0.0,0.0,0.0,0.0,0.0,0.0,0.0,0.0,0.0,0.0,0.0,0.0,0.0,0.0,0.0,0.0,0.0,0.0,0.0,0.0,0.0,0.0,0.0,0.0,0.0,0.0,0.0,0.0,0.0,0.0,0.0,0.0,0.0,0.0,0.0,0.0,0.0,-3.4957,-3.4883,-3.4686,-3.4216,-3.4118,-3.378,-3.3064,-3.2922,-3.2589,-3.1858,0.0,0.0,0.0,0.0,0.0,0.0,0.0,0.0,0.0,0.0,0.0,0.0,0.0,0.0,0.0,0.0,0.0,0.0,0.0,0.0,0.0,0.0,0.0,0.0,0.0,0.0,0.0,0.0,0.0,0.0,0.0,0.0,0.0,0.0,0.0,0.0,0.0,0.0,0.0,0.0,0.0,0.0,0.0,0.0,0.0,0.0,0.0,0.0,0.0,0.0,0.0,0.0,0.0,0.0,0.0,0.0,0.0,0.0,0.0,0.0,-4.558,0.0,0.0,0.0,0.0,0.0,0.0,0.0,0.0,0.0,0.0,0.0,0.0,0.0,0.0,0.0,0.0,0.0,0.0,0.0,0.0,0.0,0.0,0.0,0.0,0.0,0.0,0.0,0.0,0.0,0.0,0.0,0.0,0.0,0.0,0.0,0.0,0.0,0.0,0.0,0.0,0.0,-3.5448,-3.5448,-3.5399,-3.5276,-3.4883,-3.4588,-3.4372,-3.4001,-3.349,-3.293,0.0,0.0,0.0,0.0,0.0,0.0,0.0,0.0,0.0,0.0,0.0,0.0,0.0,0.0,0.0,0.0,0.0,0.0,0.0,0.0,0.0,0.0,0.0,0.0,0.0,0.0,0.0,0.0,0.0,0.0,0.0,0.0,0.0,0.0,0.0,0.0,0.0,0.0,0.0,0.0,0.0,0.0,0.0,0.0,0.0,0.0,0.0,0.0,0.0,0.0,0.0,0.0,0.0,0.0,0.0,0.0,0.0,0.0,0.0,0.0,0.0,-4.4874,0.0,0.0,0.0,0.0,0.0,0.0,0.0,0.0,0.0,0.0,0.0,0.0,0.0,0.0,0.0,0.0,0.0,0.0,0.0,0.0,0.0,0.0,0.0,0.0,0.0,0.0,0.0,0.0,0.0,0.0,0.0,0.0,0.0,0.0,0.0,0.0,0.0,0.0,0.0,0.0,-3.5978,-3.5978,-3.5978,-3.5978,-3.573,-3.5409,-3.4996,-3.4746,-3.4304,-3.365,-3.3555,0.0,0.0,0.0,0.0,0.0,0.0,0.0,0.0,0.0,0.0,0.0,0.0,0.0,0.0,0.0,0.0,0.0,0.0,0.0,0.0,0.0,0.0,0.0,0.0,0.0,0.0,0.0,0.0,0.0,0.0,0.0,0.0,0.0,0.0,0.0,0.0,0.0,0.0,0.0,0.0,0.0,0.0,0.0,0.0,0.0,0.0,0.0,0.0,0.0,0.0,0.0,0.0,0.0,-4.8101,-4.8275,-4.8827,-5.0452,-5.0307,-4.8769,-4.8769,-4.7398,-4.5133,0.0,0.0,0.0,0.0,0.0,0.0,0.0,0.0,0.0,0.0,0.0,0.0,0.0,0.0,0.0,0.0,0.0,0.0,0.0,0.0,0.0,0.0,0.0,0.0,0.0,-3.9876,-3.9375,0.0,0.0,0.0,0.0,0.0,0.0,0.0,0.0,0.0,0.0,0.0,0.0,-3.6405,-3.6405,-3.6405,-3.6405,-3.6405,-3.6135,-3.5472,-3.5376,-3.5059,-3.4329,-3.4234,-3.4012,0.0,0.0,0.0,0.0,0.0,0.0,0.0,0.0,0.0,0.0,0.0,0.0,0.0,0.0,0.0,0.0,0.0,0.0,0.0,0.0,0.0,0.0,0.0,0.0,0.0,0.0,0.0,0.0,0.0,0.0,0.0,0.0,-4.6882,-4.5779,0.0,0.0,0.0,0.0,0.0,0.0,0.0,0.0,0.0,0.0,0.0,0.0,0.0,0.0,-4.7782,-4.9378,-5.022,-5.0357,-5.1875,-5.2688,-5.2775,-5.3007,-5.3007,-5.2746,-5.2746,0.0,-4.6404,-4.8767,0.0,0.0,0.0,0.0,0.0,0.0,0.0,0.0,0.0,0.0,0.0,0.0,0.0,0.0,0.0,0.0,0.0,0.0,0.0,0.0,0.0,0.0,-4.2276,-4.1172,-4.0881,-4.0827,0.0,-3.8704,-3.7636,-3.936,0.0,0.0,0.0,0.0,0.0,0.0,0.0,0.0,-3.6405,-3.6405,-3.6405,-3.6405,-3.6405,-3.638,-3.6257,-3.6257,-3.5959,-3.5315,-3.529,-3.4973,-3.4243,-3.4218,0.0,0.0,0.0,0.0,0.0,0.0,0.0,0.0,0.0,0.0,0.0,0.0,0.0,0.0,0.0,0.0,0.0,0.0,0.0,0.0,0.0,0.0,0.0,0.0,0.0,0.0,0.0,0.0,0.0,-4.6969,-4.7317,-4.604,-4.6998,-4.7288,0.0,0.0,0.0,0.0,0.0,0.0,0.0,0.0,0.0,-4.9901,-4.993,-5.0278,-5.1004,-5.1497,-5.1933,-5.2281,-5.2746,-5.3181,-5.35,-5.35,-5.35,-5.35,-5.35,-5.2336,-5.0421,-5.0593,-4.9055,-4.6583,0.0,0.0,0.0,0.0,0.0,-4.5059,-4.6138,-4.6487,0.0,0.0,0.0,0.0,0.0,0.0,0.0,0.0,0.0,0.0,0.0,0.0,0.0,-4.3221,-4.287,-4.3083,-4.3663,-4.175,-4.0092,0.0,-3.9342,-3.8338,-3.8715,0.0,0.0,0.0,0.0,0.0,-3.7383,-3.701,-3.6883,-3.6883,-3.6581,-3.6405,-3.6405,-3.6405,-3.6304,-3.6006,-3.6006,-3.5708,-3.5044,-3.5019,-3.4699,0.0,0.0,0.0,0.0,0.0,0.0,0.0,0.0,0.0,0.0,0.0,0.0,0.0,0.0,0.0,0.0,0.0,0.0,0.0,0.0,0.0,0.0,0.0,0.0,0.0,0.0,0.0,0.0,-4.7259,-4.7811,-4.6534,-4.7491,-4.7898,0.0,0.0,0.0,0.0,0.0,0.0,-5.0423,-5.0917,-5.1614,-5.2543,-5.2601,-5.2978,-5.3762,-5.3297,-5.321,-5.35,-5.3036,-5.3065,-5.35,-5.35,-5.35,-5.35,-5.35,-5.35,-5.3413,-5.1991,-5.054,-4.9262,-4.9262,-4.9262,-4.9156,-4.813,-4.7742,-4.7941,-4.9336,-4.9647,-4.9735,-5.1349,0.0,-5.0491,-4.9637,0.0,0.0,0.0,0.0,-4.6661,-4.6306,0.0,-4.6744,-4.5525,-4.4939,-4.4943,-4.573,-4.416,-4.2516,0.0,-4.0943,-4.0065,-4.0301,0.0,0.0,0.0,0.0,-3.9685,-3.8894,-3.8197,-3.7894,-3.8181,-3.7607,-3.7235,-3.7235,-3.7108,-3.689,-3.6606,-3.648,-3.6182,-3.578,-3.5708,-3.5458,-3.4906,0.0,0.0,0.0,0.0,0.0,0.0,0.0,0.0,0.0,0.0,0.0,0.0,0.0,0.0,0.0,0.0,0.0,0.0,0.0,0.0,0.0,0.0,0.0,0.0,0.0,0.0,0.0,0.0,0.0,-4.784,-4.8798,0.0,0.0,0.0,0.0,-4.9543,-5.1403,-5.2478,-5.2478,-5.4139,-5.5155,-5.5213,-5.5213,-5.4981,-5.4458,-5.4429,-5.411,-5.35,-5.3471,-5.3471,-5.35,-5.35,-5.35,-5.35,-5.35,-5.35,-5.35,-5.3413,-5.3326,-5.321,-5.321,-5.321,-5.3065,-5.1824,-5.1309,-5.1338,-5.1425,-5.1889,-5.2613,-5.3888,-5.3217,-5.1894,-5.1837,-5.0935,0.0,0.0,-5.0995,-5.1947,-5.073,-4.9948,-4.9214,-4.7938,-4.672,-4.5821,-4.5895,-4.5035,-4.4273,0.0,-4.2716,-4.1297,-4.2189,0.0,-4.1066,-4.0974,-4.0974,-4.102,-4.0974,-4.0086,-3.9823,-4.0781,-4.0033,-3.9416,-3.9416,-3.8966,-3.8256,-3.7232,-3.6707,-3.6405,-3.638,-3.6355,-3.6056,-3.5458,-3.5458,0.0,0.0,0.0,0.0,0.0,0.0,0.0,0.0,0.0,0.0,0.0,0.0,0.0,0.0,0.0,0.0,0.0,0.0,0.0,0.0,0.0,0.0,0.0,0.0,0.0,0.0,0.0,0.0,-4.7927,-4.964,0.0,-4.9785,-5.0017,-5.0598,-5.1468,-5.2949,-5.3994,-5.4371,-5.5039,-5.5416,-5.5416,-5.5416,-5.53,-5.5097,-5.5097,-5.4981,-5.472,-5.4342,-5.4168,-5.4139,-5.3704,-5.35,-5.35,-5.35,-5.35,-5.35,-5.35,-5.35,-5.35,-5.35,-5.35,-5.3442,-5.3007,-5.2833,-5.2833,-5.2833,-5.3268,-5.4023,-5.5329,-5.5603,-5.5212,-5.3949,-5.3288,-5.2828,-5.2426,-5.2717,-5.3065,-5.263,-5.141,-4.9988,-4.8682,-4.7114,-4.5895,-4.5895,-4.5595,-4.5372,-4.5531,-4.4248,-4.3269,-4.362,-4.3941,-4.3758,-4.2378,-4.2755,-4.2943,-4.2283,-4.1578,-4.1288,-4.1618,-4.1031,-4.0555,-4.0555,-3.9785,-3.9444,-3.97,-3.8903,-3.8312,-3.795,-3.795,-3.7365,-3.6081,-3.6081,-3.5981,0.0,0.0,0.0,0.0,0.0,0.0,0.0,0.0,0.0,0.0,0.0,0.0,0.0,0.0,0.0,0.0,0.0,0.0,0.0,0.0,0.0,0.0,0.0,0.0,0.0,0.0,-5.0017,-4.9175,-5.0569,-5.1439,-5.1004,-5.1381,-5.2078,-5.3152,-5.4226,-5.5097,-5.5707,-5.5939,-5.6055,-5.6055,-5.6055,-5.5939,-5.5765,-5.5736,-5.562,-5.5416,-5.501,-5.4807,-5.4807,-5.4342,-5.4139,-5.4139,-5.4139,-5.4139,-5.4139,-5.4139,-5.4139,-5.411,-5.3675,-5.35,-5.353,-5.3762,-5.3849,-5.3878,-5.4081,-5.4604,-5.53,-5.6142,-5.681,-5.7071,-5.5823,-5.5445,-5.5358,-5.4923,-5.4662,-5.4487,-5.4487,-5.2601,-5.0452,-4.9582,-4.7608,-4.5895,-4.5895,-4.5895,-4.5895,-4.5895,-4.5338,-4.4851,-4.4851,-4.5429,-4.5458,-4.4031,-4.4434,-4.462,-4.3937,-4.32,-4.2904,-4.3306,-4.2638,-4.2177,-4.2177,-4.1408,-4.1066,-4.1366,-4.0596,-3.9926,-3.9601,-3.9575,-3.8845,-3.7249,-3.6998,-3.6951,-3.713,0.0,0.0,0.0,0.0,0.0,0.0,0.0,0.0,0.0,0.0,0.0,0.0,0.0,0.0,0.0,0.0,0.0,0.0,0.0,0.0,0.0,0.0,0.0,-4.9727,-5.083,-5.1614,-5.1614,-5.1643,-5.2165,-5.3384,-5.2397,-5.2484,-5.44,-5.5068,-5.5707,-5.6403,-5.6984,-5.7303,-5.7303,-5.7303,-5.7013,-5.6432,-5.6432,-5.6113,-5.5474,-5.5445,-5.5445,-5.5445,-5.5416,-5.5416,-5.5416,-5.5416,-5.5416,-5.5416,-5.5416,-5.5416,-5.53,-5.4052,-5.3559,-5.3646,-5.4313,-5.4546,-5.4633,-5.5213,-5.5852,-5.6403,-5.6403,-5.681,-5.7303,-5.7303,-5.7303,-5.7303,-5.7303,-5.6897,-5.6432,-5.6432,-5.3588,-5.0714,-5.0714,-4.8246,-4.5895,-4.5895,-4.5895,-4.5895,-4.5895,-4.5895,-4.5895,-4.5895,-4.5895,-4.5895,-4.5895,-4.5895,0.0,-4.5895,-4.4989,-4.4759,-4.5776,-4.4943,-4.4359,-4.4359,-4.3871,-4.3138,-4.216,-4.154,-4.1213,-4.1186,-4.1186,-4.0453,-3.8871,-3.8227,-3.8181,-3.8684,0.0,0.0,0.0,0.0,0.0,0.0,0.0,0.0,0.0,0.0,0.0,0.0,0.0,0.0,0.0,0.0,0.0,0.0,0.0,0.0,0.0,0.0,-5.0772,-4.9814,-5.0801,-5.1614,-5.1614,-5.2426,-5.3123,-5.3471,-5.321,-5.3588,-5.5039,-5.5329,-5.5881,-5.6984,-5.7216,-5.7303,-5.7303,-5.7303,-5.7216,-5.7042,-5.7042,-5.6955,-5.6781,-5.6345,-5.6142,-5.6113,-5.562,-5.5416,-5.5416,-5.5416,-5.5416,-5.5416,-5.5416,-5.5416,-5.5387,-5.501,-5.4894,-5.4923,-5.5097,-5.5155,-5.5184,-5.5358,-5.5852,-5.6403,-5.6403,-5.681,-5.7303,-5.7303,-5.7303,-5.7303,-5.7303,-5.7187,-5.7042,-5.7042,-5.4226,-5.1352,-5.1352,-4.8566,-4.5895,-4.5895,-4.5895,-4.5895,-4.5895,-4.5895,-4.5895,-4.5895,-4.5895,-4.5895,-4.5895,-4.5895,0.0,-4.5895,-4.564,-4.5595,-4.5895,-4.564,-4.5429,-4.5429,-4.4588,-4.4291,0.0,-4.3937,-4.3259,-4.2859,-4.2859,-4.2095,-4.0526,-4.0291,-4.0245,0.0,0.0,0.0,0.0,0.0,0.0,0.0,0.0,0.0,0.0,0.0,0.0,0.0,0.0,0.0,0.0,0.0,0.0,0.0,0.0,0.0,0.0,-5.1585,-5.2165,-5.1381,-5.1933,-5.2426,-5.2426,-5.3065,-5.35,-5.35,-5.35,-5.4052,-5.53,-5.5416,-5.5968,-5.7245,-5.7303,-5.7303,-5.7303,-5.7303,-5.7303,-5.7303,-5.7303,-5.7303,-5.7303,-5.6955,-5.6781,-5.6781,-5.6374,-5.62,0.0,-5.62,-5.62,-5.62,-5.62,-5.62,0.0,0.0,0.0,0.0,0.0,-5.5997,-5.62,-5.62,-5.6461,-5.6781,-5.6781,-5.7013,-5.7303,-5.7303,-5.7303,-5.7303,-5.7303,-5.7303,-5.7303,-5.7303,-5.4458,-5.1614,-5.1614,-4.8682,-4.5895,-4.5895,-4.5895,-4.5895,-4.5895,0.0,0.0,-4.5895,-4.5895,-4.5895,-4.5895,-4.5895,-4.5895,-4.5895,-4.5895,-4.5895,-4.5895,-4.5895,-4.5895,-4.5895,-4.5338,0.0,0.0,0.0,-4.4847,-4.4521,-4.3874,0.0,0.0,0.0,-4.1801,0.0,0.0,0.0,0.0,-3.8826,-3.8152,0.0,0.0,0.0,0.0,0.0,0.0,0.0,0.0,0.0,0.0,0.0,0.0,0.0,0.0,0.0,0.0,-5.2688,-5.35,-5.35,-5.35,-5.35,-5.35,-5.35,-5.35,-5.35,-5.35,-5.4052,-5.53,-5.5416,-5.5968,-5.7245,0.0,0.0,0.0,0.0,-5.7303,-5.7303,-5.7303,-5.7303,-5.7303,-5.739,-5.7419,-5.7419,-5.7507,-5.7536,-5.7536,-5.7536,-5.7536,-5.7536,-5.7448,-5.7361,-5.7187,-5.6055,-5.562,-5.5707,-5.6343,-5.6924,0.0,0.0,0.0,0.0,-5.7303,-5.7303,-5.7303,-5.7303,-5.7303,-5.736,-5.7303,-5.7303,-5.736,-5.7303,-5.4633,-5.1933,-5.1933,-4.9001,-4.6214,-4.626,-4.6085,-4.594,-4.594,-4.594,-4.5895,-4.5982,-4.5924,-4.5895,-4.5895,-4.5895,-4.5895,-4.5895,-4.5895,-4.5895,-4.5895,0.0,0.0,-4.5895,-4.5895,-4.5895,-4.5895,-4.5895,-4.5895,-4.5895,-4.4521,-4.398,-4.4452,-4.3426,-4.3144,-4.368,-4.3144,-4.2862,-4.2862,-4.1654,-4.0602,0.0,0.0,0.0,0.0,0.0,0.0,0.0,0.0,0.0,0.0,0.0,0.0,0.0,0.0,0.0,-5.1585,-5.2688,-5.35,-5.35,-5.35,-5.35,-5.35,-5.35,-5.35,-5.35,-5.35,-5.4052,-5.53,-5.5416,-5.5968,-5.7245,-5.7303,0.0,-5.7303,-5.7303,-5.7303,-5.7303,-5.7303,-5.7303,-5.7303,0.0,0.0,-5.8116,-5.8668,-5.89,-5.89,-5.89,-5.89,-5.8871,-5.8348,-5.7797,-5.7274,-5.7042,-5.6926,-5.6955,-5.738,-5.7608,-5.7725,-5.7725,-5.7725,-5.7669,-5.736,-5.7303,-5.7303,-5.7303,-5.7472,0.0,-5.736,-5.7472,-5.7669,-5.736,-5.5649,-5.3965,-5.3965,-5.1004,-4.8235,-4.8424,-4.7107,-4.594,-4.609,-4.6001,-4.604,-4.6563,-4.6214,-4.5895,-4.5895,-4.5895,-4.5895,-4.5895,-4.5895,-4.5895,-4.5895,-4.5895,-4.5895,-4.5895,-4.5895,-4.5895,-4.5895,-4.5895,-4.5895,-4.5895,-4.5615,-4.545,-4.5595,-4.5335,-4.5277,-4.5421,-4.5277,-4.5219,-4.5191,-4.2407,-4.102,0.0,0.0,0.0,0.0,0.0,0.0,0.0,0.0,0.0,0.0,0.0,-5.0365,0.0,0.0,-5.1817,-5.2455,-5.3094,-5.35,-5.35,-5.35,-5.35,-5.35,-5.35,-5.35,-5.35,-5.35,-5.3907,-5.4894,-5.5242,-5.5823,-5.681,-5.7129,-5.7303,-5.7303,-5.7303,-5.7448,-5.7797,-5.7797,-5.7971,-5.829,-5.8639,-5.8813,-5.8813,-5.9306,-5.9277,-5.8813,-5.8986,-5.8725,-5.829,-5.8112,-5.7961,-5.7751,-5.7751,-5.764,-5.7613,-5.7892,-5.8003,-5.8003,-5.8003,-5.8003,-5.8003,-5.7807,-5.7751,-5.7751,-5.7751,-5.7863,-5.8003,-5.7807,-5.7751,-5.7781,-5.7751,-5.6238,-5.4754,-5.4914,-5.2142,-4.9416,-4.9589,-4.8238,-4.7082,-4.719,-4.7128,-4.7124,-4.7444,-4.724,-4.7036,-4.687,-4.6824,-4.6824,-4.6824,-4.6824,-4.6824,-4.6824,-4.6824,-4.6824,-4.6824,-4.6824,-4.6708,-4.6388,-4.6359,-4.6214,-4.5895,-4.5895,-4.5895,-4.5895,-4.5895,-4.5895,-4.5895,-4.5895,-4.5895,-4.5866,-4.4243,-4.3202,0.0,0.0,0.0,0.0,0.0,0.0,0.0,0.0,-5.1083,-5.1083,-5.083,-5.0946,-5.1991,-5.2078,-5.231,-5.3355,-5.35,-5.353,-5.3553,-5.3617,-5.3704,-5.3862,-5.3693,-5.3553,-5.35,-5.3553,-5.3902,-5.4686,-5.5126,-5.5765,-5.6659,-5.7042,-5.7303,-5.7303,-5.7419,-5.7768,-5.829,-5.8435,-5.8755,-5.9394,-5.9539,-5.9597,-5.9655,-5.9858,-5.9509,-5.8783,-5.8895,-5.8457,-5.7676,-5.7956,-5.8121,-5.8195,-5.825,-5.8169,-5.8003,-5.8225,-5.8335,-5.8335,-5.8335,-5.8335,-5.828,-5.8195,-5.8195,-5.8195,-5.8195,-5.825,-5.825,-5.8195,-5.8114,-5.8003,-5.814,-5.6883,-5.5542,-5.5571,-5.3112,-5.0671,-5.0485,-4.9292,-4.8278,-4.8324,-4.8295,-4.8307,-4.8424,-4.8453,-4.8302,-4.7951,-4.7922,-4.7969,-4.7969,-4.7969,-4.7969,-4.7969,-4.7969,-4.7969,-4.7969,-4.7922,-4.7672,-4.7102,-4.7027,-4.6795,-4.6272,-4.6243,-4.6243,-4.6243,-4.6127,-4.6069,-4.6069,-4.5953,-4.5895,-4.5895,-4.5895,-4.5429,0.0,0.0,0.0,-4.8682,-4.9611,-5.0511,0.0,0.0,-5.242,-5.242,-5.321,-5.4023,-5.4168,-5.3704,-5.3355,-5.35,-5.35,-5.3553,-5.3815,-5.4182,-5.456,-5.506,-5.4375,-5.3762,-5.35,-5.371,-5.4364,-5.562,-5.555,-5.6049,-5.7549,-5.7443,-5.7303,-5.7303,-5.7884,-5.8232,-5.829,-5.89,-5.9335,-5.9654,-6.0238,-6.0706,-6.0997,-6.0706,-6.056,-6.0385,-5.9858,-5.9358,-5.8997,-5.9053,-5.8699,-5.8195,-5.85,-5.8639,-5.8639,-5.8609,-5.8609,-5.8609,-5.8609,-5.8609,-5.8555,-5.8335,-5.8195,-5.8195,-5.8195,-5.839,-5.8555,-5.825,-5.839,-5.8555,-5.825,-5.8048,-5.7551,-5.6485,-5.4598,-5.2791,-5.1835,-4.9994,-4.8617,-4.88,-4.8709,-4.8702,-4.9292,-4.9333,-4.9081,-4.8272,-4.8341,-4.8525,-4.8525,-4.8525,-4.8525,-4.8525,-4.8525,-4.8525,-4.8525,-4.8295,-4.8109,-4.8021,-4.7835,-4.7637,-4.7579,-4.7579,-4.7579,-4.7579,-4.6998,-4.6691,-4.6691,-4.6156,-4.5895,-4.5895,-4.5895,-4.585,-4.7811,0.0,0.0,0.0,-5.1643,-5.2078,-5.3181,-5.3588,-5.3704,-5.3704,-5.382,-5.3936,-5.3936,-5.3809,-5.3658,0.0,-5.3762,-5.3919,-5.371,-5.4101,-5.4433,-5.4485,-5.4458,-5.4458,-5.455,-5.4346,-5.4351,-5.4709,-5.4822,-5.5326,-5.6336,-5.7149,-5.7613,-5.7613,-5.8605,-5.9187,-5.9388,-5.9859,-6.0238,-6.0499,-6.0793,-6.0821,-6.0554,-6.064,-6.0434,-6.005,-5.9203,-5.8873,-5.8944,-5.8944,-5.8876,-5.8773,-5.8882,-5.8936,-5.8936,-5.8936,-5.8936,-5.8936,-5.8936,-5.8936,-5.8882,-5.8773,-5.8719,-5.8719,-5.8719,-5.8828,-5.8882,-5.8773,-5.8719,-5.8664,-5.8719,-5.8609,-5.8228,-5.703,-5.5464,-5.39,-5.2645,-5.1054,-4.9897,-4.9991,-4.9944,-4.994,-5.0206,-5.0265,-5.0129,-4.9769,-4.9693,-4.9722,-4.9722,-4.9722,-4.9722,-4.9722,-4.9722,-4.9722,-4.9722,-4.9581,-4.9387,-4.8975,-4.8852,-4.8536,-4.8045,-4.8016,-4.7969,-4.7782,-4.7521,-4.7375,-4.7375,-4.7114,-4.6998,-4.6998,-4.6998,-4.6998,-4.8333,0.0,0.0,-5.2601,-5.3181,-5.3471,-5.4836,-5.4744,-5.4333,-5.4226,-5.3954,-5.371,-5.3605,-5.3815,-5.3971,-5.3762,-5.4045,-5.4259,-5.4101,-5.4538,-5.4923,-5.5047,-5.5463,-5.5804,-5.6018,-5.5331,-5.4797,-5.4655,-5.5007,-5.5571,-5.6293,-5.7283,-5.7836,-5.7892,-5.8891,-5.962,-5.9905,-6.0323,-6.0704,-6.0993,-6.0993,-6.0727,-6.0368,-6.039,-6.0001,-5.9347,-5.8652,-5.85,-5.8773,-5.8773,-5.8936,-5.9099,-5.9099,-5.9099,-5.9099,-5.9099,-5.9099,-5.9099,-5.9099,-5.9099,-5.9099,-5.9099,-5.9099,-5.9099,-5.9099,-5.9099,-5.9129,-5.9308,-5.9235,-5.9155,-5.9553,-5.9503,-5.8917,-5.7251,-5.6004,-5.4687,-5.2762,-5.1601,-5.0917,-5.0917,-5.0917,-5.0917,-5.0917,-5.1066,-5.1185,-5.1185,-5.122,-5.1124,-5.0721,-5.0662,-5.0662,-5.0662,-5.0662,-5.0662,-5.0662,-5.0614,-5.036,-4.9858,-4.9811,-4.951,-4.8881,-4.8852,-4.8758,-4.8541,-4.8272,-4.8184,-4.8184,-4.7916,-4.7782,-4.7782,-4.7782,-4.7782,0.0,0.0,-5.321,-5.2717,-5.353,-5.4458,-5.4517,-5.4235,-5.3844,-5.3582,-5.3919,-5.42,-5.3971,-5.4097,-5.4304,-5.4304,-5.4304,-5.4643,-5.5501,-5.5966,-5.6669,-5.7856,-5.8051,-5.809,0.0,-5.6571,-5.5909,-5.6585,-5.7,-5.7626,-5.852,-5.8085,-5.7948,-5.8195,-5.8537,-5.8889,-5.9256,-5.9789,-6.0284,-6.0598,-6.0598,-6.0767,-6.1048,-6.0138,-5.9373,-5.8723,-5.8694,-5.8828,-5.9099,-5.9099,-5.9099,-5.9099,-5.9099,-5.9099,-5.9099,-5.9099,-5.9099,-5.9099,-5.9099,-5.9099,-5.9099,-5.9099,-5.9099,-5.9099,-5.9099,-5.9099,-5.9249,-5.9877,-6.0057,-6.0206,-6.0894,-6.1044,-6.0236,-5.6974,-5.6166,-5.5239,-5.193,-5.1212,-5.1182,-5.1182,-5.1182,-5.1182,-5.1182,-5.1738,-5.2157,-5.2157,-5.2725,-5.2665,-5.1332,-5.1182,-5.1182,-5.1182,-5.1182,-5.1182,-5.1182,-5.0917,-5.0793,-5.0793,-5.0585,-5.0471,-5.0442,-5.0442,-5.0442,-5.0442,-4.9527,-4.9062,-4.9062,-4.8213,-4.7782,-4.7782,-4.7782,-4.7782,0.0,0.0,-5.3325,-5.3937,-5.4112,-5.4136,-5.4345,-5.4117,-5.4036,-5.458,-5.3796,-5.3133,-5.3524,-5.3786,-5.374,-5.3124,-5.4789,-5.5983,-5.5493,-5.5879,-5.6296,-5.6504,-5.6743,0.0,0.0,0.0,0.0,-5.6704,-5.6646,-5.6981,-5.7739,-5.8183,-5.8445,-5.85,-5.9454,-5.9921,-5.9811,-6.0241,-6.0387,-6.0249,-5.9802,-5.9648,-5.9787,-5.9439,-5.9145,-5.8936,-5.8936,-5.8991,-5.9099,-5.9099,-5.9099,-5.9099,-5.9099,-5.9368,-5.9757,-5.9757,-6.0057,-6.0296,-5.9428,-5.9398,-5.9757,-5.9757,-6.0057,-6.0446,-6.0446,-6.0446,-6.0475,-6.0715,-6.0775,-6.0835,-6.1044,-6.1104,-6.0595,-5.859,-5.7124,-5.5748,-5.4192,-5.2815,-5.2007,-5.2426,-5.2516,-5.2516,-5.2516,-5.2695,-5.2845,-5.2845,-5.3025,-5.3025,-5.2576,-5.2516,-5.2516,-5.2516,-5.2516,-5.2516,-5.2516,-5.2468,-5.221,-5.1745,-5.1697,-5.1345,-5.071,-5.068,-5.0662,-5.0501,-5.0169,-5.0052,-5.0052,-4.9751,-4.9586,-4.9586,-4.9395,-4.9347,0.0,-5.4267,-5.445,-5.489,-5.4805,-5.4531,-5.4355,-5.4429,-5.4701,-5.5165,-5.4103,-5.3138,-5.3453,-5.3149,-5.2911,-5.301,-5.4717,-5.6153,-5.6242,-5.6646,-5.6892,-5.6892,-5.69,0.0,0.0,0.0,0.0,-5.7249,-5.706,-5.725,-5.7932,-5.8402,-5.8748,-5.8857,-5.9551,-5.9844,-5.9727,-5.9926,-5.9926,-5.9727,-5.9308,-5.9099,-5.9099,-5.9099,-5.9099,-5.9099,-5.9099,-5.9099,-5.9129,-5.9368,-5.9458,-5.9488,-5.9727,-6.0086,-6.0446,-6.0446,-6.0745,-6.0984,-6.0116,-6.0086,-6.0446,-6.0446,-6.0745,-6.1104,-6.1104,-6.1104,-6.1164,-6.1403,-6.1463,-6.1523,-6.1762,-6.1822,-6.1433,-5.9817,-5.8141,-5.6555,-5.5418,-5.3803,-5.2665,-5.3084,-5.3174,-5.3174,-5.3174,-5.3384,-5.3623,-5.3862,-5.3892,-5.3713,-5.3234,-5.3174,-5.3174,-5.3174,-5.3174,-5.3174,-5.3174,-5.3174,-5.2995,-5.2576,-5.2546,-5.2318,-5.1679,-5.1649,-5.1464,-5.1113,-5.1017,-5.0851,-5.0614,-5.0548,-5.0501,-5.0501,-5.0357,-5.0231,-5.4369,-5.5679,-5.6607,-5.5664,-5.564,-5.5579,-5.4764,-5.5197,-5.5723,-5.5627,-5.4887,-5.4181,0.0,0.0,-5.2025,-5.3982,-5.4401,-5.5329,-5.7782,-5.8082,-5.8321,0.0,0.0,0.0,0.0,0.0,0.0,-5.8171,0.0,-5.8441,-5.9069,-5.8828,-5.8857,-5.9099,-5.8828,-5.8828,-5.9099,-5.9099,-5.9099,-5.9099,-5.9099,-5.9099,-5.9099,-5.9099,-5.9129,-5.9159,-5.9159,-5.9189,-5.9249,-5.9877,-6.0146,-6.0206,-6.0864,-6.1134,-6.1164,-6.1164,-6.1194,-6.1224,-6.1224,-6.1194,-6.1164,-6.1164,-6.1194,-6.1224,-6.1224,-6.1224,-6.1343,-6.1972,-6.2151,-6.2301,-6.2899,-6.3079,-6.26,-6.0685,-5.9159,-5.7633,-5.5777,-5.4251,-5.3234,-5.3264,-5.3294,-5.3294,-5.3294,-5.3832,-5.4461,-5.5089,-5.5179,-5.473,-5.3443,-5.3294,-5.3294,-5.3294,-5.3294,-5.3294,-5.3294,-5.3294,-5.3264,-5.3234,-5.3234,-5.3204,-5.3174,-5.3174,-5.2875,-5.2247,-5.2007,-5.1565,-5.0911,-5.0703,-5.0637,-5.0637,-5.056,-5.056,-5.5963,-5.6788,-5.7106,-5.7122,-5.6603,-5.6409,-5.7659,-5.7371,-5.7453,-5.9365,-5.7168,-5.5425,0.0,0.0,0.0,-5.548,-5.6915,0.0,-5.8112,-5.7693,0.0,-5.8291,0.0,-5.7573,-5.8082,-5.8112,0.0,0.0,-5.886,-5.8919,-5.9099,-5.9045,-5.9045,-5.9099,-5.9045,-5.9045,-5.9099,-5.9099,-5.9099,-5.9099,-5.9099,-5.9099,-5.9099,-5.9099,-5.9368,-5.9847,-5.9847,-6.0116,-6.0625,-6.0775,-6.0864,-6.0864,-6.1044,-6.1403,-6.1852,-6.1852,-6.2151,-6.257,-6.257,-6.2241,-6.1852,-6.1852,-6.2181,-6.257,-6.257,-6.257,-6.26,-6.278,-6.2839,-6.2869,-6.3019,-6.3079,-6.2959,-6.2421,-6.0176,-5.8112,-5.8112,-5.5927,-5.4102,-5.4581,-5.467,-5.467,-5.467,-5.482,-5.4999,-5.5149,-5.5179,-5.5059,-5.473,-5.467,-5.467,-5.467,-5.467,-5.467,-5.467,-5.467,-5.4461,-5.3982,-5.3952,-5.3713,-5.3204,-5.3174,-5.3114,-5.2935,-5.2886,-5.2748,-5.2569,-5.255,-5.2502,-5.2472,-5.1803,-5.1498,-5.7808,-5.8014,-5.771,-5.8185,-5.7902,-5.754,-5.7711,-5.7306,-5.7179,-5.8201,-5.6112,0.0,0.0,0.0,0.0,0.0,0.0,0.0,-5.8471,-5.8231,-5.8112,0.0,-5.7962,0.0,-5.8082,-5.8112,-5.8291,0.0,-5.868,-5.88,-5.9099,-5.9099,-5.9099,-5.9099,-5.9099,-5.9099,-5.9099,-5.9099,-5.9099,-5.9099,-5.9099,-5.9099,-5.9129,-5.9398,-5.9727,-6.0116,0.0,-6.0745,-6.1134,-6.1433,-6.1553,-6.1583,-6.1852,-6.2211,-6.254,-6.254,-6.275,-6.3079,-6.3079,-6.2839,-6.254,-6.254,-6.278,-6.3079,-6.3079,-6.3079,-6.3079,-6.3079,-6.3079,-6.3079,-6.3079,-6.3079,-6.3079,-6.3079,-6.0745,-5.883,-5.9787,-5.7184,-5.476,-5.5119,-5.5179,-5.5179,-5.5179,-5.5179,-5.5179,-5.5179,-5.5179,-5.5179,-5.5179,-5.5179,-5.5179,-5.5179,-5.5179,-5.5179,-5.5179,-5.5179,-5.5029,-5.467,-5.464,-5.4461,-5.4072,-5.4072,-5.3922,-5.3623,-5.3623,-5.3473,-5.3174,-5.3174,-5.3174,-5.3174,-5.267,-5.2394,-5.9236,-5.911,-5.8473,-5.92,-5.9329,-5.8793,-5.6855,-5.6651,-5.6559,-5.5481,0.0,-5.3785,-5.5859,-5.4051,-5.3469,-5.7239,0.0,-5.7415,-5.9075,-5.9117,-5.9009,-5.9099,-5.853,-5.8141,-5.8231,-5.8261,-5.8261,-5.8261,-5.8261,-5.8501,-5.9069,-5.9099,-5.9099,-5.9099,-5.9099,-5.9099,-5.9099,-5.9099,-5.9099,-5.9099,-5.9189,-5.9249,-5.9249,-5.9907,-6.0266,-6.0386,0.0,0.0,-6.1433,-6.2002,-6.2241,-6.2271,-6.2839,-6.3079,-6.3079,-6.3079,-6.3079,-6.3079,-6.3079,-6.3079,-6.3079,-6.3079,-6.3079,-6.3079,-6.3079,-6.3079,-6.3079,-6.3079,-6.3079,-6.3079,-6.3079,-6.3079,-6.3079,-6.3079,-6.1194,-5.9697,-6.0864,-5.8141,-5.5388,-5.5209,-5.5179,-5.5179,-5.5179,-5.5179,-5.5179,-5.5179,-5.5179,-5.5179,-5.5179,-5.5179,-5.5179,-5.5179,-5.5179,-5.5179,-5.5179,-5.5179,-5.5179,-5.5179,-5.5179,-5.5179,-5.5179,-5.5179,-5.491,-5.4341,-5.4341,-5.4042,-5.3443,-5.3443,-5.3443,-5.3443,-5.3354,-5.3324,-5.8371,-5.9065,-5.9575,-6.0509,-6.0576,-6.0223,-5.946,-5.9134,0.0,0.0,0.0,-5.6141,-5.9412,-5.7983,-5.7476,-6.1111,0.0,0.0,0.0,0.0,-5.8501,0.0,0.0,0.0,0.0,0.0,0.0,0.0,0.0,-5.8979,-5.9099,-5.9099,-5.9099,-5.9099,-5.9099,-5.9099,-5.9099,-5.9099,-5.9099,-5.9129,-5.9668,-5.9907,-5.9937,-6.0625,-6.1224,-6.1762,0.0,0.0,-6.275,-6.2869,-6.2899,-6.2929,-6.3019,-6.3079,-6.3079,-6.3079,-6.3079,-6.3079,-6.3079,-6.3079,-6.3079,-6.3079,-6.3079,-6.3079,-6.3079,-6.3079,-6.3079,-6.3079,-6.3079,-6.3079,-6.3079,-6.3079,-6.3079,-6.3079,-6.1882,-6.0835,-6.1074,-5.883,-5.6466,-5.5388,-5.5179,-5.5179,-5.5179,-5.5179,-5.5179,-5.5179,-5.5179,-5.5179,-5.5179,-5.5179,-5.5179,-5.5179,-5.5179,-5.5179,-5.5179,-5.5179,-5.5179,-5.5179,-5.5179,-5.5179,-5.5179,-5.5179,-5.5149,-5.5029,-5.5029,-5.497,-5.485,-5.485,-5.485,-5.482,-5.4281,-5.4042,-5.8863,-5.9414,-5.9838,-6.0877,-6.1153,-6.0683,-5.8731,0.0,0.0,0.0,-5.4659,-5.4618,-5.686,-5.6335,0.0,0.0,0.0,0.0,0.0,0.0,0.0,0.0,0.0,0.0,0.0,0.0,0.0,0.0,0.0,-5.9099,-5.9099,-5.9099,-5.9099,-5.9099,-5.9099,-5.9099,-5.9099,-5.9099,-5.9279,-5.9608,-5.9937,-6.0266,-6.0655,-6.1313,-6.1792,-6.2121,-6.245,0.0,-6.3079,-6.3079,-6.3079,-6.3079,-6.3079,-6.3079,-6.3079,-6.3079,-6.3079,-6.3079,-6.3079,-6.3079,-6.3079,-6.3079,-6.3079,-6.3079,-6.3079,-6.3079,-6.3079,-6.3079,-6.3079,-6.3139,-6.3468,-6.3558,-6.3647,-6.4006,-6.3617,-6.248,-6.0086,-5.9069,-5.7962,-5.5628,-5.5179,-5.5179,-5.5179,-5.5179,-5.5179,-5.5179,-5.5179,-5.5179,-5.5179,-5.5179,-5.5179,-5.5179,-5.5179,-5.5179,-5.5179,-5.5179,-5.5179,-5.5179,-5.5179,-5.5179,-5.5179,-5.5179,-5.5179,-5.5179,-5.5179,-5.5179,-5.5179,-5.5179,-5.5179,-5.5179,-5.488,-5.473,-5.9177,-5.9816,-6.013,-6.0919,-6.1589,-6.1066,-5.7516,-5.7175,0.0,0.0,-5.2409,-5.2721,-5.3598,-5.4118,-5.4451,0.0,0.0,0.0,0.0,0.0,0.0,0.0,0.0,0.0,0.0,0.0,0.0,0.0,0.0,0.0,-5.9099,-5.9099,-5.9099,-5.9099,-5.9099,-5.9099,-5.9099,-5.9249,-5.9578,-6.0086,-6.0386,-6.0805,-6.1343,-6.2002,-6.2301,-6.2331,-6.2839,0.0,0.0,-6.3079,-6.3079,-6.3079,-6.3079,-6.3079,-6.3079,-6.3079,-6.3079,-6.3079,-6.3079,-6.3169,-6.3258,-6.3258,-6.3199,-6.3109,-6.3228,-6.3258,-6.3318,-6.3468,-6.3498,-6.3617,-6.4096,-6.4216,-6.4366,-6.4904,-6.5024,-6.3827,-5.9488,-5.9368,-5.9129,-5.5837,-5.5179,-5.5179,-5.5179,-5.5179,-5.5179,-5.5179,-5.5179,-5.5179,-5.5179,-5.5179,-5.5179,-5.5179,-5.5179,-5.5179,-5.5179,-5.5179,-5.5179,-5.5179,-5.5179,-5.5179,-5.5179,-5.5179,-5.5179,-5.5179,-5.5179,-5.5179,-5.5179,-5.5179,-5.5179,-5.5179,-5.5179,-5.5179,-5.836,-5.9944,-6.0961,-6.1077,-6.2137,-6.2028,-5.7707,0.0,0.0,-5.3268,-5.2409,-5.2721,-5.3598,-5.4721,-5.573,0.0,0.0,-5.7457,0.0,0.0,0.0,0.0,0.0,0.0,0.0,0.0,0.0,0.0,0.0,0.0,-5.9099,-5.9099,-5.9099,-5.9099,-5.9099,-5.9099,-5.9099,-5.9697,-6.0027,-6.0086,-6.1313,-6.1942,-6.2032,-6.269,-6.2989,-6.2989,0.0,0.0,0.0,-6.3079,-6.3079,-6.3079,-6.3079,-6.3079,-6.3079,-6.3079,-6.3079,-6.3079,-6.3079,-6.3438,-6.3917,-6.3917,-6.3528,-6.3169,-6.3737,-6.3917,-6.4036,-6.4665,-6.4844,-6.4874,-6.4904,-6.4934,-6.4934,-6.5024,-6.5024,-6.4096,-6.0655,-5.9997,-5.9129,-5.5837,-5.5179,-5.5179,-5.5179,-5.5179,-5.5179,-5.5179,-5.5179,-5.5179,-5.5179,-5.5179,-5.5179,-5.5179,-5.5179,-5.5179,-5.5179,-5.5179,-5.5179,-5.5179,-5.5179,-5.5179,-5.5179,-5.5179,-5.5179,-5.5179,-5.5179,-5.5179,-5.5179,-5.5179,-5.5179,-5.5179,-5.5179,-5.5179,-5.8389,-5.9993,-6.1119,-6.1119,-6.2212,-6.2155,-5.7707,0.0,0.0,-5.3268,-5.2409,-5.22,-5.1533,-5.2637,-5.3286,-5.2135,0.0,0.0,0.0,0.0,0.0,0.0,0.0,0.0,0.0,0.0,0.0,0.0,0.0,0.0,-5.9099,-5.9099,-5.9099,-5.9099,-5.9099,-5.9308,-5.9697,-5.9967,-6.0505,-6.1313,-6.1822,-6.2301,-6.269,-6.2959,-6.3079,-6.3079,0.0,0.0,0.0,-6.3079,-6.3079,-6.3079,-6.3079,-6.3079,-6.3079,-6.3079,-6.3318,-6.3617,-6.3617,-6.4066,-6.4605,-6.4605,-6.4455,-6.4306,-6.4545,-6.4605,-6.4665,-6.4934,-6.5024,-6.5114,-6.5533,-6.5922,-6.6191,-6.6191,-6.6191,-6.5203,-6.1493,-6.0715,-5.9608,-5.5897,-5.5179,-5.5179,-5.5179,-5.5179,-5.5179,-5.5179,-5.5179,-5.5179,-5.5179,-5.5179,-5.5179,-5.5179,-5.5179,-5.5179,-5.5179,-5.5179,-5.5179,-5.5179,-5.5179,-5.5179,-5.5179,-5.5179,-5.5179,-5.5179,-5.5179,-5.5179,-5.5179,-5.5179,-5.5179,-5.5179,-5.5179,-5.5179,-5.8899,-6.0324,-6.1152,-6.1384,-6.1881,-6.1384,0.0,0.0,-5.6879,-5.3135,-5.2409,-5.1944,-5.0461,-5.1401,-5.1729,0.0,0.0,-5.2869,0.0,0.0,0.0,0.0,0.0,0.0,0.0,0.0,0.0,0.0,0.0,0.0,0.0,-5.8501,-5.868,-5.9099,-5.9099,-5.9428,-6.0086,-6.0296,-6.0954,-6.2091,-6.2301,-6.263,-6.3079,-6.3079,-6.3079,-6.3079,0.0,0.0,0.0,-6.3079,-6.3079,-6.3079,-6.3079,-6.3079,-6.3109,-6.3288,-6.3617,-6.4036,-6.4246,-6.4755,-6.5323,-6.5323,-6.5443,-6.5592,-6.5592,-6.5473,-6.5353,-6.5562,-6.5592,-6.5712,-6.6191,-6.664,-6.6999,-6.6999,-6.6999,-6.5922,-6.1972,-6.1104,-5.9937,-5.5957,-5.5179,-5.5179,-5.5179,-5.5179,-5.5179,-5.5179,-5.5179,-5.5179,-5.5179,-5.5179,-5.5179,-5.5179,-5.5179,-5.5179,-5.5179,-5.5179,-5.5179,-5.5179,-5.5179,-5.5179,-5.5179,-5.5179,-5.5179,-5.5179,-5.5179,-5.5179,-5.5179,-5.5179,-5.5179,-5.5179,-5.5179,-5.5179,-5.9893,-6.1086,-6.1285,-6.2022,-6.1086,-5.9628,0.0,0.0,-5.5024,-5.2837,-5.2409,-5.2125,-5.1247,-5.1835,-5.2089,-5.1247,-5.4197,0.0,0.0,0.0,0.0,0.0,0.0,0.0,0.0,0.0,0.0,0.0,0.0,0.0,0.0,-5.7124,-5.7723,-5.9069,-5.9099,-5.9428,-6.0086,-6.0775,-6.1433,-6.2121,-6.275,-6.3079,-6.3079,-6.3079,-6.3079,0.0,0.0,0.0,0.0,-6.3079,-6.3079,-6.3079,-6.3079,-6.3079,-6.3139,-6.3767,-6.4006,-6.4096,-6.4784,-6.5443,-6.6011,-6.6011,-6.643,-6.6969,-6.6969,-6.652,-6.6131,-6.6789,-6.6969,-6.6969,-6.6969,-6.6999,-6.6999,-6.6999,-6.6999,-6.5922,-6.1972,-6.1104,-5.9937,-5.5957,-5.5179,-5.5179,-5.5179,-5.5179,-5.5179,-5.5179,-5.5179,-5.5179,-5.5179,-5.5179,-5.5179,-5.5179,-5.5179,-5.5179,-5.5179,-5.5179,-5.5179,-5.5179,-5.5179,-5.5179,-5.5179,-5.5179,-5.5179,-5.5179,-5.5179,-5.5179,-5.5179,-5.5179,-5.5179,-5.5179,-5.5179,-5.5179,-5.5222,-5.6581,-5.7409,-5.7641,-5.8104,-5.7972,-5.6017,0.0,-5.5024,-5.2837,-5.2409,-5.2125,-5.1285,-5.1835,-5.2748,-5.3922,-5.5042,0.0,0.0,0.0,0.0,0.0,0.0,0.0,0.0,0.0,0.0,0.0,0.0,0.0,0.0,-5.7094,-5.7304,-5.7723,-5.862,-5.9428,-6.0086,-6.1224,-6.2121,-6.278,-6.2989,-6.3079,-6.3079,-6.3079,0.0,0.0,0.0,0.0,0.0,-6.3079,-6.3079,-6.3109,-6.3528,-6.3707,-6.3797,-6.4455,-6.4994,-6.5413,-6.5622,-6.6131,-6.667,-6.667,-6.6819,-6.6999,-6.6999,-6.6849,-6.6729,-6.6939,-6.6999,-6.6999,-6.6999,-6.6999,-6.6999,-6.6999,-6.6999,-6.5922,-6.1972,-6.1104,-5.9937,-5.5957,-5.5179,-5.5179,-5.5179,-5.5179,-5.5179,-5.5179,-5.5179,-5.5179,-5.5179,-5.5179,-5.5179,-5.5179,-5.5179,-5.5179,-5.5179,-5.5179,-5.5179,-5.5179,-5.5179,-5.5179,-5.5179,-5.5179,-5.5179,-5.5179,-5.5179,-5.5179,-5.5179,-5.5179,-5.5179,-5.5179,-5.5179,-5.5179,0.0,-5.5123,-5.5714,-5.6316,-5.6514,0.0,0.0,0.0,-5.403,-5.2672,-5.2409,-5.223,-5.1692,-5.2017,-5.2825,-5.4115,-5.5941,0.0,0.0,0.0,0.0,0.0,0.0,0.0,0.0,0.0,0.0,0.0,0.0,0.0,0.0,0.0,-5.6496,-5.6735,-5.8052,-5.9159,-6.0086,-6.1164,-6.2061,-6.272,-6.2959,-6.3079,-6.3079,-6.3079,0.0,0.0,0.0,0.0,0.0,-6.3079,-6.3199,-6.3468,-6.3857,-6.4156,-6.4485,-6.5144,-6.5652,-6.6041,-6.6281,-6.664,-6.6999,-6.6999,-6.6999,-6.6999,-6.6999,-6.6999,-6.6999,-6.6999,-6.6999,-6.6999,-6.6999,-6.6999,-6.6999,-6.6999,-6.6999,-6.5922,-6.1972,-6.1104,-5.9937,-5.5957,-5.5179,-5.5179,-5.5179,-5.5179,-5.5179,-5.5179,-5.5179,-5.5179,-5.5179,-5.5179,-5.5179,-5.5179,-5.5179,-5.5179,-5.5179,-5.5179,-5.5179,-5.5179,-5.5179,-5.5179,-5.5179,-5.5179,-5.5179,-5.5179,-5.5179,-5.5179,-5.5179,-5.5179,-5.5179,-5.5179,-5.5179,-5.5179,0.0,0.0,0.0,0.0,0.0,0.0,0.0,0.0,0.0,-5.2409,-5.2409,-5.2409,-5.2409,-5.2409,-5.2475,-5.2674,-5.6812,0.0,0.0,0.0,0.0,0.0,0.0,0.0,0.0,0.0,0.0,0.0,0.0,0.0,0.0,0.0,-5.567,-5.6278,-5.7453,-5.874,-5.9997,-6.0745,-6.1433,-6.2121,-6.266,-6.2989,-6.3079,-6.3019,0.0,0.0,0.0,0.0,0.0,-6.3139,-6.3468,-6.4006,-6.4096,-6.4545,-6.5173,-6.5832,-6.6071,-6.6161,-6.6789,-6.6999,-6.6999,-6.6999,-6.6999,-6.6999,-6.6999,-6.6999,-6.6999,-6.6999,-6.6999,-6.6999,-6.6999,-6.6999,-6.6999,-6.6999,-6.6999,-6.5951,-6.2151,-6.1283,-6.0086,-5.6166,-5.5359,-5.5299,-5.5209,-5.5179,-5.5179,-5.5179,-5.5179,-5.5179,-5.5179,-5.5179,-5.5179,-5.5179,-5.5179,-5.5179,-5.5179,-5.5179,-5.5179,-5.5179,-5.5179,-5.5179,-5.5179,-5.5179,-5.5179,-5.5179,-5.5179,-5.5179,-5.5179,-5.5179,-5.5179,-5.5179,-5.5179,-5.5179,-5.1214,0.0,-5.1711,-5.2572,-5.2837,-5.2937,0.0,0.0,0.0,0.0,0.0,0.0,0.0,-5.2409,-5.3138,-5.5322,-5.8104,-5.8999,-5.6084,0.0,0.0,0.0,0.0,0.0,0.0,0.0,0.0,0.0,0.0,0.0,0.0,0.0,-5.698,-5.6907,-5.7693,-5.853,-5.9338,-6.0505,-6.1433,-6.2091,-6.1732,-6.2121,-6.3049,-6.257,0.0,0.0,0.0,0.0,-6.3109,-6.3588,-6.3857,-6.4096,-6.5144,-6.5652,-6.5862,-6.652,-6.6759,-6.6789,-6.6939,-6.6999,-6.6999,-6.6999,-6.6999,-6.6999,-6.6999,-6.6999,-6.6999,-6.6999,-6.6999,-6.6999,-6.6999,-6.6999,-6.6999,-6.6999,-6.6999,-6.6311,-6.3857,-6.2959,-6.1583,-5.8112,-5.7004,-5.6346,-5.5359,-5.5179,-5.5179,-5.5179,-5.5179,-5.5179,-5.5179,-5.5179,-5.5179,-5.5179,-5.5179,-5.5179,-5.5179,-5.5179,-5.5179,-5.5179,-5.5179,-5.5179,-5.5179,-5.5179,-5.5179,-5.5179,-5.5179,-5.5179,-5.5179,-5.5179,-5.5179,-5.5179,-5.5179,-5.5179,-5.0419,-5.0684,-5.0883,-5.1647,-5.2111,-5.2409,-5.2409,0.0,0.0,0.0,0.0,0.0,0.0,0.0,-5.294,-5.446,-5.6547,-5.7939,0.0,0.0,0.0,0.0,0.0,0.0,0.0,0.0,0.0,0.0,0.0,0.0,0.0,0.0,-5.7664,-5.781,-5.8016,-5.8441,-5.9099,-6.0116,-6.0805,-6.1164,-6.1134,-6.1493,-6.2181,-6.2121,0.0,0.0,0.0,0.0,-6.3528,-6.3857,-6.4366,-6.4994,-6.5712,-6.6191,-6.649,-6.6849,-6.6999,-6.6999,-6.6999,-6.6999,-6.6999,-6.6999,-6.6999,-6.6999,-6.6999,-6.6999,-6.6999,-6.6999,-6.6999,-6.6999,-6.6999,-6.6999,-6.6999,-6.6999,-6.6999,-6.637,-6.4066,-6.3318,-6.2002,-5.8351,-5.7363,-5.6705,-5.5418,-5.5179,-5.5179,-5.5179,-5.5179,-5.5179,-5.5179,-5.5179,-5.5179,-5.5179,-5.5179,-5.5179,-5.5179,-5.5179,-5.5179,-5.5179,-5.5179,-5.5179,-5.5179,-5.5179,-5.5179,-5.5179,-5.5179,-5.5179,-5.5179,-5.5179,-5.5179,-5.5179,-5.5179,-5.5179,-5.0984,-5.1382,-5.1614,-5.2243,-5.2409,-5.2409,-5.2409,0.0,0.0,0.0,0.0,0.0,0.0,-5.2409,0.0,-5.2837,-5.4692,-5.7011,-5.9529,0.0,0.0,0.0,0.0,0.0,0.0,0.0,0.0,0.0,0.0,0.0,0.0,0.0,0.0,-5.8838,-5.8598,-5.8797,-5.9339,-5.9777,-5.9997,-6.0086,-6.0565,-6.0924,-6.1134,-6.1702,-6.2002,0.0,0.0,0.0,-6.4006,-6.4216,-6.4964,-6.6011,-6.6131,-6.649,-6.6999,-6.6999,-6.6999,-6.6999,-6.6999,-6.6999,-6.6999,-6.6999,-6.6999,-6.6999,-6.6999,-6.6999,-6.6999,-6.6999,-6.6999,-6.6999,-6.6999,-6.6999,-6.6999,-6.6999,-6.6909,-6.6221,-6.4006,-6.3348,-6.2091,-5.8291,-5.7483,-5.6974,-5.5568,-5.5329,-5.5359,-5.5478,-5.5478,-5.5478,-5.5478,-5.5478,-5.5478,-5.5478,-5.5478,-5.5478,-5.5478,-5.5478,-5.5448,-5.5359,-5.5239,-5.5179,-5.5179,-5.5179,-5.5179,-5.5179,-5.5179,-5.5179,-5.5179,-5.5179,-5.5179,-5.5179,-5.5179,-5.5179,-5.1249,-5.1779,-5.2277,-5.2376,-5.2409,-5.2409,-5.2409,-5.2409,0.0,0.0,0.0,0.0,0.0,-5.2409,-5.297,0.0,0.0,-5.9794,0.0,0.0,0.0,0.0,0.0,0.0,0.0,0.0,0.0,0.0,0.0,0.0,0.0,0.0,0.0,-5.9979,-6.0175,-6.0319,-6.0442,-5.9643,-5.9548,-6.0086,-5.9638,-6.0027,-6.1104,-6.1224,-6.1553,0.0,0.0,-6.3917,-6.4096,-6.5233,-6.5832,-6.6071,-6.661,-6.6909,-6.6999,-6.6999,-6.6999,-6.6999,-6.6999,-6.6999,-6.6999,-6.6999,-6.6999,-6.6999,-6.6999,-6.6999,-6.6999,-6.6999,-6.6999,-6.6999,-6.6999,-6.6999,-6.6999,-6.6999,-6.658,-6.6041,-6.5652,-6.4665,-6.3019,-6.0176,-5.9189,-5.8201,-5.6346,-5.6017,-5.6196,-5.6735,-5.6795,-5.6795,-5.6795,-5.6795,-5.6795,-5.6795,-5.6795,-5.6795,-5.6795,-5.6795,-5.6585,-5.6047,-5.5508,-5.5179,-5.5179,-5.5179,-5.5179,-5.5179,-5.5179,-5.5179,-5.5179,-5.5179,-5.5179,-5.5179,-5.5179,-5.5179,-5.1812,-5.2144,-5.2672,-5.3831,-5.3235,-5.2409,-5.2409,-5.2409,0.0,0.0,0.0,0.0,0.0,0.0,0.0,0.0,0.0,0.0,0.0,0.0,0.0,0.0,0.0,0.0,0.0,0.0,0.0,0.0,0.0,0.0,0.0,0.0,0.0,0.0,-6.1008,-6.0979,-6.1589,-6.0494,-5.9811,-5.9548,-5.9249,-5.9608,-6.0565,-6.0954,-6.1672,-6.269,0.0,-6.4425,-6.5144,-6.5742,-6.6221,-6.658,-6.6879,-6.6999,-6.6999,-6.6999,-6.6999,-6.6999,-6.6999,-6.6999,-6.6999,-6.6999,-6.6999,-6.6999,-6.6999,-6.7238,-6.7448,-6.7089,-6.6999,-6.6999,-6.6999,-6.6999,-6.6999,-6.6999,-6.6759,-6.643,-6.6071,-6.5533,-6.4216,-6.1224,-6.0386,-5.9428,-5.7064,-5.6675,-5.6765,-5.7064,-5.7094,-5.7094,-5.7094,-5.7094,-5.7094,-5.7094,-5.7094,-5.7094,-5.7094,-5.7094,-5.6825,-5.6248,-5.5568,-5.5179,-5.5179,-5.5179,-5.5179,-5.5179,-5.5179,-5.5179,-5.5179,-5.5179,-5.5179,-5.5179,-5.5179,-5.5179,-5.2277,-5.2409,-5.2937,-5.5289,-5.4494,-5.3268,-5.3798,-5.3897,-5.3897,0.0,0.0,0.0,0.0,0.0,0.0,0.0,0.0,0.0,0.0,0.0,0.0,0.0,0.0,0.0,0.0,0.0,0.0,0.0,0.0,0.0,0.0,0.0,0.0,0.0,-6.2087,-6.1841,-6.268,-6.164,-6.0546,-5.9446,-5.9627,-5.985,-6.0116,-6.0954,-6.1882,-6.2899,-6.3827,-6.4844,-6.5802,-6.6101,-6.655,-6.6999,-6.6999,-6.6999,-6.6999,-6.6999,-6.6999,-6.6999,-6.6999,-6.6999,-6.6999,-6.6999,-6.6999,-6.6999,-6.6999,-6.7358,-6.7627,-6.7119,-6.6999,-6.6999,-6.6999,-6.7119,-6.7178,-6.7029,-6.6879,-6.664,-6.6131,-6.5892,-6.4934,-6.2121,-6.1313,-6.0416,-5.8171,-5.7543,-5.7393,-5.7543,-5.7573,-5.7573,-5.7573,-5.7573,-5.7573,-5.7573,-5.7573,-5.7573,-5.7573,-5.7423,-5.7124,-5.6645,-5.6017,-5.5628,-5.5628,-5.5628,-5.5628,-5.5628,-5.5508,-5.5418,-5.5418,-5.5269,-5.5179,-5.5179,-5.5179,-5.5179,-5.2409,-5.2409,-5.3069,-5.5885,-5.5984,-5.5918,-5.7972,-5.8436,0.0,-5.8436,0.0,0.0,0.0,0.0,0.0,0.0,0.0,0.0,0.0,0.0,0.0,0.0,0.0,0.0,0.0,0.0,0.0,0.0,0.0,0.0,0.0,0.0,0.0,0.0,0.0,-6.3705,-6.38,-6.2729,-6.164,-6.0598,-6.1221,-6.1027,-6.0116,-6.1433,-6.2061,-6.2271,-6.4156,-6.4994,-6.5203,-6.64,-6.6939,-6.6999,-6.6999,-6.6999,-6.6999,-6.6999,-6.6999,-6.6999,-6.6999,-6.6999,-6.6999,-6.6999,-6.6999,-6.6999,-6.6999,-6.7029,-6.7059,-6.6999,-6.6999,-6.6999,-6.6999,-6.7448,-6.7747,-6.7148,-6.652,-6.6071,-6.6011,-6.5533,-6.4665,-6.3228,-6.1942,-6.0835,-5.9997,-5.886,-5.8261,-5.886,-5.8949,-5.8949,-5.8949,-5.8949,-5.8949,-5.8949,-5.8949,-5.8949,-5.8949,-5.8411,-5.8022,-5.7992,-5.7334,-5.6944,-5.6944,-5.6944,-5.6944,-5.6944,-5.6406,-5.6158,-5.6158,-5.5478,-5.5179,-5.5179,-5.5179,-5.5179,-5.2409,-5.2409,-5.3337,-5.7111,-5.7873,0.0,0.0,-5.9595,-5.9463,-5.8999,-5.8237,0.0,0.0,0.0,0.0,0.0,0.0,0.0,0.0,0.0,0.0,0.0,0.0,0.0,0.0,0.0,0.0,0.0,0.0,0.0,0.0,0.0,0.0,0.0,0.0,-6.4175,-6.4852,-6.4235,-6.3366,-6.2297,-6.1908,-6.1568,-6.1343,-6.1852,-6.254,-6.3348,-6.4515,-6.5263,-6.5712,-6.661,-6.6999,-6.6999,-6.6999,-6.6999,-6.6999,-6.6999,-6.6999,-6.6999,-6.6999,-6.7759,-6.8606,-6.7395,-6.785,-6.8697,-6.7876,-6.8121,-6.8758,-6.8758,-6.9572,-6.9903,-6.7607,-6.7178,-6.7298,-6.7059,-6.6819,-6.661,-6.661,-6.643,-6.5862,-6.4545,-6.3228,-6.2002,-6.0924,-5.9608,-5.883,-5.9069,-5.9099,-5.9099,-5.9099,-5.9099,-5.9099,-5.9099,-5.9099,-5.9099,-5.9099,-5.889,-5.874,-5.874,-5.7693,-5.7094,-5.7094,-5.7094,-5.7094,-5.7094,-5.6855,-5.6735,-5.6735,-5.6496,-5.6376,-5.6376,-5.6376,-5.6376,-5.2409,-5.2409,-5.3301,-5.721,0.0,0.0,-6.0755,-6.1384,-6.155,-6.1053,-6.039,0.0,0.0,0.0,0.0,0.0,0.0,0.0,0.0,0.0,0.0,0.0,0.0,0.0,0.0,0.0,0.0,0.0,0.0,0.0,0.0,0.0,0.0,0.0,0.0,-6.4813,-6.5712,-6.5502,-6.5109,-6.4448,-6.374,-6.291,-6.2091,-6.2668,-6.3183,-6.3737,-6.4425,-6.5084,-6.5742,-6.64,-6.6819,-6.6999,-6.6999,-6.6999,-6.6999,-6.6999,-6.6999,-6.6999,-6.6999,-6.785,-6.8847,-6.788,-6.8482,-6.9474,-6.8968,-6.9386,-7.0062,-7.0062,-7.0696,-7.082,-6.8242,-6.7699,-6.7698,-6.7151,-6.6999,-6.6999,-6.6999,-6.6999,-6.6729,-6.5832,-6.4605,-6.3288,-6.1972,-6.0625,-5.9608,-5.9159,-5.9099,-5.9099,-5.9099,-5.9099,-5.9099,-5.9099,-5.9099,-5.9099,-5.9099,-5.9099,-5.9099,-5.9099,-5.8231,-5.7723,-5.7723,-5.7723,-5.7723,-5.7723,-5.7513,-5.7423,-5.7423,-5.7184,-5.7094,-5.7094,-5.7094,-5.7094,-5.2409,-5.2407,-5.3138,-5.5984,0.0,0.0,-6.2808,-6.4399,-6.5425,-6.5425,0.0,-6.1558,0.0,0.0,0.0,0.0,0.0,0.0,0.0,0.0,0.0,0.0,0.0,0.0,0.0,0.0,0.0,0.0,0.0,0.0,0.0,0.0,0.0,0.0,0.0,0.0,-6.6519,-6.6552,-6.6659,-6.6986,-6.7018,-6.5313,-6.2178,-6.3904,-6.4097,-6.3166,-6.3737,-6.4395,-6.5084,-6.5742,-6.64,-6.6999,-6.6999,-6.6999,-6.706,-6.6999,-6.6999,-6.6999,-6.6999,-6.6999,-6.7243,-6.8444,-6.8825,-6.9089,-7.0262,-7.0599,-7.0599,-7.0599,-6.9751,-6.8825,-6.8825,-6.9289,-6.9301,-6.7425,-6.6999,-6.6999,-6.6999,-6.6999,-6.6999,-6.6999,-6.5922,-6.4605,-6.3318,-6.2002,-6.0655,-5.9308,-5.9099,-5.9099,-5.9099,-5.9099,-5.9099,-5.9099,-5.9099,-5.9099,-5.9099,-5.9099,-5.9099,-5.9099,-5.9099,-5.9099,-5.9099,-5.9099,-5.9099,-5.9099,-5.8471,-5.8141,-5.8141,-5.7453,-5.7124,-5.7124,-5.7124,-5.7124,-5.2409,-5.35,0.0,-5.7641,0.0,0.0,0.0,-6.5525,0.0,0.0,0.0,0.0,0.0,0.0,0.0,0.0,0.0,0.0,0.0,0.0,0.0,0.0,0.0,0.0,0.0,0.0,0.0,0.0,0.0,0.0,0.0,0.0,0.0,0.0,0.0,0.0,-6.7235,-6.7811,-6.7692,-6.7018,-6.8355,-6.763,-6.5133,-6.5643,-6.525,-6.4239,-6.4911,-6.5095,-6.5114,-6.6251,-6.6819,-6.6999,-6.6999,-6.785,-6.8939,-6.8027,-6.8574,-6.955,-6.8208,-6.9123,-7.0769,-6.925,-7.0292,-7.1998,-7.1439,-7.1569,-7.1775,-7.1425,-7.1314,-7.0933,-6.9232,-6.892,-6.8748,-6.7304,-6.6999,-6.6999,-6.6999,-6.6999,-6.6999,-6.6999,-6.5922,-6.4605,-6.3318,-6.2002,-6.0655,-5.9308,-5.9099,-5.9099,-5.9099,-5.9099,-5.9099,-5.9099,-5.9099,-5.9099,-5.9099,-5.9099,-5.9099,-5.9099,-5.9099,-5.9099,-5.9099,-5.9099,-5.9099,-5.9099,-5.8919,-5.88,-5.88,-5.859,-5.8501,-5.8501,-5.8501,-5.8501,-5.3665,-5.5256,0.0,-5.8568,-6.0556,-6.2742,-6.4929,0.0,0.0,0.0,0.0,0.0,0.0,0.0,0.0,0.0,0.0,0.0,0.0,0.0,0.0,0.0,0.0,0.0,0.0,0.0,0.0,0.0,0.0,0.0,0.0,0.0,0.0,0.0,0.0,0.0,-6.8042,-6.8473,-6.8522,-6.8111,-6.928,-6.9107,-6.7751,-6.726,-6.6217,-6.4764,-6.5719,-6.5894,-6.5503,-6.7065,-6.788,-6.8122,-6.7604,-6.8607,-7.0213,-6.9428,-6.9672,-7.0398,-6.9667,-7.0524,-7.1648,-7.057,-7.1496,-7.2919,-7.2124,-7.2163,-7.2262,-7.1441,-7.1418,-7.1374,-6.9922,-6.9174,-6.8503,-6.7274,-6.6999,-6.6999,-6.6999,-6.6999,-6.6999,-6.6999,-6.634,-6.5383,-6.4066,-6.3199,-6.2032,-6.0176,-5.9458,-5.9099,-5.9099,-5.9099,-5.9099,-5.9099,-5.9099,-5.9099,-5.9099,-5.9099,-5.9099,-5.9099,-5.9099,-5.9099,-5.9099,-5.9099,-5.9099,-5.9099,-5.9099,-5.9099,-5.9099,-5.9099,-5.9099,-5.9099,-5.9099,-5.9099,-5.5582,0.0,0.0,-5.9198,-6.0854,0.0,-6.4962,0.0,0.0,0.0,0.0,0.0,0.0,0.0,0.0,0.0,0.0,0.0,0.0,0.0,0.0,0.0,0.0,0.0,0.0,0.0,0.0,0.0,0.0,0.0,0.0,0.0,0.0,0.0,0.0,0.0,-6.8771,-6.8771,-6.9136,0.0,-6.9798,-6.9798,-6.9751,-6.8732,-6.7105,-6.5163,-6.6405,-6.6705,-6.6462,-6.817,-6.9287,-6.9753,-6.8666,-6.9427,-7.1069,-7.1069,-7.0699,-7.0379,-7.1331,-7.1344,-7.1029,-7.2058,-7.2379,-7.2432,-7.2538,-7.2485,-7.2165,-7.1044,-7.0655,-7.0599,-7.0487,-6.9521,-6.8384,-6.7396,-6.7091,-6.6999,-6.6999,-6.6999,-6.6999,-6.6999,-6.6999,-6.658,-6.5263,-6.5024,-6.4126,-6.1493,-5.9967,-5.9099,-5.9099,-5.9099,-5.9099,-5.9099,-5.9099,-5.9099,-5.9099,-5.9099,-5.9099,-5.9099,-5.9099,-5.9099,-5.9099,-5.9099,-5.9099,-5.9099,-5.9099,-5.9099,-5.9099,-5.9099,-5.9099,-5.9099,-5.9099,-5.9099,0.0,-5.8469,0.0,0.0,-6.3107,-6.4829,-6.5293,0.0,0.0,0.0,0.0,0.0,0.0,0.0,0.0,0.0,0.0,0.0,0.0,0.0,0.0,0.0,0.0,0.0,0.0,0.0,0.0,0.0,0.0,0.0,0.0,0.0,0.0,0.0,0.0,-6.8076,-6.9533,-6.9566,-6.9633,0.0,-6.9798,-6.9798,-6.9798,-6.9526,-6.8977,-6.8228,-6.8134,-6.8429,-6.8901,-6.9398,-6.969,-6.9874,-7.0127,-7.1125,-7.228,-7.228,-7.2788,-7.3244,-7.2059,-7.2166,-7.2745,-7.252,-7.2379,-7.2591,-7.3492,-7.3149,-7.2325,-7.2111,-7.1319,-7.0375,-6.9406,-6.8266,-6.7548,-6.8266,-6.7729,-6.6999,-6.6999,-6.6999,-6.6999,-6.6999,-6.6999,-6.658,-6.5263,-6.5024,-6.4126,-6.1493,-5.9967,-5.9099,-5.9099,-5.9099,-5.9099,-5.9099,-5.9099,-5.9099,-5.9099,-5.9099,-5.9099,-5.9099,-5.9099,-5.9099,-5.9099,-5.9099,-5.9099,-5.9099,-5.9099,-5.9099,-5.9099,-5.9099,-5.9099,-5.9099,-5.9099,-5.9099,0.0,0.0,0.0,-6.3471,0.0,0.0,0.0,0.0,0.0,0.0,0.0,0.0,0.0,0.0,0.0,0.0,0.0,0.0,0.0,0.0,0.0,0.0,0.0,0.0,0.0,0.0,0.0,0.0,0.0,0.0,0.0,0.0,0.0,0.0,-6.7777,-6.8506,-6.9268,-6.9599,-6.9798,-6.9798,-6.9798,-6.9798,-6.9798,-6.9614,-6.9597,-6.9704,-7.0214,-7.0486,-7.0687,-7.1705,-7.228,-7.2538,-7.2332,-7.2985,-7.4019,-7.4019,-7.3996,-7.3879,-7.3523,-7.3575,-7.3724,-7.3384,-7.3285,-7.3285,-7.3337,-7.2887,-7.2272,-7.1701,-7.1484,-7.1319,-7.0711,-7.0092,-6.9579,-6.9636,-6.8296,-6.7152,-6.7729,-6.7427,-6.6999,-6.6999,-6.6999,-6.6759,-6.6071,-6.5443,-6.4336,-6.2361,-6.0924,-5.9847,-5.9189,-5.9099,-5.9099,-5.9099,-5.9099,-5.9099,-5.9099,-5.9099,-5.9099,-5.9099,-5.9099,-5.9099,-5.9099,-5.9099,-5.9099,-5.9099,-5.9099,-5.9099,-5.9099,-5.9099,-5.9099,-5.9099,-5.9099,-5.9099,0.0,0.0,-6.3338,-6.4995,-6.5425,0.0,0.0,0.0,0.0,0.0,0.0,0.0,0.0,0.0,0.0,0.0,0.0,0.0,0.0,0.0,0.0,0.0,0.0,0.0,0.0,0.0,0.0,0.0,0.0,0.0,0.0,0.0,-6.6452,-6.6672,-6.7877,-6.8639,-6.8871,-6.95,-6.9798,-6.9798,-6.9798,-6.9798,-6.9831,-6.9844,-7.0192,-7.0791,-7.2046,-7.252,-7.2628,-7.4144,-7.5025,-7.5303,-7.4384,-7.4459,-7.5164,-7.5417,-7.4659,-7.3714,-7.4724,-7.4719,-7.4221,-7.4221,-7.407,-7.3731,-7.294,-7.2538,-7.2219,-7.1429,-7.1788,-7.2379,-7.2379,-7.2111,-7.1593,-7.0767,-6.8738,-6.7274,-6.8266,-6.7729,-6.6999,-6.6999,-6.6999,-6.6999,-6.6999,-6.5892,-6.4575,-6.3258,-6.1972,-6.0625,-5.9279,-5.9099,-5.9099,-5.9099,-5.9099,-5.9099,-5.9099,-5.9099,-5.9099,-5.9099,-5.9099,-5.9099,-5.9099,-5.9099,-5.9099,-5.9099,-5.9099,-5.9099,-5.9099,-5.9099,-5.9099,-5.9099,-5.9099,-5.9099,0.0,0.0,-6.5856,0.0,0.0,0.0,0.0,0.0,0.0,0.0,0.0,0.0,0.0,0.0,0.0,0.0,0.0,0.0,0.0,0.0,0.0,0.0,0.0,0.0,0.0,0.0,0.0,0.0,0.0,0.0,0.0,-6.5492,-6.6154,-6.74,-6.7632,-6.8374,-6.9633,-6.9732,-6.9798,-6.9798,-6.9798,-6.9798,-6.9864,-7.1738,-7.2647,-7.2696,-7.2944,-7.4031,-7.5668,-7.5461,-7.5044,-7.4623,-7.5071,-7.461,-7.3847,-7.4924,-7.4794,-7.41,-7.4303,-7.4288,-7.4221,-7.4221,-7.3492,-7.2835,-7.3679,-7.3233,-7.2591,-7.3492,-7.3096,-7.2379,-7.2379,-7.0846,-6.9521,-7.0375,-6.8738,-6.706,-6.7213,-6.7091,-6.6999,-6.6999,-6.6999,-6.6999,-6.6999,-6.5892,-6.4575,-6.3258,-6.1972,-6.0625,-5.9279,-5.9099,-5.9099,-5.9099,-5.9099,-5.9099,-5.9099,-5.9099,-5.9099,-5.9099,-5.9099,-5.9099,-5.9099,-5.9099,-5.9099,-5.9099,-5.9099,-5.9099,-5.9099,-5.9099,-5.9099,-5.9099,-5.9099,-5.9099,-5.8369,-6.2875,-6.6353,0.0,0.0,0.0,0.0,0.0,0.0,0.0,0.0,0.0,0.0,0.0,0.0,0.0,0.0,0.0,0.0,0.0,0.0,0.0,0.0,0.0,0.0,0.0,0.0,0.0,0.0,0.0,-6.5392,-6.5823,-6.632,-6.6982,-6.7811,-6.8539,-6.9169,-6.9997,-7.0626,-7.1024,-7.1455,-7.1653,-7.1686,-7.268,-7.3111,-7.321,-7.4833,-7.6059,-7.6934,-7.7094,-7.6768,-7.6091,-7.6473,-7.5718,-7.4524,-7.511,-7.4851,-7.4221,-7.4221,-7.4221,-7.4221,-7.4221,-7.3833,-7.3492,-7.407,-7.3833,-7.3492,-7.407,-7.3833,-7.3285,-7.2571,-7.1593,-7.0623,-6.9808,-6.8797,-6.7819,-6.7152,-6.6999,-6.6999,-6.6999,-6.6999,-6.6999,-6.6999,-6.652,-6.5443,-6.3378,-6.26,-6.1463,-5.9368,-5.9099,-5.9099,-5.9099,-5.9099,-5.9099,-5.9099,-5.9099,-5.9099,-5.9099,-5.9099,-5.9099,-5.9099,-5.9099,-5.9099,-5.9099,-5.9099,-5.9099,-5.9099,-5.9099,-5.9099,-5.9099,-5.9099,-5.9099,0.0,0.0,0.0,0.0,0.0,0.0,0.0,0.0,0.0,0.0,0.0,0.0,0.0,0.0,0.0,0.0,0.0,0.0,0.0,0.0,0.0,0.0,0.0,0.0,0.0,0.0,0.0,0.0,0.0,0.0,-6.5425,-6.6121,-6.6618,-6.6784,-6.8042,-6.8771,-6.897,-7.0262,-7.1355,-7.2283,-7.2846,-7.321,-7.3376,-7.3575,-7.3773,-7.4038,-7.6026,-7.7185,-7.7715,-7.808,-7.7815,-7.7119,-7.6954,-7.6092,-7.505,-7.505,-7.4686,-7.4221,-7.4221,-7.4221,-7.4221,-7.4221,-7.4221,-7.4221,-7.4221,-7.4221,-7.4221,-7.4221,-7.4221,-7.3986,-7.3096,-7.2591,-7.195,-7.0118,-6.9232,-6.8444,-6.7274,-6.6999,-6.6999,-6.6999,-6.6999,-6.6999,-6.6999,-6.6999,-6.6221,-6.3917,-6.3288,-6.2241,-5.9907,-5.9308,-5.9099,-5.9099,-5.9099,-5.9099,-5.9099,-5.9099,-5.9099,-5.9099,-5.9099,-5.9099,-5.9099,-5.9099,-5.9099,-5.9099,-5.9099,-5.9099,-5.9099,-5.9099,-5.9099,-5.9099,-5.9099,-5.9099,0.0,0.0,0.0,0.0,0.0,0.0,0.0,0.0,0.0,0.0,0.0,0.0,0.0,0.0,0.0,0.0,0.0,0.0,0.0,0.0,0.0,0.0,0.0,0.0,0.0,0.0,0.0,0.0,0.0,0.0,-6.5425,-6.6121,-6.685,-6.7499,-6.8307,-6.9036,-6.9732,-7.0494,-7.162,-7.3045,-7.3078,-7.3475,-7.4188,-7.4833,-7.5529,-7.6125,-7.5595,-7.6556,-7.8411,-7.7749,-7.702,-7.6291,-7.5662,-7.4951,-7.4288,-7.4288,-7.4255,-7.4221,-7.4221,-7.4221,-7.4221,-7.4221,-7.4221,-7.4221,-7.4221,-7.4221,-7.4221,-7.4221,-7.4221,-7.4171,-7.412,-7.3285,-7.2379,-7.2272,-7.0456,-6.8444,-6.7274,-6.6999,-6.6999,-6.6999,-6.6999,-6.6999,-6.6999,-6.6999,-6.652,-6.5144,-6.3857,-6.257,-6.1194,-5.9907,-5.9099,-5.9099,-5.9099,-5.9099,-5.9099,-5.9099,-5.9099,-5.9099,-5.9099,-5.9099,-5.9099,-5.9099,-5.9099,-5.9099,-5.9099,-5.9099,-5.9099,-5.9099,-5.9099,-5.9099,-5.9099,-5.9099,0.0,0.0,0.0,0.0,0.0,0.0,0.0,0.0,0.0,0.0,0.0,0.0,0.0,0.0,0.0,0.0,0.0,0.0,0.0,0.0,0.0,0.0,0.0,0.0,0.0,0.0,0.0,0.0,0.0,0.0,-6.6738,-6.6618,-6.7049,-6.8274,-6.8539,-6.95,-7.1189,-7.1951,-7.3045,-7.4502,-7.543,-7.5993,-7.6258,-7.6026,-7.6589,-7.7682,-7.6457,-7.692,-7.8444,-7.7715,-7.6987,-7.6225,-7.5529,-7.4884,-7.4221,-7.4221,-7.4221,-7.4221,-7.4221,-7.4221,-7.4221,-7.4221,-7.4221,-7.4221,-7.4221,-7.4221,-7.4221,-7.4221,-7.4221,-7.3986,-7.3233,-7.2729,-7.2004,-7.0456,-6.8855,-6.7548,-6.7091,-6.6999,-6.6999,-6.6999,-6.6999,-6.6999,-6.6999,-6.6999,-6.6251,-6.4096,-6.3378,-6.2301,-6.0116,-5.9398,-5.9099,-5.9099,-5.9099,-5.9099,-5.9099,-5.9099,-5.9099,-5.9099,-5.9099,-5.9099,-5.9099,-5.9099,-5.9099,-5.9099,-5.9099,-5.9099,-5.9099,-5.9099,-5.9099,-5.9099,-5.9099,-5.9099,0.0,0.0,0.0,0.0,0.0,0.0,0.0,0.0,0.0,0.0,0.0,0.0,0.0,0.0,0.0,0.0,0.0,0.0,0.0,0.0,0.0,0.0,0.0,0.0,0.0,0.0,0.0,0.0,0.0,0.0,-6.7533,-6.738,-6.791,-6.9368,-6.9434,-7.0494,-7.2713,-7.321,-7.4303,-7.6026,-7.6954,-7.755,-7.7749,-7.702,-7.7351,-7.8444,-7.7219,-7.7252,-7.808,-7.7351,-7.6622,-7.5894,-7.5198,-7.4652,-7.4221,-7.4221,-7.4221,-7.4221,-7.4221,-7.4221,-7.4221,-7.4221,-7.4221,-7.4221,-7.4221,-7.4221,-7.4221,-7.4221,-7.4221,-7.4019,-7.3201,-7.2992,-7.2485,-7.0456,-6.9406,-6.8562,-6.7789,-6.7274,-6.6999,-6.6999,-6.6999,-6.6999,-6.6999,-6.6999,-6.64,-6.4665,-6.3647,-6.245,-6.0655,-5.9668,-5.9099,-5.9099,-5.9099,-5.9099,-5.9099,-5.9099,-5.9099,-5.9099,-5.9099,-5.9099,-5.9099,-5.9099,-5.9099,-5.9099,-5.9099,-5.9099,-5.9099,-5.9099,-5.9099,-5.9099,-5.9099,-5.9099,0.0,0.0,0.0,0.0,0.0,0.0,0.0,0.0,0.0,0.0,0.0,0.0,0.0,0.0,0.0,0.0,0.0,0.0,0.0,0.0,0.0,0.0,0.0,0.0,0.0,0.0,0.0,0.0,0.0,-6.7632,-6.7665,-6.8407,-6.9434,-7.0891,-7.0958,-7.1985,-7.4188,-7.4255,-7.5297,-7.7417,-7.745,-7.7815,-7.8477,-7.7749,-7.7815,-7.8444,-7.7715,-7.7384,-7.7285,-7.6589,-7.5894,-7.5249,-7.452,-7.4221,-7.4221,-7.4221,-7.4221,-7.4221,-7.4221,-7.4221,-7.4221,-7.4221,-7.4221,-7.4221,-7.4221,-7.4221,-7.4221,-7.4221,-7.4221,-7.4221,-7.4221,-7.4171,-7.3833,-7.2676,-7.2325,-7.1647,-6.929,-6.7819,-6.6999,-6.6999,-6.6999,-6.6999,-6.6999,-6.6999,-6.6969,-6.6939,-6.4725,-6.3079,-6.3019,-6.0715,-5.9099,-5.9099,-5.9099,-5.9099,-5.9099,-5.9099,-5.9099,-5.9099,-5.9099,-5.9099,-5.9099,-5.9099,-5.9099,-5.9099,-5.9099,-5.9099,-5.9099,-5.9099,-5.9099,-5.9099,-5.9099,-5.9099,-5.2409,0.0,0.0,0.0,0.0,0.0,0.0,0.0,0.0,0.0,0.0,0.0,0.0,0.0,0.0,0.0,0.0,0.0,0.0,0.0,0.0,0.0,0.0,0.0,0.0,0.0,0.0,0.0,-6.8804,-6.8871,-6.9931,-7.0693,-7.1289,-7.1686,-7.2216,-7.3045,-7.4221,-7.5198,-7.6291,-7.7417,-7.7947,-7.8312,-7.8477,-7.7749,-7.7517,-7.7715,-7.7517,-7.6821,-7.5894,-7.6192,-7.5894,-7.5249,-7.452,-7.4221,-7.4221,-7.4221,-7.4221,-7.4221,-7.4221,-7.4221,-7.4221,-7.4221,-7.4221,-7.4221,-7.4221,-7.4221,-7.4221,-7.4221,-7.4221,-7.4221,-7.4221,-7.3544,-7.2835,-7.2485,-7.1099,-6.9605,-6.8942,-6.7819,-6.6999,-6.6999,-6.6999,-6.6999,-6.6999,-6.6999,-6.667,-6.5712,-6.4156,-6.272,-6.1792,-6.0176,-5.9099,-5.9099,-5.9099,-5.9099,-5.9099,-5.9099,-5.9099,-5.9099,-5.9099,-5.9099,-5.9099,-5.9099,-5.9099,-5.9099,-5.9099,-5.9099,-5.9099,-5.9099,-5.9099,-5.9099,-5.9099,-5.9099,0.0,0.0,0.0,0.0,0.0,0.0,0.0,-5.7309,0.0,0.0,0.0,0.0,0.0,0.0,0.0,0.0,0.0,0.0,0.0,0.0,0.0,0.0,0.0,0.0,0.0,0.0,0.0,0.0,-6.9666,-7.0129,-7.1289,-7.1786,-7.2283,-7.2879,-7.331,-7.4204,-7.5496,-7.6357,-7.7152,-7.7881,-7.8312,-7.8511,-7.8511,-7.808,-7.7881,-7.7881,-7.7881,-7.7053,-7.5728,-7.6159,-7.5728,-7.4818,-7.4387,-7.4221,-7.4221,-7.4221,-7.4221,-7.4221,-7.4221,-7.4221,-7.4221,-7.4221,-7.4221,-7.4221,-7.4221,-7.4221,-7.4221,-7.4221,-7.4221,-7.4221,-7.4221,-7.3337,-7.2379,-7.2379,-7.0933,-6.9406,-6.8883,-6.8266,-6.7608,-6.7091,-6.6999,-6.6999,-6.6999,-6.6999,-6.6729,-6.5951,-6.4725,-6.3617,-6.2839,-6.1583,-6.0565,-5.9997,-5.9937,-5.9727,-5.9159,-5.9099,-5.9099,-5.9099,-5.9099,-5.9099,-5.9099,-5.9099,-5.9099,-5.9099,-5.9099,-5.9099,-5.9099,-5.9099,-5.9099,-5.9099,-5.9099,-5.9099,0.0,0.0,0.0,0.0,0.0,0.0,-5.4825,-5.6945,-5.9098,0.0,0.0,0.0,0.0,0.0,0.0,0.0,0.0,0.0,0.0,0.0,0.0,0.0,0.0,0.0,0.0,0.0,-6.9831,-6.9898,-7.0693,-7.1455,-7.2216,-7.2316,-7.2978,-7.4288,-7.4436,-7.5463,-7.7384,-7.7484,-7.7881,-7.8511,-7.8511,-7.8477,-7.8411,-7.8477,-7.8378,-7.8179,-7.8345,-7.7517,-7.6092,-7.6159,-7.5397,-7.4221,-7.4221,-7.4221,-7.4221,-7.4221,-7.4221,-7.4221,-7.4221,-7.4221,-7.4221,-7.4221,-7.4221,-7.4221,-7.4221,-7.4221,-7.4221,-7.4221,-7.4221,-7.4221,-7.4221,-7.3337,-7.2379,-7.2379,-7.1374,-7.0092,-6.9,-6.8649,-6.8266,-6.7213,-6.6999,-6.6999,-6.6999,-6.6999,-6.6999,-6.6999,-6.5862,-6.5024,-6.5024,-6.3887,-6.257,-6.1253,-6.1104,-6.0565,-5.9219,-5.9099,-5.9099,-5.9099,-5.9099,-5.9099,-5.9099,-5.9099,-5.9099,-5.9099,-5.9099,-5.9099,-5.9099,-5.9099,-5.9099,-5.9099,-5.9099,-5.9099,0.0,0.0,0.0,0.0,0.0,0.0,-5.2904,-5.4692,-5.6382,0.0,0.0,0.0,0.0,0.0,0.0,0.0,0.0,0.0,0.0,0.0,0.0,0.0,0.0,0.0,0.0,0.0,-7.003,-7.0626,-7.1918,-7.2978,-7.3707,-7.4303,-7.4767,-7.5065,-7.6192,-7.6987,-7.7417,-7.8014,-7.8378,-7.8511,-7.8511,-7.8212,-7.7649,-7.8246,-7.7583,-7.596,-7.7119,-7.6457,-7.4635,-7.5231,-7.4966,-7.4221,-7.4221,-7.4221,-7.4221,-7.4221,-7.4221,-7.4221,-7.4221,-7.4221,-7.4221,-7.4221,-7.4221,-7.4221,-7.4221,-7.4221,-7.4221,-7.4221,-7.4221,-7.4221,-7.4221,-7.3337,-7.2379,-7.2379,-7.0767,-6.9058,-6.8825,-6.8058,-6.7274,-6.706,-6.6999,-6.6999,-6.6999,-6.6999,-6.6999,-6.6999,-6.5862,-6.5024,-6.5024,-6.3887,-6.257,-6.1253,-6.1104,-6.0565,-5.9219,-5.9099,-5.9099,-5.9099,-5.9099,-5.9099,-5.9099,-5.9099,-5.9099,-5.9099,-5.9099,-5.9099,-5.9099,-5.9099,-5.9099,-5.9099,-5.9099,-5.9099,0.0,0.0,0.0,-5.2409,0.0,0.0,0.0,-5.4063,-5.5582,0.0,0.0,0.0,0.0,0.0,0.0,0.0,0.0,0.0,0.0,0.0,0.0,0.0,0.0,0.0,0.0,0.0,-7.0792,-7.1918,-7.268,-7.3409,-7.4188,-7.4867,-7.543,-7.5794,-7.6854,-7.7583,-7.798,-7.8345,-7.8511,-7.8511,-7.8511,-7.8345,-7.798,-7.8345,-7.7914,-7.692,-7.7252,-7.6589,-7.5231,-7.5264,-7.4884,-7.4221,-7.4221,-7.4221,-7.4221,-7.4221,-7.4221,-7.4221,-7.4221,-7.4221,-7.4221,-7.4221,-7.4221,-7.4221,-7.4221,-7.4221,-7.4221,-7.4221,-7.4487,-7.4785,-7.4785,-7.4157,-7.3534,-7.3534,-7.1642,-6.9872,-6.9872,-6.885,-6.7986,-6.7986,-6.7986,-6.7777,-6.7119,-6.6999,-6.6999,-6.6999,-6.643,-6.6131,-6.646,-6.5622,-6.4784,-6.4126,-6.2869,-6.1702,-6.0685,-5.9668,-5.9099,-5.9099,-5.9099,-5.9099,-5.9099,-5.9099,-5.9099,-5.9099,-5.9099,-5.9099,-5.9099,-5.9099,-5.9099,-5.9099,-5.9099,-5.9099,0.0,0.0,0.0,0.0,0.0,-5.2804,0.0,0.0,0.0,-5.5383,0.0,0.0,0.0,0.0,0.0,0.0,0.0,0.0,0.0,0.0,0.0,0.0,0.0,0.0,0.0,0.0,-7.1653,-7.3011,-7.3243,-7.3641,-7.4387,-7.5065,-7.5794,-7.649,-7.7252,-7.7914,-7.8511,-7.8511,-7.8511,-7.8511,-7.8511,-7.8444,-7.8312,-7.8444,-7.8378,-7.808,-7.7616,-7.692,-7.6059,-7.5496,-7.4884,-7.4221,-7.4221,-7.4221,-7.4221,-7.4221,-7.4221,-7.4221,-7.4221,-7.4221,-7.4221,-7.4221,-7.4321,-7.442,-7.442,-7.4469,-7.4568,-7.4568,-7.4999,-7.5463,-7.5463,-7.4882,-7.4241,-7.4241,-7.2338,-7.0495,-7.0495,-6.9695,-6.9004,-6.9004,-6.9004,-6.8645,-6.7567,-6.7388,-6.7388,-6.7388,-6.7478,-6.7747,-6.8286,-6.7897,-6.7478,-6.7208,-6.4814,-6.2929,-6.2151,-6.0266,-5.9099,-5.9099,-5.9099,-5.9099,-5.9099,-5.9099,-5.9099,-5.9099,-5.9099,-5.9099,-5.9099,-5.9099,-5.9099,-5.9099,-5.9099,-5.9099,0.0,0.0,0.0,0.0,-5.4262,0.0,0.0,0.0,-5.4589,-5.4589,0.0,0.0,0.0,0.0,0.0,0.0,0.0,0.0,0.0,0.0,0.0,0.0,0.0,0.0,0.0,0.0,0.0,-7.3045,-7.3707,-7.442,-7.5132,-7.5827,-7.6523,-7.7252,-7.8014,-7.8444,-7.8511,-7.8511,-7.8511,-7.8511,-7.8511,-7.8179,-7.755,-7.8212,-7.7815,-7.6589,-7.7152,-7.6655,-7.5397,-7.5297,-7.4884,-7.4221,-7.4221,-7.4221,-7.4221,-7.4221,-7.4221,-7.4221,-7.4221,-7.4221,-7.4221,-7.4221,-7.4652,-7.5216,-7.5216,-7.5595,-7.6059,-7.6059,-7.6125,-7.6192,-7.6192,-7.4561,-7.2915,-7.2915,-7.1009,-6.9226,-6.9226,-6.913,-6.9004,-6.9004,-6.9004,-6.8944,-6.8794,-6.8764,-6.8764,-6.8764,-6.9243,-6.9632,-6.9752,-6.9692,-6.9183,-6.7986,-6.5473,-6.3408,-6.2211,-6.0266,-5.9099,-5.9099,-5.9099,-5.9099,-5.9099,-5.9099,-5.9099,-5.9099,-5.9099,-5.9099,-5.9099,-5.9099,-5.9099,-5.9099,-5.9099,-5.9099,0.0,0.0,0.0,0.0,0.0,0.0,0.0,0.0,-5.449,0.0,0.0,0.0,0.0,0.0,0.0,0.0,0.0,0.0,0.0,0.0,0.0,0.0,0.0,0.0,0.0,0.0,0.0,0.0,0.0,-7.4553,-7.5282,-7.5927,-7.6655,-7.7384,-7.8146,-7.8511,-7.8511,-7.8511,-7.8511,-7.8511,-7.8511,-7.8345,-7.808,-7.8378,-7.8179,-7.7583,-7.745,-7.6821,-7.586,-7.543,-7.4884,-7.4221,-7.4221,-7.4221,-7.4221,-7.4221,-7.4221,-7.4221,-7.4221,-7.452,-7.4867,-7.5264,-7.5628,-7.5894,-7.5894,-7.6092,-7.6324,-7.6324,-7.6622,-7.6954,-7.6954,-7.6527,-7.5858,-7.5153,-7.356,-7.2121,-7.1349,-7.0926,-7.0679,-7.0679,-7.1009,-7.1278,-7.1278,-7.032,-6.9572,-6.9572,-7.0081,-7.0649,-7.1038,-7.0739,-7.059,-7.0829,-6.8465,-6.6221,-6.4515,-6.254,-6.0745,-5.9189,-5.9099,-5.9099,-5.9099,-5.9099,-5.9099,-5.9099,-5.9099,-5.9099,-5.9099,-5.9099,-5.9099,-5.9099,-5.9099,-5.9099,-5.7508,0.0,0.0,0.0,0.0,0.0,0.0,0.0,0.0,0.0,0.0,0.0,0.0,0.0,0.0,0.0,0.0,0.0,0.0,0.0,0.0,0.0,0.0,0.0,0.0,0.0,0.0,0.0,-7.2382,0.0,-7.5463,-7.6026,-7.6755,-7.7682,-7.8246,-7.8511,-7.8511,-7.8511,-7.8511,-7.8511,-7.8511,-7.8511,-7.8511,-7.8511,-7.8511,-7.8477,-7.7947,-7.7185,-7.6258,-7.5761,-7.4999,-7.4255,-7.4453,-7.452,-7.452,-7.4288,-7.4354,-7.452,-7.452,-7.4933,-7.5628,-7.6159,-7.6457,-7.6622,-7.6622,-7.6755,-7.692,-7.692,-7.7318,-7.7715,-7.7715,-7.7813,-7.7741,-7.679,-7.5745,-7.4634,-7.3324,-7.2901,-7.2576,-7.2242,-7.2565,-7.2924,-7.2924,-7.1727,-7.0799,-7.0799,-7.1308,-7.1906,-7.2385,-7.2026,-7.2086,-7.3073,-7.0829,-6.8465,-6.646,-6.4455,-6.2211,-5.9548,-5.9189,-5.9099,-5.9099,-5.9099,-5.9099,-5.9099,-5.9099,-5.9099,-5.9099,-5.9099,-5.9099,-5.9099,-5.9099,-5.9099,0.0,0.0,0.0,-6.0887,0.0,0.0,0.0,0.0,-5.6614,0.0,0.0,0.0,0.0,0.0,0.0,0.0,0.0,0.0,0.0,0.0,0.0,0.0,0.0,0.0,0.0,0.0,0.0,-7.0626,-7.0958,-7.2548,-7.6092,-7.6291,-7.6987,-7.8444,-7.8511,-7.8511,-7.8511,-7.8511,-7.8511,-7.8511,-7.8511,-7.8511,-7.8511,-7.8511,-7.8511,-7.8511,-7.8477,-7.7649,-7.6324,-7.6291,-7.543,-7.4288,-7.5017,-7.5231,-7.5216,-7.4487,-7.4635,-7.5231,-7.5231,-7.5695,-7.6291,-7.6291,-7.6788,-7.7384,-7.7384,-7.7881,-7.8444,-7.8444,-7.8477,-7.8477,-7.8477,-7.7544,-7.6677,-7.6621,-7.6187,-7.5418,-7.4034,-7.4338,-7.4381,-7.313,-7.2894,-7.2924,-7.2924,-7.2864,-7.2834,-7.2834,-7.3373,-7.3821,-7.3821,-7.3821,-7.3821,-7.3851,-7.1517,-6.9123,-6.7119,-6.5114,-6.2839,-6.0206,-5.9458,-5.9099,-5.9099,-5.9099,-5.9099,-5.9099,-5.9099,-5.9099,-5.9099,-5.9099,-5.9099,-5.9099,-5.9099,-5.9099,0.0,0.0,-6.1815,-6.1815,0.0,0.0,0.0,0.0,0.0,0.0,0.0,0.0,0.0,0.0,0.0,0.0,0.0,0.0,0.0,0.0,0.0,0.0,0.0,0.0,0.0,0.0,0.0,-6.6419,-6.791,-7.0328,0.0,-7.4204,-7.5529,-7.8444,-7.8511,-7.8511,-7.8511,-7.8511,-7.8511,-7.8511,-7.8511,-7.8511,-7.8511,-7.8511,-7.8511,-7.8511,-7.8511,-7.7947,-7.7053,-7.7053,-7.6457,-7.5595,-7.586,-7.596,-7.5927,-7.5695,-7.5761,-7.6026,-7.6523,-7.6854,-7.7119,-7.7616,-7.7947,-7.8146,-7.8146,-7.8312,-7.8511,-7.8511,-7.8511,-7.8511,-7.8511,-7.8518,-7.8186,-7.6438,-7.624,-7.5835,-7.3655,-7.3774,-7.4124,-7.3619,-7.3911,-7.421,-7.421,-7.421,-7.4061,-7.3642,-7.4121,-7.454,-7.454,-7.454,-7.454,-7.454,-7.3762,-7.1697,-6.7956,-6.4216,-6.1702,-6.0835,-6.0116,-5.9757,-5.9757,-5.9338,-5.9099,-5.9099,-5.9099,-5.9099,-5.9099,-5.9099,-5.9099,-5.9099,-5.9099,-5.9099,-6.8142,-6.6187,0.0,-6.41,-6.2278,0.0,-6.0755,0.0,0.0,0.0,0.0,0.0,0.0,0.0,0.0,0.0,0.0,0.0,0.0,0.0,0.0,0.0,0.0,0.0,0.0,0.0,-6.2245,-6.4233,-6.5922,-6.8341,0.0,0.0,-7.4668,-7.7285,-7.8113,-7.8511,-7.8511,-7.8511,-7.8511,-7.8511,-7.8511,-7.8511,-7.8511,-7.8511,-7.8511,-7.8544,-7.8809,-7.8477,-7.7815,-7.7815,-7.7384,-7.6689,-7.6689,-7.6689,-7.6689,-7.6424,-7.649,-7.6821,-7.755,-7.7815,-7.7881,-7.8378,-7.8511,-7.8511,-7.8511,-7.8511,-7.8511,-7.8511,-7.8511,-7.8577,-7.8842,-7.8914,-7.8523,-7.711,-7.6969,-7.6556,-7.442,-7.4469,-7.4818,-7.4376,-7.4569,-7.4869,-7.4869,-7.4869,-7.4719,-7.43,-7.4599,-7.4869,-7.4869,-7.4869,-7.4869,-7.4869,-7.4869,-7.3103,-6.8704,-6.4126,-6.1463,-6.1463,-6.0835,-6.0446,-6.0446,-5.9817,-5.9578,-5.9817,-5.9338,-5.9219,-5.9458,-5.9219,-5.9099,-5.9099,-5.9099,-5.9099]},{"header":{"parameterUnit":"m.s-1","parameterCategory":1,"la1":30.6,"la2":29.2853,"lo1":-89.7004,"lo2":-87.6739,"dx":0.0162,"dy":0.0183,"nx":112,"ny":82,"refTime":"2023-01-24T18:00:00:Z","depth":0,"parameterNumber":3,"parameterNumberName":"V-component_of_WINDS"},"data":[0.0,0.0,0.0,0.0,0.0,0.0,0.0,0.0,0.0,0.0,0.0,0.0,0.0,0.0,0.0,0.0,0.0,0.0,0.0,0.0,0.0,0.0,0.0,0.0,0.0,0.0,0.0,0.0,0.0,0.0,0.0,0.0,0.0,0.0,0.0,0.0,0.0,0.0,0.0,0.0,0.0,0.0,0.0,0.0,0.0,0.0,0.0,0.0,0.0,0.0,0.0,0.0,0.0,0.0,0.0,0.0,0.0,0.0,0.0,0.0,0.0,0.0,0.0,0.0,0.0,0.0,0.0,0.0,0.0,0.0,0.0,0.0,0.0,0.0,0.0,0.0,0.0,0.0,0.0,0.0,0.0,0.0,0.0,0.0,0.0,0.0,0.0,0.0,0.0,0.0,0.0,4.4615,4.4615,4.4304,4.3634,4.2988,4.2328,4.1605,0.0,0.0,0.0,0.0,0.0,0.0,0.0,0.0,0.0,0.0,0.0,0.0,0.0,0.0,0.0,0.0,0.0,0.0,0.0,0.0,0.0,0.0,0.0,0.0,0.0,0.0,0.0,0.0,0.0,0.0,0.0,0.0,0.0,0.0,0.0,0.0,0.0,0.0,0.0,0.0,0.0,0.0,0.0,0.0,0.0,0.0,0.0,0.0,0.0,0.0,0.0,0.0,0.0,0.0,0.0,0.0,0.0,0.0,0.0,0.0,0.0,0.0,0.0,0.0,0.0,0.0,0.0,0.0,0.0,0.0,0.0,0.0,0.0,0.0,0.0,0.0,0.0,0.0,0.0,0.0,0.0,0.0,0.0,0.0,0.0,0.0,0.0,0.0,0.0,0.0,0.0,0.0,0.0,0.0,0.0,0.0,0.0,0.0,0.0,0.0,0.0,0.0,0.0,0.0,4.4615,4.4615,4.4615,4.4276,4.3498,4.3328,4.2685,4.1357,0.0,0.0,0.0,0.0,0.0,0.0,0.0,0.0,0.0,0.0,0.0,0.0,0.0,0.0,0.0,0.0,0.0,0.0,0.0,0.0,0.0,0.0,0.0,0.0,0.0,0.0,0.0,0.0,0.0,0.0,0.0,0.0,0.0,0.0,0.0,0.0,0.0,0.0,0.0,0.0,0.0,0.0,0.0,0.0,0.0,0.0,0.0,0.0,0.0,0.0,0.0,0.0,0.0,0.0,0.0,0.0,0.0,0.0,0.0,0.0,0.0,0.0,0.0,0.0,0.0,0.0,0.0,0.0,0.0,0.0,0.0,0.0,0.0,0.0,0.0,0.0,0.0,0.0,0.0,0.0,0.0,0.0,0.0,0.0,0.0,0.0,0.0,0.0,0.0,0.0,0.0,0.0,0.0,0.0,0.0,0.0,0.0,0.0,0.0,0.0,0.0,0.0,0.0,4.3588,4.4179,4.4559,4.4615,4.4479,4.4079,4.3673,4.2963,4.1847,4.1154,0.0,0.0,0.0,0.0,0.0,0.0,0.0,0.0,0.0,0.0,0.0,0.0,0.0,0.0,0.0,0.0,0.0,0.0,0.0,0.0,0.0,0.0,0.0,0.0,0.0,0.0,0.0,0.0,0.0,0.0,0.0,0.0,0.0,0.0,0.0,0.0,0.0,0.0,0.0,0.0,0.0,0.0,0.0,0.0,0.0,0.0,0.0,0.0,0.0,0.0,0.0,0.0,0.0,0.0,0.0,0.0,0.0,0.0,0.0,0.0,0.0,0.0,0.0,0.0,0.0,0.0,0.0,0.0,0.0,0.0,0.0,0.0,0.0,0.0,0.0,0.0,0.0,0.0,0.0,0.0,0.0,0.0,0.0,0.0,0.0,0.0,0.0,0.0,0.0,0.0,0.0,0.0,0.0,0.0,0.0,0.0,0.0,0.0,0.0,0.0,0.0,0.0,4.3136,4.3287,4.4035,4.4236,4.4355,4.4355,4.3928,4.3369,4.2591,4.188,0.0,0.0,0.0,0.0,0.0,0.0,0.0,0.0,0.0,0.0,0.0,0.0,0.0,0.0,0.0,0.0,0.0,0.0,0.0,0.0,0.0,0.0,0.0,0.0,0.0,0.0,0.0,0.0,0.0,0.0,0.0,0.0,0.0,0.0,0.0,0.0,0.0,0.0,0.0,0.0,0.0,0.0,0.0,0.0,0.0,0.0,0.0,0.0,0.0,0.0,0.0,0.0,0.0,0.0,0.0,0.0,0.0,0.0,0.0,0.0,0.0,0.0,0.0,0.0,0.0,0.0,0.0,0.0,0.0,0.0,0.0,0.0,0.0,0.0,0.0,0.0,0.0,0.0,0.0,0.0,0.0,0.0,0.0,0.0,0.0,0.0,0.0,0.0,0.0,0.0,0.0,0.0,0.0,0.0,0.0,0.0,0.0,0.0,0.0,0.0,0.0,0.0,4.2013,4.1885,4.2583,4.3196,4.3588,4.3588,4.414,4.4147,4.3375,4.2625,0.0,0.0,0.0,0.0,0.0,0.0,0.0,0.0,0.0,0.0,0.0,0.0,0.0,0.0,0.0,0.0,0.0,0.0,0.0,0.0,0.0,0.0,0.0,0.0,0.0,0.0,0.0,0.0,0.0,0.0,0.0,0.0,0.0,0.0,0.0,0.0,0.0,0.0,0.0,0.0,0.0,0.0,0.0,0.0,0.0,0.0,0.0,0.0,0.0,0.0,0.0,0.0,0.0,0.0,0.0,0.0,0.0,0.0,0.0,0.0,0.0,0.0,0.0,0.0,0.0,0.0,0.0,0.0,0.0,0.0,0.0,0.0,0.0,0.0,0.0,0.0,0.0,0.0,0.0,0.0,0.0,0.0,0.0,0.0,0.0,0.0,0.0,0.0,0.0,0.0,0.0,0.0,0.0,0.0,0.0,0.0,0.0,0.0,0.0,0.0,0.0,0.0,4.1656,4.1755,0.0,4.2738,4.2892,4.2892,4.3529,4.358,4.2817,0.0,0.0,0.0,0.0,0.0,0.0,0.0,0.0,0.0,0.0,0.0,0.0,0.0,0.0,0.0,0.0,0.0,0.0,0.0,0.0,0.0,0.0,0.0,0.0,0.0,0.0,0.0,0.0,0.0,0.0,0.0,0.0,0.0,0.0,0.0,0.0,0.0,0.0,0.0,0.0,0.0,0.0,0.0,0.0,0.0,0.0,0.0,0.0,0.0,0.0,0.0,0.0,0.0,0.0,0.0,0.0,0.0,0.0,0.0,0.0,0.0,0.0,0.0,0.0,0.0,0.0,0.0,0.0,0.0,0.0,0.0,0.0,0.0,0.0,0.0,0.0,0.0,0.0,0.0,0.0,0.0,0.0,0.0,0.0,0.0,0.0,0.0,0.0,0.0,0.0,0.0,0.0,0.0,0.0,0.0,0.0,0.0,0.0,0.0,0.0,0.0,0.0,4.15,4.1536,4.1612,0.0,4.2046,4.2173,4.2173,4.28,4.2969,4.2446,0.0,0.0,0.0,0.0,0.0,0.0,0.0,0.0,0.0,0.0,0.0,0.0,0.0,0.0,0.0,0.0,0.0,0.0,0.0,0.0,0.0,0.0,0.0,0.0,0.0,0.0,0.0,0.0,0.0,0.0,0.0,0.0,0.0,0.0,0.0,0.0,0.0,0.0,0.0,0.0,0.0,0.0,0.0,0.0,0.0,0.0,0.0,0.0,0.0,0.0,0.0,0.0,0.0,0.0,0.0,0.0,0.0,0.0,0.0,0.0,0.0,0.0,0.0,0.0,0.0,0.0,0.0,0.0,0.0,0.0,0.0,0.0,0.0,0.0,0.0,0.0,0.0,0.0,0.0,0.0,0.0,0.0,0.0,0.0,0.0,0.0,0.0,0.0,0.0,0.0,0.0,0.0,0.0,0.0,0.0,0.0,0.0,0.0,0.0,0.0,0.0,0.0,4.1709,4.1617,4.134,4.0597,4.1091,4.1492,4.1492,4.2109,4.2489,0.0,0.0,0.0,0.0,0.0,0.0,0.0,0.0,0.0,0.0,0.0,0.0,0.0,0.0,0.0,0.0,0.0,0.0,0.0,0.0,0.0,0.0,0.0,0.0,0.0,0.0,0.0,0.0,0.0,0.0,0.0,0.0,0.0,0.0,0.0,0.0,0.0,0.0,0.0,0.0,0.0,0.0,0.0,0.0,0.0,0.0,0.0,0.0,0.0,0.0,0.0,0.0,0.0,0.0,0.0,0.0,0.0,0.0,0.0,0.0,0.0,0.0,0.0,0.0,0.0,0.0,0.0,0.0,0.0,0.0,0.0,0.0,0.0,0.0,0.0,0.0,0.0,0.0,0.0,0.0,0.0,0.0,0.0,0.0,0.0,0.0,0.0,0.0,0.0,0.0,0.0,0.0,0.0,0.0,0.0,0.0,0.0,0.0,0.0,0.0,0.0,0.0,0.0,4.2289,4.2325,4.2232,4.2017,4.1732,4.1562,4.1562,4.1708,4.1788,4.1788,0.0,0.0,0.0,0.0,0.0,0.0,0.0,0.0,0.0,0.0,0.0,0.0,0.0,0.0,0.0,0.0,0.0,0.0,0.0,0.0,0.0,0.0,0.0,0.0,0.0,0.0,0.0,0.0,0.0,0.0,0.0,0.0,0.0,0.0,0.0,0.0,0.0,0.0,0.0,0.0,0.0,0.0,0.0,0.0,0.0,0.0,0.0,0.0,0.0,0.0,0.0,0.0,0.0,0.0,0.0,0.0,0.0,0.0,0.0,0.0,0.0,0.0,0.0,0.0,0.0,0.0,0.0,0.0,0.0,0.0,0.0,0.0,0.0,0.0,0.0,0.0,0.0,0.0,0.0,0.0,0.0,0.0,0.0,0.0,0.0,0.0,0.0,0.0,0.0,0.0,0.0,0.0,0.0,0.0,0.0,0.0,0.0,0.0,0.0,0.0,0.0,0.0,4.2775,4.2744,4.2622,4.2346,4.1949,4.1648,4.1444,4.1403,4.1304,4.1091,0.0,0.0,0.0,0.0,0.0,0.0,0.0,0.0,0.0,0.0,0.0,0.0,0.0,0.0,0.0,0.0,0.0,0.0,0.0,0.0,0.0,0.0,0.0,0.0,0.0,0.0,0.0,0.0,0.0,0.0,0.0,0.0,0.0,0.0,0.0,0.0,0.0,0.0,0.0,0.0,0.0,0.0,0.0,0.0,0.0,0.0,0.0,0.0,0.0,0.0,0.0,0.0,0.0,0.0,0.0,0.0,0.0,0.0,0.0,0.0,0.0,0.0,0.0,0.0,0.0,0.0,0.0,0.0,0.0,0.0,0.0,0.0,0.0,0.0,0.0,0.0,0.0,0.0,0.0,0.0,0.0,0.0,0.0,0.0,0.0,0.0,0.0,0.0,0.0,0.0,0.0,0.0,0.0,0.0,0.0,0.0,0.0,0.0,0.0,0.0,0.0,0.0,4.3168,4.3077,4.2834,4.2159,4.2038,4.1808,4.1382,4.1296,4.1061,4.0593,0.0,0.0,0.0,0.0,0.0,0.0,0.0,0.0,0.0,0.0,0.0,0.0,0.0,0.0,0.0,0.0,0.0,0.0,0.0,0.0,0.0,0.0,0.0,0.0,0.0,0.0,0.0,0.0,0.0,0.0,0.0,0.0,0.0,0.0,0.0,0.0,0.0,0.0,0.0,0.0,0.0,0.0,0.0,0.0,0.0,0.0,0.0,0.0,0.0,0.0,0.0,0.0,0.0,0.0,0.0,0.0,0.0,0.0,0.0,0.0,4.2877,0.0,0.0,0.0,0.0,0.0,0.0,0.0,0.0,0.0,0.0,0.0,0.0,0.0,0.0,0.0,0.0,0.0,0.0,0.0,0.0,0.0,0.0,0.0,0.0,0.0,0.0,0.0,0.0,0.0,0.0,0.0,0.0,0.0,0.0,0.0,0.0,0.0,0.0,0.0,0.0,0.0,4.3775,4.3775,4.3714,4.3563,4.3077,4.2713,4.2636,4.2082,4.1541,4.0938,0.0,0.0,0.0,0.0,0.0,0.0,0.0,0.0,0.0,0.0,0.0,0.0,0.0,0.0,0.0,0.0,0.0,0.0,0.0,0.0,0.0,0.0,0.0,0.0,0.0,0.0,0.0,0.0,0.0,0.0,0.0,0.0,0.0,0.0,0.0,0.0,0.0,0.0,0.0,0.0,0.0,0.0,0.0,0.0,0.0,0.0,0.0,0.0,0.0,0.0,0.0,0.0,0.0,0.0,0.0,0.0,0.0,0.0,0.0,0.0,0.0,4.2771,0.0,0.0,0.0,0.0,0.0,0.0,0.0,0.0,0.0,0.0,0.0,0.0,0.0,0.0,0.0,0.0,0.0,0.0,0.0,0.0,0.0,0.0,0.0,0.0,0.0,0.0,0.0,0.0,0.0,0.0,0.0,0.0,0.0,0.0,0.0,0.0,0.0,0.0,0.0,0.0,4.3645,4.3645,4.3645,4.3645,4.3344,4.3051,4.2833,4.2433,4.1987,4.1462,4.1438,0.0,0.0,0.0,0.0,0.0,0.0,0.0,0.0,0.0,0.0,0.0,0.0,0.0,0.0,0.0,0.0,0.0,0.0,0.0,0.0,0.0,0.0,0.0,0.0,0.0,0.0,0.0,0.0,0.0,0.0,0.0,0.0,0.0,0.0,0.0,0.0,0.0,0.0,0.0,0.0,0.0,0.0,0.0,0.0,0.0,0.0,0.0,0.0,0.0,0.0,0.0,0.0,0.0,4.331,4.3467,4.3964,4.5428,4.5297,4.3912,4.3912,4.2865,4.1176,0.0,0.0,0.0,0.0,0.0,0.0,0.0,0.0,0.0,0.0,0.0,0.0,0.0,0.0,0.0,0.0,0.0,0.0,0.0,0.0,0.0,0.0,0.0,0.0,0.0,4.3517,4.3444,0.0,0.0,0.0,0.0,0.0,0.0,0.0,0.0,0.0,0.0,0.0,0.0,4.329,4.329,4.329,4.329,4.329,4.3159,4.2745,4.2724,4.253,4.2017,4.1994,4.1721,0.0,0.0,0.0,0.0,0.0,0.0,0.0,0.0,0.0,0.0,0.0,0.0,0.0,0.0,0.0,0.0,0.0,0.0,0.0,0.0,0.0,0.0,0.0,0.0,0.0,0.0,0.0,0.0,0.0,0.0,0.0,0.0,4.2213,4.1219,0.0,0.0,0.0,0.0,0.0,0.0,0.0,0.0,0.0,0.0,0.0,0.0,0.0,0.0,4.3023,4.446,4.5218,4.5242,4.6708,4.744,4.7519,4.7728,4.7728,4.7492,4.7492,0.0,4.3939,4.4785,0.0,0.0,0.0,0.0,0.0,0.0,0.0,0.0,0.0,0.0,0.0,0.0,0.0,0.0,0.0,0.0,0.0,0.0,0.0,0.0,0.0,0.0,4.3778,4.2728,4.2519,4.2463,0.0,4.3364,4.3678,4.2024,0.0,0.0,0.0,0.0,0.0,0.0,0.0,0.0,4.329,4.329,4.329,4.329,4.329,4.326,4.321,4.321,4.295,4.2368,4.2338,4.2144,4.1633,4.1603,0.0,0.0,0.0,0.0,0.0,0.0,0.0,0.0,0.0,0.0,0.0,0.0,0.0,0.0,0.0,0.0,0.0,0.0,0.0,0.0,0.0,0.0,0.0,0.0,0.0,0.0,0.0,0.0,0.0,4.2291,4.2605,4.1455,4.2317,4.2579,0.0,0.0,0.0,0.0,0.0,0.0,0.0,0.0,0.0,4.4931,4.4957,4.5271,4.5924,4.6369,4.6761,4.7074,4.7492,4.7885,4.8172,4.8172,4.8172,4.8172,4.8172,4.7538,4.6506,4.5855,4.5049,4.4205,0.0,0.0,0.0,0.0,0.0,4.4376,4.534,4.6487,0.0,0.0,0.0,0.0,0.0,0.0,0.0,0.0,0.0,0.0,0.0,0.0,0.0,4.2846,4.259,4.243,4.1889,4.2765,4.3371,0.0,4.284,4.3429,4.3092,0.0,0.0,0.0,0.0,0.0,4.4355,4.4107,4.3858,4.3858,4.3499,4.329,4.329,4.329,4.317,4.291,4.291,4.265,4.2136,4.2106,4.1814,0.0,0.0,0.0,0.0,0.0,0.0,0.0,0.0,0.0,0.0,0.0,0.0,0.0,0.0,0.0,0.0,0.0,0.0,0.0,0.0,0.0,0.0,0.0,0.0,0.0,0.0,0.0,0.0,4.2552,4.3049,4.1899,4.2762,4.3127,0.0,0.0,0.0,0.0,0.0,0.0,4.5401,4.5846,4.6473,4.731,4.7362,4.7702,4.8407,4.7989,4.7911,4.8172,4.7754,4.778,4.8172,4.8172,4.8172,4.8172,4.8172,4.8172,4.8094,4.6813,4.5506,4.4356,4.4356,4.4356,4.4357,4.4783,4.4911,4.5099,4.641,4.7839,4.8981,4.8942,0.0,5.0823,4.9854,0.0,0.0,0.0,0.0,4.6256,4.6004,0.0,4.4262,4.3107,4.2646,4.2186,4.1448,4.2274,4.2888,0.0,4.2676,4.3342,4.3123,0.0,0.0,0.0,0.0,4.369,4.4448,4.4329,4.4075,4.3826,4.3548,4.3404,4.3404,4.3256,4.3288,4.3529,4.3379,4.312,4.2641,4.265,4.2351,4.1692,0.0,0.0,0.0,0.0,0.0,0.0,0.0,0.0,0.0,0.0,0.0,0.0,0.0,0.0,0.0,0.0,0.0,0.0,0.0,0.0,0.0,0.0,0.0,0.0,0.0,0.0,0.0,0.0,0.0,4.3075,4.3938,0.0,0.0,0.0,0.0,4.4511,4.6182,4.7148,4.7148,4.8747,4.9662,4.9714,4.9714,4.9505,4.9035,4.9008,4.8721,4.8172,4.8146,4.8146,4.8172,4.8172,4.8172,4.8172,4.8172,4.8172,4.8172,4.8094,4.8015,4.7911,4.7911,4.7911,4.778,4.6765,4.6402,4.6428,4.6507,4.6926,4.7581,4.8734,4.9409,4.9786,4.9732,4.8867,0.0,0.0,4.7553,4.6979,4.5878,4.5171,4.441,4.3258,4.2159,4.1348,4.1324,4.2088,4.2382,0.0,4.1521,4.2116,4.1278,0.0,4.234,4.243,4.243,4.2385,4.243,4.327,4.3459,4.2507,4.3212,4.3776,4.3776,4.3182,4.324,4.4176,4.3648,4.329,4.326,4.323,4.297,4.2351,4.2351,0.0,0.0,0.0,0.0,0.0,0.0,0.0,0.0,0.0,0.0,0.0,0.0,0.0,0.0,0.0,0.0,0.0,0.0,0.0,0.0,0.0,0.0,0.0,0.0,0.0,0.0,0.0,0.0,4.3154,4.4696,0.0,4.4826,4.5036,4.5558,4.6342,4.7675,4.8616,4.8956,4.9557,4.9897,4.9897,4.9897,4.9793,4.961,4.961,4.9505,4.927,4.893,4.8773,4.8747,4.8355,4.8172,4.8172,4.8172,4.8172,4.8172,4.8172,4.8172,4.8172,4.8172,4.8172,4.812,4.7728,4.7571,4.7571,4.7571,4.7963,4.8643,4.9819,5.0506,5.0703,4.9652,4.9044,4.8621,4.825,4.799,4.778,4.7388,4.629,4.5009,4.3833,4.2422,4.1324,4.1324,4.1597,4.1667,4.1086,4.1898,4.252,4.2215,4.1881,4.2072,4.3407,4.3036,4.2849,4.35,4.3528,4.3319,4.3003,4.2862,4.283,4.283,4.3228,4.3329,4.3041,4.3396,4.3399,4.2989,4.2989,4.2983,4.3,4.3,4.288,0.0,0.0,0.0,0.0,0.0,0.0,0.0,0.0,0.0,0.0,0.0,0.0,0.0,0.0,0.0,0.0,0.0,0.0,0.0,0.0,0.0,0.0,0.0,0.0,0.0,0.0,4.5036,4.4278,4.5532,4.6316,4.5924,4.6264,4.6891,4.7858,4.8826,4.961,5.0159,5.0368,5.0472,5.0472,5.0472,5.0368,5.0211,5.0185,5.008,4.9897,4.9531,4.9348,4.9348,4.893,4.8747,4.8747,4.8747,4.8747,4.8747,4.8747,4.8747,4.8721,4.8329,4.8172,4.8198,4.8407,4.8486,4.8512,4.8695,4.9165,4.9793,5.0551,5.1152,5.1387,5.0263,4.9923,4.9845,4.9453,4.9218,4.9061,4.9061,4.7362,4.5428,4.4643,4.2866,4.1324,4.1324,4.1324,4.1324,4.1324,4.1819,4.2284,4.2284,4.172,4.1746,4.3081,4.2722,4.2528,4.3177,4.32,4.2998,4.2649,4.2546,4.2454,4.2454,4.2879,4.2992,4.2649,4.306,4.3098,4.2653,4.2625,4.2765,4.3135,4.2938,4.2979,4.3186,0.0,0.0,0.0,0.0,0.0,0.0,0.0,0.0,0.0,0.0,0.0,0.0,0.0,0.0,0.0,0.0,0.0,0.0,0.0,0.0,0.0,0.0,0.0,4.4774,4.5767,4.6473,4.6473,4.6499,4.697,4.8068,4.7179,4.7257,4.8982,4.9584,5.0159,5.0786,5.1309,5.1596,5.1596,5.1596,5.1335,5.0812,5.0812,5.0524,4.9949,4.9923,4.9923,4.9923,4.9897,4.9897,4.9897,4.9897,4.9897,4.9897,4.9897,4.9897,4.9793,4.8669,4.8224,4.8303,4.8904,4.9113,4.9191,4.9714,5.0289,5.0786,5.0786,5.1152,5.1596,5.1596,5.1596,5.1596,5.1596,5.123,5.0812,5.0812,4.825,4.5663,4.5663,4.3441,4.1324,4.1324,4.1324,4.1324,4.1324,4.1324,4.1324,4.1324,4.1324,4.1324,4.1324,4.1324,0.0,4.1324,4.2137,4.2382,4.1398,4.2186,4.2744,4.2744,4.2181,4.2207,4.3184,4.2642,4.2306,4.2279,4.2279,4.2442,4.2794,4.227,4.2312,4.2963,0.0,0.0,0.0,0.0,0.0,0.0,0.0,0.0,0.0,0.0,0.0,0.0,0.0,0.0,0.0,0.0,0.0,0.0,0.0,0.0,0.0,0.0,4.5715,4.4853,4.5741,4.6473,4.6473,4.7205,4.7832,4.8146,4.7911,4.825,4.9557,4.9819,5.0315,5.1309,5.1518,5.1596,5.1596,5.1596,5.1518,5.1361,5.1361,5.1282,5.1126,5.0734,5.0551,5.0524,5.008,4.9897,4.9897,4.9897,4.9897,4.9897,4.9897,4.9897,4.9871,4.9531,4.9427,4.9453,4.961,4.9662,4.9688,4.9845,5.0289,5.0786,5.0786,5.1152,5.1596,5.1596,5.1596,5.1596,5.1596,5.1492,5.1361,5.1361,4.8826,4.6238,4.6238,4.3729,4.1324,4.1324,4.1324,4.1324,4.1324,4.1324,4.1324,4.1324,4.1324,4.1324,4.1324,4.1324,0.0,4.1324,4.1547,4.1597,4.1324,4.1547,4.172,4.172,4.2221,4.2307,0.0,4.2337,4.2418,4.1934,4.1934,4.2095,4.2427,4.2273,4.2317,0.0,0.0,0.0,0.0,0.0,0.0,0.0,0.0,0.0,0.0,0.0,0.0,0.0,0.0,0.0,0.0,0.0,0.0,0.0,0.0,0.0,0.0,4.6447,4.697,4.6264,4.6761,4.7205,4.7205,4.778,4.8172,4.8172,4.8172,4.8669,4.9793,4.9897,5.0394,5.1544,5.1596,5.1596,5.1596,5.1596,5.1596,5.1596,5.1596,5.1596,5.1596,5.1282,5.1126,5.1126,5.076,5.0603,0.0,5.0603,5.0603,5.0603,5.0603,5.0603,0.0,0.0,0.0,0.0,0.0,5.042,5.0603,5.0603,5.0838,5.1126,5.1126,5.1335,5.1596,5.1596,5.1596,5.1596,5.1596,5.1596,5.1596,5.1596,4.9035,4.6473,4.6473,4.3833,4.1324,4.1324,4.1324,4.1324,4.1324,0.0,0.0,4.1324,4.1324,4.1324,4.1324,4.1324,4.1324,4.1324,4.1324,4.1324,4.1324,4.1324,4.1324,4.1324,4.1819,0.0,0.0,0.0,4.2003,4.1608,4.1726,0.0,0.0,0.0,4.1892,0.0,0.0,0.0,0.0,4.2465,4.3123,0.0,0.0,0.0,0.0,0.0,0.0,0.0,0.0,0.0,0.0,0.0,0.0,0.0,0.0,0.0,0.0,4.744,4.8172,4.8172,4.8172,4.8172,4.8172,4.8172,4.8172,4.8172,4.8172,4.8669,4.9793,4.9897,5.0394,5.1544,0.0,0.0,0.0,0.0,5.1596,5.1596,5.1596,5.1596,5.1596,5.1675,5.1701,5.1701,5.1779,5.1805,5.1805,5.1805,5.1805,5.1805,5.1727,5.1648,5.1492,5.0472,5.008,5.0159,5.062,5.1142,0.0,0.0,0.0,0.0,5.1596,5.1596,5.1596,5.1596,5.1596,5.1534,5.1596,5.1596,5.1534,5.1596,4.9191,4.6761,4.6761,4.4121,4.1611,4.1561,4.1404,4.1274,4.1274,4.1274,4.1324,4.1402,4.135,4.1324,4.1324,4.1324,4.1324,4.1324,4.1324,4.1324,4.1324,0.0,0.0,4.1324,4.1324,4.1324,4.1324,4.1324,4.1324,4.1324,4.1608,4.201,4.2647,4.1572,4.1302,4.1815,4.1302,4.1031,4.1031,4.1928,4.2786,0.0,0.0,0.0,0.0,0.0,0.0,0.0,0.0,0.0,0.0,0.0,0.0,0.0,0.0,0.0,4.6447,4.744,4.8172,4.8172,4.8172,4.8172,4.8172,4.8172,4.8172,4.8172,4.8172,4.8669,4.9793,4.9897,5.0394,5.1544,5.1596,0.0,5.1596,5.1596,5.1596,5.1596,5.1596,5.1596,5.1596,0.0,0.0,5.2328,5.2825,5.3034,5.3034,5.3034,5.3034,5.3008,5.2537,5.204,5.157,5.1361,5.1256,5.1282,5.1101,5.1079,5.1183,5.1183,5.1183,5.1246,5.1534,5.1596,5.1596,5.1596,5.1408,0.0,5.1534,5.1408,5.1246,5.1534,5.0106,4.859,4.859,4.5924,4.3336,4.3125,4.2137,4.1274,4.1047,4.1147,4.1455,4.1925,4.1611,4.1324,4.1324,4.1324,4.1324,4.1324,4.1324,4.1324,4.1324,4.1324,4.1324,4.1324,4.1324,4.1324,4.1324,4.1324,4.1324,4.1324,4.1343,4.1465,4.1597,4.136,4.1308,4.1439,4.1308,4.1255,4.1229,4.1947,4.2385,0.0,0.0,0.0,0.0,0.0,0.0,0.0,0.0,0.0,0.0,0.0,4.5349,0.0,0.0,4.6656,4.7231,4.7806,4.8172,4.8172,4.8172,4.8172,4.8172,4.8172,4.8172,4.8172,4.8172,4.8538,4.9427,4.974,5.0263,5.1152,5.1439,5.1596,5.1596,5.1596,5.1727,5.204,5.204,5.2197,5.2485,5.2798,5.2955,5.2955,5.3049,5.3023,5.2955,5.2763,5.2644,5.2485,5.1981,5.1505,5.1094,5.1094,5.122,5.1309,5.0994,5.0867,5.0867,5.0867,5.0867,5.0867,5.1031,5.1094,5.1094,5.1094,5.0968,5.0867,5.1031,5.1094,5.112,5.1094,4.9975,4.8763,4.8583,4.6233,4.4009,4.3873,4.2865,4.193,4.175,4.1879,4.206,4.2346,4.2164,4.1982,4.2109,4.216,4.216,4.216,4.216,4.216,4.216,4.216,4.216,4.216,4.216,4.2056,4.1768,4.1742,4.1611,4.1324,4.1324,4.1324,4.1324,4.1324,4.1324,4.1324,4.1324,4.1324,4.1298,4.1619,4.2085,0.0,0.0,0.0,0.0,0.0,0.0,0.0,0.0,4.5895,4.5895,4.5767,4.5872,4.6813,4.6891,4.71,4.8041,4.8172,4.8198,4.8114,4.8277,4.8355,4.8179,4.8133,4.8114,4.8172,4.8114,4.8427,4.9132,4.9636,5.0211,5.0793,5.1361,5.1596,5.1596,5.1701,5.2014,5.2485,5.2616,5.2903,5.3244,5.3374,5.3427,5.3362,5.3075,5.2881,5.2696,5.2336,5.1946,5.1591,5.1275,5.097,5.0588,5.0525,5.0677,5.0867,5.0614,5.0487,5.0487,5.0487,5.0487,5.055,5.0588,5.0588,5.0588,5.0588,5.0525,5.0525,5.0588,5.0741,5.0867,5.0652,4.9775,4.8816,4.8307,4.6373,4.4535,4.4274,4.3323,4.2525,4.2472,4.2446,4.2551,4.2654,4.268,4.2734,4.2892,4.2866,4.2814,4.2814,4.2814,4.2814,4.2814,4.2814,4.2814,4.2814,4.2866,4.2736,4.2318,4.2343,4.2134,4.1664,4.1638,4.1638,4.1638,4.1533,4.1481,4.1481,4.1376,4.1324,4.1324,4.1324,4.172,0.0,0.0,0.0,4.3833,4.467,4.548,0.0,0.0,4.7096,4.7096,4.7911,4.8643,4.8773,4.8355,4.8041,4.8172,4.8172,4.8114,4.7821,4.8465,4.8804,4.818,4.7895,4.788,4.8172,4.7938,4.8203,4.9317,4.969,5.0245,5.1027,5.1382,5.1596,5.1596,5.2119,5.2433,5.2485,5.3034,5.3192,5.2893,5.3412,5.3472,5.3141,5.3472,5.3579,5.3541,5.2958,5.2285,5.1511,5.1447,5.1139,5.0588,5.0295,5.0193,5.0193,5.0168,5.0168,5.0168,5.0168,5.0168,5.0232,5.0487,5.0588,5.0588,5.0588,5.0423,5.0232,5.0525,5.0423,5.0232,5.0525,5.046,5.0138,4.9102,4.7462,4.579,4.4566,4.3172,4.2076,4.1864,4.197,4.2336,4.2849,4.2979,4.2853,4.2708,4.2394,4.2182,4.2182,4.2182,4.2182,4.2182,4.2182,4.2182,4.2182,4.2446,4.2657,4.2579,4.2788,4.2892,4.284,4.284,4.284,4.284,4.2317,4.2133,4.2133,4.1559,4.1324,4.1324,4.1324,4.1374,4.3049,0.0,0.0,0.0,4.6499,4.6891,4.7885,4.825,4.8355,4.8355,4.846,4.8564,4.8564,4.8238,4.7997,0.0,4.788,4.7703,4.7938,4.7969,4.7947,4.7888,4.7444,4.7444,4.805,4.8399,4.851,4.8402,4.9038,4.9706,5.0393,5.1007,5.1309,5.1309,5.2192,5.2595,5.2427,5.3192,5.3412,5.3057,5.3314,5.3104,5.2638,5.2598,5.2419,5.2086,5.1691,5.1178,5.0677,5.0677,5.0396,4.9976,4.9847,4.9783,4.9783,4.9783,4.9783,4.9783,4.9783,4.9783,4.9847,4.9976,5.004,5.004,5.004,4.9912,4.9847,4.9976,5.004,5.0104,5.004,5.0168,4.9952,4.8708,4.7475,4.6239,4.5062,4.3797,4.2805,4.2696,4.2751,4.2936,4.3165,4.3216,4.3194,4.3073,4.3102,4.3128,4.3128,4.3128,4.3128,4.3128,4.3128,4.3128,4.3128,4.329,4.3216,4.2855,4.2936,4.2941,4.2788,4.2762,4.2814,4.3023,4.2788,4.2657,4.2657,4.2422,4.2317,4.2317,4.2317,4.2317,4.352,0.0,0.0,4.7362,4.7885,4.8146,4.9374,4.9184,4.8707,4.8826,4.8368,4.7938,4.8055,4.7821,4.7645,4.788,4.7501,4.7375,4.7969,4.7828,4.7744,4.7957,4.7895,4.7978,4.8268,4.8524,4.848,4.7931,4.8773,4.949,4.9913,5.068,5.1057,5.0994,5.1988,5.2401,5.2075,5.2902,5.3119,5.2787,5.2787,5.2557,5.2017,5.1692,5.1245,5.0687,5.0538,5.0295,4.9976,4.9976,4.9783,4.959,4.959,4.959,4.959,4.959,4.959,4.959,4.959,4.959,4.959,4.959,4.959,4.959,4.959,4.959,4.9615,4.9766,5.0035,5.019,5.0082,5.0262,4.9987,4.8146,4.7201,4.6399,4.4864,4.3877,4.3295,4.3295,4.3295,4.3295,4.3295,4.3422,4.3523,4.3523,4.3843,4.3954,4.3704,4.3653,4.3653,4.3653,4.3653,4.3653,4.3653,4.3708,4.3585,4.315,4.3204,4.3133,4.2962,4.2936,4.3043,4.3229,4.3179,4.3101,4.3101,4.3049,4.3023,4.3023,4.3023,4.3023,0.0,0.0,4.7911,4.7466,4.8198,4.9035,4.9087,4.8406,4.7847,4.814,4.7703,4.7324,4.7645,4.7442,4.7205,4.7205,4.7205,4.7291,4.7612,4.8329,4.8829,4.8762,4.9799,5.0053,0.0,4.8103,4.7856,4.8328,4.9223,4.9873,5.0092,5.0715,5.0931,5.0588,5.1562,5.1872,5.1511,5.2089,5.2174,5.187,5.187,5.1671,5.1339,5.1023,5.0597,5.0155,5.0129,4.9912,4.959,4.959,4.959,4.959,4.959,4.959,4.959,4.959,4.959,4.959,4.959,4.959,4.959,4.959,4.959,4.959,4.959,4.959,4.9715,5.0243,5.0393,5.0519,5.1096,5.1222,5.0544,4.7807,4.7129,4.6351,4.3671,4.3067,4.3042,4.3042,4.3042,4.3042,4.3042,4.3413,4.3765,4.3765,4.4242,4.4192,4.3168,4.3042,4.3042,4.3042,4.3042,4.3042,4.3042,4.3295,4.3381,4.3381,4.3683,4.3874,4.3848,4.3848,4.3848,4.3848,4.353,4.3407,4.3407,4.3127,4.3023,4.3023,4.3023,4.3023,0.0,0.0,4.749,4.8035,4.8191,4.8106,4.787,4.7774,4.7807,4.8076,4.7074,4.629,4.6733,4.655,4.6305,4.618,4.7002,4.7709,4.7921,4.7831,4.7763,4.794,4.8143,0.0,0.0,0.0,0.0,4.8429,4.8917,4.9424,4.9861,5.0244,5.0359,5.0295,5.1342,5.1518,5.0746,5.1565,5.1575,5.0892,5.0514,5.0273,5.0167,5.0096,4.996,4.9783,4.9783,4.9719,4.959,4.959,4.959,4.959,4.959,4.9816,5.0142,5.0142,5.0393,5.0594,4.9866,4.9841,5.0142,5.0142,5.0393,5.072,5.072,5.072,5.0745,5.0946,5.0996,5.1046,5.1222,5.1272,5.0845,4.9163,4.7933,4.6778,4.5472,4.4317,4.3639,4.3991,4.4066,4.4066,4.4066,4.4217,4.4342,4.4342,4.4493,4.4493,4.4116,4.4066,4.4066,4.4066,4.4066,4.4066,4.4066,4.4123,4.4004,4.3708,4.3765,4.3756,4.3598,4.3572,4.3653,4.3899,4.3804,4.3701,4.3701,4.363,4.3581,4.3581,4.3797,4.3851,0.0,4.7069,4.6917,4.8137,4.7641,4.6883,4.7146,4.7419,4.7761,4.806,4.6721,4.5686,4.6159,4.5494,4.4991,4.5476,4.6424,4.7327,4.8248,4.7954,4.7844,4.8269,4.7957,0.0,0.0,0.0,0.0,4.8572,4.8734,4.9113,4.9698,4.999,5.0065,4.9937,5.0749,5.0887,5.0117,5.0731,5.0731,5.0117,4.9766,4.959,4.959,4.959,4.959,4.959,4.959,4.959,4.9615,4.9816,4.9891,4.9916,5.0117,5.0419,5.072,5.072,5.0971,5.1172,5.0444,5.0419,5.072,5.072,5.0971,5.1272,5.1272,5.1272,5.1322,5.1523,5.1574,5.1624,5.1825,5.1875,5.1548,5.0193,4.8786,4.7456,4.6502,4.5146,4.4192,4.4543,4.4618,4.4618,4.4618,4.4794,4.4995,4.5196,4.5221,4.507,4.4669,4.4618,4.4618,4.4618,4.4618,4.4618,4.4618,4.4618,4.4468,4.4116,4.4091,4.3998,4.3846,4.3821,4.3858,4.3848,4.3959,4.3913,4.3708,4.3844,4.3899,4.3899,4.4064,4.4148,4.6951,4.6617,4.6353,4.7542,4.6481,4.5512,4.667,4.7247,4.7592,4.7825,4.6465,4.5363,0.0,0.0,4.3557,4.5296,4.5648,4.6426,4.8485,4.8736,4.8937,0.0,0.0,0.0,0.0,0.0,0.0,4.8812,0.0,4.9038,4.9565,4.9912,4.9937,4.959,4.9912,4.9912,4.959,4.959,4.959,4.959,4.959,4.959,4.959,4.959,4.9615,4.964,4.964,4.9665,4.9715,5.0243,5.0469,5.0519,5.1071,5.1297,5.1322,5.1322,5.1348,5.1373,5.1373,5.1348,5.1322,5.1322,5.1348,5.1373,5.1373,5.1373,5.1473,5.2,5.2151,5.2277,5.2779,5.2929,5.2528,5.0921,4.964,4.836,4.6803,4.5522,4.4669,4.4694,4.4719,4.4719,4.4719,4.5171,4.5698,4.6225,4.6301,4.5924,4.4844,4.4719,4.4719,4.4719,4.4719,4.4719,4.4719,4.4719,4.4694,4.4669,4.4669,4.4644,4.4618,4.4618,4.4367,4.384,4.4124,4.4041,4.3482,4.3785,4.3921,4.3921,4.3951,4.3951,4.603,4.5883,4.5424,4.4328,4.4422,4.4669,4.4144,4.5025,4.5803,4.545,4.3177,4.2242,0.0,0.0,0.0,4.6245,4.7757,0.0,4.8761,4.841,0.0,4.8912,0.0,4.8309,4.8736,4.8761,0.0,0.0,4.9389,4.9439,4.959,4.9654,4.9654,4.959,4.9654,4.9654,4.959,4.959,4.959,4.959,4.959,4.959,4.959,4.959,4.9816,5.0218,5.0218,5.0444,5.087,5.0996,5.1071,5.1071,5.1222,5.1523,5.19,5.19,5.2151,5.2503,5.2503,5.2226,5.19,5.19,5.2176,5.2503,5.2503,5.2503,5.2528,5.2678,5.2729,5.2754,5.2879,5.2929,5.2829,5.2377,5.0494,4.8761,4.8761,4.6928,4.5397,4.5799,4.5874,4.5874,4.5874,4.5999,4.615,4.6276,4.6301,4.62,4.5924,4.5874,4.5874,4.5874,4.5874,4.5874,4.5874,4.5874,4.5698,4.5296,4.5271,4.507,4.4644,4.4618,4.4568,4.4418,4.4475,4.4457,4.4306,4.4389,4.4446,4.4421,4.4244,4.4178,4.5164,4.4516,4.3884,4.3055,4.3435,4.3655,4.2316,4.3576,4.4573,4.2968,4.0862,0.0,0.0,0.0,0.0,0.0,0.0,0.0,4.9063,4.8862,4.8761,0.0,4.8636,0.0,4.8736,4.8761,4.8912,0.0,4.9238,4.9339,4.959,4.959,4.959,4.959,4.959,4.959,4.959,4.959,4.959,4.959,4.959,4.959,4.9615,4.9841,5.0117,5.0444,0.0,5.0971,5.1297,5.1548,5.1649,5.1674,5.19,5.2201,5.2477,5.2477,5.2653,5.2929,5.2929,5.2729,5.2477,5.2477,5.2678,5.2929,5.2929,5.2929,5.2929,5.2929,5.2929,5.2929,5.2929,5.2929,5.2929,5.2929,5.0971,4.9364,5.0167,4.7983,4.5949,4.625,4.6301,4.6301,4.6301,4.6301,4.6301,4.6301,4.6301,4.6301,4.6301,4.6301,4.6301,4.6301,4.6301,4.6301,4.6301,4.6301,4.6175,4.5874,4.5849,4.5698,4.5372,4.5372,4.5246,4.4995,4.4995,4.4869,4.4618,4.4618,4.4618,4.4618,4.449,4.4453,4.3933,4.2651,4.1998,4.2324,4.2613,4.2422,4.0835,4.2303,4.3203,4.0402,0.0,3.9347,4.3153,4.1851,4.1962,4.7184,0.0,4.7645,4.9132,4.9386,4.9515,4.959,4.9113,4.8786,4.8862,4.8887,4.8887,4.8887,4.8887,4.9088,4.9565,4.959,4.959,4.959,4.959,4.959,4.959,4.959,4.959,4.959,4.9665,4.9715,4.9715,5.0268,5.0569,5.067,0.0,0.0,5.1548,5.2026,5.2226,5.2251,5.2729,5.2929,5.2929,5.2929,5.2929,5.2929,5.2929,5.2929,5.2929,5.2929,5.2929,5.2929,5.2929,5.2929,5.2929,5.2929,5.2929,5.2929,5.2929,5.2929,5.2929,5.2929,5.1348,5.0092,5.1071,4.8786,4.6476,4.6326,4.6301,4.6301,4.6301,4.6301,4.6301,4.6301,4.6301,4.6301,4.6301,4.6301,4.6301,4.6301,4.6301,4.6301,4.6301,4.6301,4.6301,4.6301,4.6301,4.6301,4.6301,4.6301,4.6075,4.5598,4.5598,4.5347,4.4844,4.4844,4.4844,4.4844,4.4769,4.4744,4.1062,4.0405,4.0279,3.9295,4.0189,4.0716,3.8614,3.9605,0.0,0.0,0.0,3.7335,4.3563,4.1742,4.1377,4.7852,0.0,0.0,0.0,0.0,4.9088,0.0,0.0,0.0,0.0,0.0,0.0,0.0,0.0,4.949,4.959,4.959,4.959,4.959,4.959,4.959,4.959,4.959,4.959,4.9615,5.0067,5.0268,5.0293,5.087,5.1373,5.1825,0.0,0.0,5.2653,5.2754,5.2779,5.2804,5.2879,5.2929,5.2929,5.2929,5.2929,5.2929,5.2929,5.2929,5.2929,5.2929,5.2929,5.2929,5.2929,5.2929,5.2929,5.2929,5.2929,5.2929,5.2929,5.2929,5.2929,5.2929,5.1925,5.1046,5.1247,4.9364,4.738,4.6476,4.6301,4.6301,4.6301,4.6301,4.6301,4.6301,4.6301,4.6301,4.6301,4.6301,4.6301,4.6301,4.6301,4.6301,4.6301,4.6301,4.6301,4.6301,4.6301,4.6301,4.6301,4.6301,4.6276,4.6175,4.6175,4.6125,4.6024,4.6024,4.6024,4.5999,4.5547,4.5347,3.9238,3.9325,3.9888,3.8503,3.9808,4.0451,3.7146,0.0,0.0,0.0,3.4155,3.5384,4.1028,3.9814,0.0,0.0,0.0,0.0,0.0,0.0,0.0,0.0,0.0,0.0,0.0,0.0,0.0,0.0,0.0,4.959,4.959,4.959,4.959,4.959,4.959,4.959,4.959,4.959,4.9741,5.0017,5.0293,5.0569,5.0896,5.1448,5.185,5.2126,5.2402,0.0,5.2929,5.2929,5.2929,5.2929,5.2929,5.2929,5.2929,5.2929,5.2929,5.2929,5.2929,5.2929,5.2929,5.2929,5.2929,5.2929,5.2929,5.2929,5.2929,5.2929,5.2929,5.298,5.3256,5.3331,5.3406,5.3708,5.3381,5.2427,5.0419,4.9565,4.8636,4.6677,4.6301,4.6301,4.6301,4.6301,4.6301,4.6301,4.6301,4.6301,4.6301,4.6301,4.6301,4.6301,4.6301,4.6301,4.6301,4.6301,4.6301,4.6301,4.6301,4.6301,4.6301,4.6301,4.6301,4.6301,4.6301,4.6301,4.6301,4.6301,4.6301,4.6301,4.605,4.5924,3.7973,3.8567,3.9517,3.8437,3.971,4.0227,3.629,3.7041,0.0,0.0,3.2669,3.4074,3.8674,3.7806,3.8216,0.0,0.0,0.0,0.0,0.0,0.0,0.0,0.0,0.0,0.0,0.0,0.0,0.0,0.0,0.0,4.959,4.959,4.959,4.959,4.959,4.959,4.959,4.9715,4.9992,5.0419,5.067,5.1021,5.1473,5.2026,5.2277,5.2302,5.2729,0.0,0.0,5.2929,5.2929,5.2929,5.2929,5.2929,5.2929,5.2929,5.2929,5.2929,5.2929,5.3005,5.308,5.308,5.303,5.2955,5.3055,5.308,5.313,5.3256,5.3281,5.3381,5.3783,5.3884,5.4009,5.4461,5.4561,5.3557,4.9916,4.9816,4.9615,4.6853,4.6301,4.6301,4.6301,4.6301,4.6301,4.6301,4.6301,4.6301,4.6301,4.6301,4.6301,4.6301,4.6301,4.6301,4.6301,4.6301,4.6301,4.6301,4.6301,4.6301,4.6301,4.6301,4.6301,4.6301,4.6301,4.6301,4.6301,4.6301,4.6301,4.6301,4.6301,4.6301,3.7001,3.7639,3.837,3.8258,3.8922,3.8948,3.6059,0.0,0.0,3.3285,3.2669,3.4074,3.8674,3.6997,3.6539,0.0,0.0,4.0325,0.0,0.0,0.0,0.0,0.0,0.0,0.0,0.0,0.0,0.0,0.0,0.0,4.959,4.959,4.959,4.959,4.959,4.959,4.959,5.0092,5.0368,5.0419,5.1448,5.1975,5.2051,5.2603,5.2854,5.2854,0.0,0.0,0.0,5.2929,5.2929,5.2929,5.2929,5.2929,5.2929,5.2929,5.2929,5.2929,5.2929,5.3231,5.3632,5.3632,5.3306,5.3005,5.3482,5.3632,5.3733,5.426,5.4411,5.4436,5.4461,5.4486,5.4486,5.4561,5.4561,5.3783,5.0896,5.0343,4.9615,4.6853,4.6301,4.6301,4.6301,4.6301,4.6301,4.6301,4.6301,4.6301,4.6301,4.6301,4.6301,4.6301,4.6301,4.6301,4.6301,4.6301,4.6301,4.6301,4.6301,4.6301,4.6301,4.6301,4.6301,4.6301,4.6301,4.6301,4.6301,4.6301,4.6301,4.6301,4.6301,4.6301,3.6663,3.7488,3.8191,3.8191,3.8874,3.8745,3.6059,0.0,0.0,3.3285,3.2669,3.3656,3.6928,3.5337,3.4853,3.8754,0.0,0.0,0.0,0.0,0.0,0.0,0.0,0.0,0.0,0.0,0.0,0.0,0.0,0.0,4.959,4.959,4.959,4.959,4.959,4.9766,5.0092,5.0318,5.077,5.1448,5.1875,5.2277,5.2603,5.2829,5.2929,5.2929,0.0,0.0,0.0,5.2929,5.2929,5.2929,5.2929,5.2929,5.2929,5.2929,5.313,5.3381,5.3381,5.3758,5.421,5.421,5.4084,5.3959,5.416,5.421,5.426,5.4486,5.4561,5.4637,5.4988,5.5315,5.5541,5.5541,5.5541,5.4712,5.1599,5.0946,5.0017,4.6903,4.6301,4.6301,4.6301,4.6301,4.6301,4.6301,4.6301,4.6301,4.6301,4.6301,4.6301,4.6301,4.6301,4.6301,4.6301,4.6301,4.6301,4.6301,4.6301,4.6301,4.6301,4.6301,4.6301,4.6301,4.6301,4.6301,4.6301,4.6301,4.6301,4.6301,4.6301,4.6301,3.6804,3.7695,3.8212,3.8357,3.8667,3.8357,0.0,0.0,3.5542,3.3203,3.2669,3.3332,3.5333,3.4022,3.3593,0.0,0.0,3.6933,0.0,0.0,0.0,0.0,0.0,0.0,0.0,0.0,0.0,0.0,0.0,0.0,0.0,4.9088,4.9238,4.959,4.959,4.9866,5.0419,5.0594,5.1147,5.2101,5.2277,5.2553,5.2929,5.2929,5.2929,5.2929,0.0,0.0,0.0,5.2929,5.2929,5.2929,5.2929,5.2929,5.2955,5.3105,5.3381,5.3733,5.3909,5.4336,5.4813,5.4813,5.4913,5.5039,5.5039,5.4938,5.4838,5.5013,5.5039,5.5139,5.5541,5.5917,5.6219,5.6219,5.6219,5.5315,5.2,5.1272,5.0293,4.6954,4.6301,4.6301,4.6301,4.6301,4.6301,4.6301,4.6301,4.6301,4.6301,4.6301,4.6301,4.6301,4.6301,4.6301,4.6301,4.6301,4.6301,4.6301,4.6301,4.6301,4.6301,4.6301,4.6301,4.6301,4.6301,4.6301,4.6301,4.6301,4.6301,4.6301,4.6301,4.6301,3.7425,3.8171,3.8295,3.8662,3.8171,3.726,0.0,0.0,3.4383,3.3016,3.2669,3.3048,3.4323,3.3501,3.3105,3.4323,3.5028,0.0,0.0,0.0,0.0,0.0,0.0,0.0,0.0,0.0,0.0,0.0,0.0,0.0,0.0,4.7933,4.8435,4.9565,4.959,4.9866,5.0419,5.0996,5.1548,5.2126,5.2653,5.2929,5.2929,5.2929,5.2929,0.0,0.0,0.0,0.0,5.2929,5.2929,5.2929,5.2929,5.2929,5.298,5.3507,5.3708,5.3783,5.4361,5.4913,5.539,5.539,5.5742,5.6194,5.6194,5.5817,5.5491,5.6043,5.6194,5.6194,5.6194,5.6219,5.6219,5.6219,5.6219,5.5315,5.2,5.1272,5.0293,4.6954,4.6301,4.6301,4.6301,4.6301,4.6301,4.6301,4.6301,4.6301,4.6301,4.6301,4.6301,4.6301,4.6301,4.6301,4.6301,4.6301,4.6301,4.6301,4.6301,4.6301,4.6301,4.6301,4.6301,4.6301,4.6301,4.6301,4.6301,4.6301,4.6301,4.6301,4.6301,4.6301,3.4507,3.5355,3.5873,3.6018,3.6308,3.6225,3.5004,0.0,3.4383,3.3016,3.2669,3.3048,3.4267,3.3501,3.3524,3.5945,3.6518,0.0,0.0,0.0,0.0,0.0,0.0,0.0,0.0,0.0,0.0,0.0,0.0,0.0,0.0,4.7908,4.8083,4.8435,4.9188,4.9866,5.0419,5.1373,5.2126,5.2678,5.2854,5.2929,5.2929,5.2929,0.0,0.0,0.0,0.0,0.0,5.2929,5.2929,5.2955,5.3306,5.3457,5.3532,5.4084,5.4536,5.4888,5.5064,5.5491,5.5942,5.5942,5.6068,5.6219,5.6219,5.6093,5.5993,5.6168,5.6219,5.6219,5.6219,5.6219,5.6219,5.6219,5.6219,5.5315,5.2,5.1272,5.0293,4.6954,4.6301,4.6301,4.6301,4.6301,4.6301,4.6301,4.6301,4.6301,4.6301,4.6301,4.6301,4.6301,4.6301,4.6301,4.6301,4.6301,4.6301,4.6301,4.6301,4.6301,4.6301,4.6301,4.6301,4.6301,4.6301,4.6301,4.6301,4.6301,4.6301,4.6301,4.6301,4.6301,0.0,3.4445,3.4899,3.519,3.5314,0.0,0.0,0.0,3.3762,3.2913,3.2669,3.2955,3.3649,3.3218,3.333,3.5226,3.6502,0.0,0.0,0.0,0.0,0.0,0.0,0.0,0.0,0.0,0.0,0.0,0.0,0.0,0.0,0.0,4.7405,4.7606,4.8711,4.964,5.0419,5.1322,5.2076,5.2628,5.2829,5.2929,5.2929,5.2929,0.0,0.0,0.0,0.0,0.0,5.2929,5.303,5.3256,5.3582,5.3833,5.411,5.4662,5.5089,5.5415,5.5616,5.5917,5.6219,5.6219,5.6219,5.6219,5.6219,5.6219,5.6219,5.6219,5.6219,5.6219,5.6219,5.6219,5.6219,5.6219,5.6219,5.5315,5.2,5.1272,5.0293,4.6954,4.6301,4.6301,4.6301,4.6301,4.6301,4.6301,4.6301,4.6301,4.6301,4.6301,4.6301,4.6301,4.6301,4.6301,4.6301,4.6301,4.6301,4.6301,4.6301,4.6301,4.6301,4.6301,4.6301,4.6301,4.6301,4.6301,4.6301,4.6301,4.6301,4.6301,4.6301,4.6301,0.0,0.0,0.0,0.0,0.0,0.0,0.0,0.0,0.0,3.2669,3.2669,3.2669,3.2669,3.2669,3.2711,3.2835,3.55,0.0,0.0,0.0,0.0,0.0,0.0,0.0,0.0,0.0,0.0,0.0,0.0,0.0,0.0,0.0,4.6506,4.7118,4.8209,4.9289,5.0343,5.0971,5.1548,5.2126,5.2578,5.2854,5.2929,5.2879,0.0,0.0,0.0,0.0,0.0,5.298,5.3256,5.3708,5.3783,5.416,5.4687,5.5239,5.544,5.5516,5.6043,5.6219,5.6219,5.6219,5.6219,5.6219,5.6219,5.6219,5.6219,5.6219,5.6219,5.6219,5.6219,5.6219,5.6219,5.6219,5.6219,5.534,5.2151,5.1423,5.0419,4.7129,4.6451,4.6401,4.6326,4.6301,4.6301,4.6301,4.6301,4.6301,4.6301,4.6301,4.6301,4.6301,4.6301,4.6301,4.6301,4.6301,4.6301,4.6301,4.6301,4.6301,4.6301,4.6301,4.6301,4.6301,4.6301,4.6301,4.6301,4.6301,4.6301,4.6301,4.6301,4.6301,3.2002,0.0,3.2313,3.2851,3.3016,3.3078,0.0,0.0,0.0,0.0,0.0,0.0,0.0,3.2669,3.3124,3.4569,3.6308,3.6867,3.5045,0.0,0.0,0.0,0.0,0.0,0.0,0.0,0.0,0.0,0.0,0.0,0.0,0.0,4.6142,4.7645,4.841,4.9113,4.9791,5.077,5.1548,5.2101,5.18,5.2126,5.2904,5.2503,0.0,0.0,0.0,0.0,5.2955,5.3356,5.3582,5.3783,5.4662,5.5089,5.5265,5.5817,5.6018,5.6043,5.6168,5.6219,5.6219,5.6219,5.6219,5.6219,5.6219,5.6219,5.6219,5.6219,5.6219,5.6219,5.6219,5.6219,5.6219,5.6219,5.6219,5.5641,5.3582,5.2829,5.1674,4.8761,4.7832,4.728,4.6451,4.6301,4.6301,4.6301,4.6301,4.6301,4.6301,4.6301,4.6301,4.6301,4.6301,4.6301,4.6301,4.6301,4.6301,4.6301,4.6301,4.6301,4.6301,4.6301,4.6301,4.6301,4.6301,4.6301,4.6301,4.6301,4.6301,4.6301,4.6301,4.6301,3.1505,3.1671,3.1795,3.2194,3.2483,3.2669,3.2669,0.0,0.0,0.0,0.0,0.0,0.0,0.0,3.3,3.4031,3.5335,3.6204,0.0,0.0,0.0,0.0,0.0,0.0,0.0,0.0,0.0,0.0,0.0,0.0,0.0,0.0,4.5663,4.6918,4.8144,4.9038,4.959,5.0444,5.1021,5.1322,5.1297,5.1599,5.2176,5.2126,0.0,0.0,0.0,0.0,5.3306,5.3582,5.4009,5.4536,5.5139,5.5541,5.5792,5.6093,5.6219,5.6219,5.6219,5.6219,5.6219,5.6219,5.6219,5.6219,5.6219,5.6219,5.6219,5.6219,5.6219,5.6219,5.6219,5.6219,5.6219,5.6219,5.6219,5.5691,5.3758,5.313,5.2026,4.8962,4.8134,4.7581,4.6502,4.6301,4.6301,4.6301,4.6301,4.6301,4.6301,4.6301,4.6301,4.6301,4.6301,4.6301,4.6301,4.6301,4.6301,4.6301,4.6301,4.6301,4.6301,4.6301,4.6301,4.6301,4.6301,4.6301,4.6301,4.6301,4.6301,4.6301,4.6301,4.6301,3.1781,3.2029,3.2173,3.2566,3.2669,3.2669,3.2669,0.0,0.0,0.0,0.0,0.0,0.0,3.2669,0.0,3.3016,3.4176,3.5625,3.7198,0.0,0.0,0.0,0.0,0.0,0.0,0.0,0.0,0.0,0.0,0.0,0.0,0.0,0.0,4.5557,4.7558,4.8793,4.9242,4.9937,5.0343,5.0419,5.082,5.1122,5.1297,5.1774,5.2026,0.0,0.0,0.0,5.3708,5.3884,5.4511,5.539,5.5491,5.5792,5.6219,5.6219,5.6219,5.6219,5.6219,5.6219,5.6219,5.6219,5.6219,5.6219,5.6219,5.6219,5.6219,5.6219,5.6219,5.6219,5.6219,5.6219,5.6219,5.6219,5.6143,5.5566,5.3708,5.3155,5.2101,4.8912,4.8234,4.7807,4.6627,4.6426,4.6451,4.6552,4.6552,4.6552,4.6552,4.6552,4.6552,4.6552,4.6552,4.6552,4.6552,4.6552,4.6527,4.6451,4.6351,4.6301,4.6301,4.6301,4.6301,4.6301,4.6301,4.6301,4.6301,4.6301,4.6301,4.6301,4.6301,4.6301,3.1946,3.2277,3.2587,3.2649,3.2669,3.2669,3.2669,3.2669,0.0,0.0,0.0,0.0,0.0,3.2669,3.3099,0.0,0.0,3.7363,0.0,0.0,0.0,0.0,0.0,0.0,0.0,0.0,0.0,0.0,0.0,0.0,0.0,0.0,0.0,4.3979,4.6383,4.7659,4.7755,4.9057,4.9967,5.0419,5.0042,5.0368,5.1272,5.1373,5.1649,0.0,0.0,5.3632,5.3783,5.4737,5.5239,5.544,5.5892,5.6143,5.6219,5.6219,5.6219,5.6219,5.6219,5.6219,5.6219,5.6219,5.6219,5.6219,5.6219,5.6219,5.6219,5.6219,5.6219,5.6219,5.6219,5.6219,5.6219,5.6219,5.5867,5.5415,5.5089,5.426,5.2879,5.0494,4.9665,4.8837,4.728,4.7004,4.7154,4.7606,4.7657,4.7657,4.7657,4.7657,4.7657,4.7657,4.7657,4.7657,4.7657,4.7657,4.7481,4.7029,4.6577,4.6301,4.6301,4.6301,4.6301,4.6301,4.6301,4.6301,4.6301,4.6301,4.6301,4.6301,4.6301,4.6301,3.2297,3.2504,3.2913,3.3637,3.3265,3.2669,3.2669,3.2669,0.0,0.0,0.0,0.0,0.0,0.0,0.0,0.0,0.0,0.0,0.0,0.0,0.0,0.0,0.0,0.0,0.0,0.0,0.0,0.0,0.0,0.0,0.0,0.0,0.0,0.0,4.5869,4.7003,4.6201,4.7689,4.8976,4.9967,4.9715,5.0017,5.082,5.1147,5.1749,5.2603,0.0,5.4059,5.4662,5.5164,5.5566,5.5867,5.6118,5.6219,5.6219,5.6219,5.6219,5.6219,5.6219,5.6219,5.6219,5.6219,5.6219,5.6219,5.6219,5.642,5.6595,5.6294,5.6219,5.6219,5.6219,5.6219,5.6219,5.6219,5.6018,5.5742,5.544,5.4988,5.3884,5.1373,5.067,4.9866,4.7883,4.7556,4.7631,4.7883,4.7908,4.7908,4.7908,4.7908,4.7908,4.7908,4.7908,4.7908,4.7908,4.7908,4.7682,4.7093,4.6627,4.6301,4.6301,4.6301,4.6301,4.6301,4.6301,4.6301,4.6301,4.6301,4.6301,4.6301,4.6301,4.6301,3.2587,3.2669,3.3078,3.4548,3.4051,3.3285,3.3617,3.3679,3.3679,0.0,0.0,0.0,0.0,0.0,0.0,0.0,0.0,0.0,0.0,0.0,0.0,0.0,0.0,0.0,0.0,0.0,0.0,0.0,0.0,0.0,0.0,0.0,0.0,0.0,4.4799,4.5864,4.4709,4.6133,4.7623,4.9112,4.9262,4.9666,5.0444,5.1147,5.1925,5.2779,5.3557,5.4411,5.5214,5.5465,5.5842,5.6219,5.6219,5.6219,5.6219,5.6219,5.6219,5.6219,5.6219,5.6219,5.6219,5.6219,5.6219,5.6219,5.6219,5.652,5.6746,5.6319,5.6219,5.6219,5.6219,5.6319,5.6369,5.6244,5.6118,5.5917,5.5491,5.529,5.4486,5.2126,5.1448,5.0695,4.8812,4.8284,4.8159,4.8284,4.8309,4.8309,4.8309,4.8309,4.8309,4.8309,4.8309,4.8309,4.8309,4.8184,4.7933,4.7531,4.7004,4.6677,4.6677,4.6677,4.6677,4.6677,4.6577,4.6502,4.6502,4.6376,4.6301,4.6301,4.6301,4.6301,3.2669,3.2669,3.3161,3.4921,3.4983,3.4941,3.6225,3.6515,0.0,3.6515,0.0,0.0,0.0,0.0,0.0,0.0,0.0,0.0,0.0,0.0,0.0,0.0,0.0,0.0,0.0,0.0,0.0,0.0,0.0,0.0,0.0,0.0,0.0,0.0,0.0,4.3375,4.3236,4.4641,4.6133,4.7557,4.8155,4.9089,5.0444,5.1548,5.2076,5.2251,5.3833,5.4536,5.4712,5.5717,5.6168,5.6219,5.6219,5.6219,5.6219,5.6219,5.6219,5.6219,5.6219,5.6219,5.6219,5.6219,5.6219,5.6219,5.6219,5.6244,5.6269,5.6219,5.6219,5.6219,5.6219,5.6595,5.6846,5.6344,5.5817,5.544,5.539,5.4988,5.426,5.3055,5.1975,5.1046,5.0343,4.9389,4.8887,4.9389,4.9464,4.9464,4.9464,4.9464,4.9464,4.9464,4.9464,4.9464,4.9464,4.9012,4.8686,4.8661,4.8109,4.7782,4.7782,4.7782,4.7782,4.7782,4.733,4.7018,4.7018,4.6552,4.6301,4.6301,4.6301,4.6301,3.2669,3.2669,3.3248,3.5687,3.6163,0.0,0.0,3.7239,3.7156,3.6867,3.639,0.0,0.0,0.0,0.0,0.0,0.0,0.0,0.0,0.0,0.0,0.0,0.0,0.0,0.0,0.0,0.0,0.0,0.0,0.0,0.0,0.0,0.0,0.0,0.0,4.2678,4.1714,4.3429,4.5094,4.6625,4.7718,4.9414,5.1473,5.19,5.2477,5.3155,5.4135,5.4762,5.5139,5.5892,5.6219,5.6219,5.6219,5.6219,5.6219,5.6219,5.6219,5.6219,5.6219,5.5732,5.5185,5.5927,5.5683,5.5259,5.6326,5.603,5.5184,5.5184,5.4724,5.4491,5.5855,5.6369,5.647,5.6269,5.6068,5.5892,5.5892,5.5742,5.5265,5.416,5.3055,5.2026,5.1122,5.0017,4.9364,4.9565,4.959,4.959,4.959,4.959,4.959,4.959,4.959,4.959,4.959,4.9414,4.9289,4.9289,4.841,4.7908,4.7908,4.7908,4.7908,4.7908,4.7707,4.7606,4.7606,4.7405,4.7305,4.7305,4.7305,4.7305,3.2669,3.2669,3.3306,3.5749,0.0,0.0,3.7964,3.8357,3.846,3.815,3.7736,0.0,0.0,0.0,0.0,0.0,0.0,0.0,0.0,0.0,0.0,0.0,0.0,0.0,0.0,0.0,0.0,0.0,0.0,0.0,0.0,0.0,0.0,0.0,0.0,4.199,4.1161,4.2436,4.402,4.5864,4.6843,4.904,5.2101,5.1774,5.2316,5.3482,5.4059,5.4612,5.5164,5.5717,5.6068,5.6219,5.6219,5.6219,5.6219,5.6219,5.6219,5.6219,5.6219,5.5683,5.5009,5.5337,5.484,5.4279,5.4983,5.4455,5.3518,5.3518,5.3394,5.3488,5.5015,5.5559,5.5806,5.6097,5.6219,5.6219,5.6219,5.6219,5.5993,5.5239,5.421,5.3105,5.2,5.087,5.0017,4.964,4.959,4.959,4.959,4.959,4.959,4.959,4.959,4.959,4.959,4.959,4.959,4.959,4.8862,4.8435,4.8435,4.8435,4.8435,4.8435,4.8259,4.8184,4.8184,4.7983,4.7908,4.7908,4.7908,4.7908,3.2669,3.2747,3.3124,3.4983,0.0,0.0,3.9247,4.0241,4.0882,4.0882,0.0,3.8373,0.0,0.0,0.0,0.0,0.0,0.0,0.0,0.0,0.0,0.0,0.0,0.0,0.0,0.0,0.0,0.0,0.0,0.0,0.0,0.0,0.0,0.0,0.0,0.0,4.1565,4.1586,4.2876,4.5289,4.5311,4.767,5.2058,5.1059,5.1443,5.2886,5.3482,5.4034,5.4612,5.5164,5.5717,5.6219,5.6219,5.6219,5.6146,5.6219,5.6219,5.6219,5.6219,5.6219,5.5926,5.4199,5.3651,5.3374,5.1754,5.1293,5.1293,5.1293,5.2442,5.3651,5.3651,5.4135,5.4878,5.5952,5.6219,5.6219,5.6219,5.6219,5.6219,5.6219,5.5315,5.421,5.313,5.2026,5.0896,4.9766,4.959,4.959,4.959,4.959,4.959,4.959,4.959,4.959,4.959,4.959,4.959,4.959,4.959,4.959,4.959,4.959,4.959,4.959,4.9063,4.8786,4.8786,4.8209,4.7933,4.7933,4.7933,4.7933,3.2669,3.343,0.0,3.6018,0.0,0.0,0.0,4.0944,0.0,0.0,0.0,0.0,0.0,0.0,0.0,0.0,0.0,0.0,0.0,0.0,0.0,0.0,0.0,0.0,0.0,0.0,0.0,0.0,0.0,0.0,0.0,0.0,0.0,0.0,0.0,0.0,4.2115,4.2373,4.3436,4.5311,4.4497,4.594,4.9416,4.9129,4.9843,5.1327,5.1864,5.3066,5.4637,5.5591,5.6068,5.6219,5.6219,5.5683,5.5082,5.6327,5.6277,5.5695,5.6477,5.5477,5.3814,5.374,5.237,5.0883,5.1666,5.0814,4.9908,5.1418,5.1103,5.083,5.3124,5.3846,5.4318,5.5852,5.6219,5.6219,5.6219,5.6219,5.6219,5.6219,5.5315,5.421,5.313,5.2026,5.0896,4.9766,4.959,4.959,4.959,4.959,4.959,4.959,4.959,4.959,4.959,4.959,4.959,4.959,4.959,4.959,4.959,4.959,4.959,4.959,4.9439,4.9339,4.9339,4.9163,4.9088,4.9088,4.9088,4.9088,3.3534,3.4527,0.0,3.6597,3.7839,3.9206,4.0572,0.0,0.0,0.0,0.0,0.0,0.0,0.0,0.0,0.0,0.0,0.0,0.0,0.0,0.0,0.0,0.0,0.0,0.0,0.0,0.0,0.0,0.0,0.0,0.0,0.0,0.0,0.0,0.0,0.0,4.2518,4.2787,4.3443,4.4656,4.3924,4.4558,4.6455,4.7096,4.8552,5.06,5.1345,5.2886,5.4963,5.5161,5.5337,5.5534,5.6226,5.5805,5.4856,5.5971,5.5792,5.5001,5.5045,5.3749,5.2175,5.1863,5.0646,4.9416,5.0501,4.9829,4.9201,5.1194,5.0824,5.0209,5.2213,5.3199,5.4124,5.5827,5.6219,5.6219,5.6219,5.6219,5.6219,5.6219,5.5666,5.4863,5.3758,5.303,5.2051,5.0494,4.9891,4.959,4.959,4.959,4.959,4.959,4.959,4.959,4.959,4.959,4.959,4.959,4.959,4.959,4.959,4.959,4.959,4.959,4.959,4.959,4.959,4.959,4.959,4.959,4.959,4.959,3.4816,0.0,0.0,3.6991,3.8026,0.0,4.0593,0.0,0.0,0.0,0.0,0.0,0.0,0.0,0.0,0.0,0.0,0.0,0.0,0.0,0.0,0.0,0.0,0.0,0.0,0.0,0.0,0.0,0.0,0.0,0.0,0.0,0.0,0.0,0.0,0.0,4.2973,4.2973,4.3201,0.0,4.3615,4.3615,4.3691,4.5063,4.7316,5.0341,5.1417,5.306,5.4909,5.4104,5.4011,5.462,5.6227,5.6096,5.5028,5.5028,5.4741,5.4004,5.2542,5.1597,5.0898,4.9293,4.882,4.8741,4.8583,4.8662,4.9135,5.0675,5.1216,5.1293,5.1447,5.2745,5.4274,5.5681,5.6047,5.6219,5.6219,5.6219,5.6219,5.6219,5.6219,5.5867,5.4762,5.4561,5.3808,5.1599,5.0318,4.959,4.959,4.959,4.959,4.959,4.959,4.959,4.959,4.959,4.959,4.959,4.959,4.959,4.959,4.959,4.959,4.959,4.959,4.959,4.959,4.959,4.959,4.959,4.959,4.959,0.0,3.6535,0.0,0.0,3.9433,4.051,4.08,0.0,0.0,0.0,0.0,0.0,0.0,0.0,0.0,0.0,0.0,0.0,0.0,0.0,0.0,0.0,0.0,0.0,0.0,0.0,0.0,0.0,0.0,0.0,0.0,0.0,0.0,0.0,0.0,4.2538,4.3449,4.347,4.3511,0.0,4.3615,4.3615,4.3615,4.3974,4.5331,4.7552,4.9502,5.0751,5.1686,5.3613,5.4447,5.4592,5.5408,5.47,5.3362,5.3362,5.24,5.1286,5.1875,5.112,4.9879,4.903,4.882,4.8504,4.7272,4.773,4.8899,4.9214,5.0287,5.1601,5.2897,5.4423,5.5435,5.4423,5.5214,5.6219,5.6219,5.6219,5.6219,5.6219,5.6219,5.5867,5.4762,5.4561,5.3808,5.1599,5.0318,4.959,4.959,4.959,4.959,4.959,4.959,4.959,4.959,4.959,4.959,4.959,4.959,4.959,4.959,4.959,4.959,4.959,4.959,4.959,4.959,4.959,4.959,4.959,4.959,4.959,0.0,0.0,0.0,3.9661,0.0,0.0,0.0,0.0,0.0,0.0,0.0,0.0,0.0,0.0,0.0,0.0,0.0,0.0,0.0,0.0,0.0,0.0,0.0,0.0,0.0,0.0,0.0,0.0,0.0,0.0,0.0,0.0,0.0,0.0,4.2352,4.2807,4.3284,4.3491,4.3615,4.3615,4.3615,4.3615,4.3615,4.4563,4.5738,4.7127,4.8596,5.0045,5.1239,5.2097,5.2635,5.2944,5.4013,5.3392,5.1949,5.1949,5.1094,4.9949,4.9708,4.8929,4.7992,4.7656,4.7592,4.7592,4.7512,4.8129,4.8978,4.9741,5.0053,5.0287,5.1139,5.1984,5.267,5.2594,5.4447,5.5974,5.5214,5.5582,5.6219,5.6219,5.6219,5.6018,5.544,5.4913,5.3984,5.2327,5.1122,5.0218,4.9665,4.959,4.959,4.959,4.959,4.959,4.959,4.959,4.959,4.959,4.959,4.959,4.959,4.959,4.959,4.959,4.959,4.959,4.959,4.959,4.959,4.959,4.959,4.959,0.0,0.0,3.9578,4.0613,4.0882,0.0,0.0,0.0,0.0,0.0,0.0,0.0,0.0,0.0,0.0,0.0,0.0,0.0,0.0,0.0,0.0,0.0,0.0,0.0,0.0,0.0,0.0,0.0,0.0,0.0,0.0,0.0,4.1524,4.1762,4.2414,4.289,4.3035,4.3428,4.3615,4.3615,4.3615,4.3615,4.3635,4.5574,4.668,4.719,4.7913,4.9377,5.121,5.0601,5.0486,5.0912,5.2448,5.2137,5.0699,5.0392,4.9768,4.879,4.7375,4.6576,4.6266,4.6266,4.6509,4.6972,4.8049,4.8583,4.9057,5.0131,4.9685,4.882,4.882,4.9214,4.9897,5.1062,5.3825,5.5827,5.4423,5.5214,5.6219,5.6219,5.6219,5.6219,5.6219,5.529,5.4185,5.308,5.2,5.087,4.9741,4.959,4.959,4.959,4.959,4.959,4.959,4.959,4.959,4.959,4.959,4.959,4.959,4.959,4.959,4.959,4.959,4.959,4.959,4.959,4.959,4.959,4.959,4.959,0.0,0.0,4.1151,0.0,0.0,0.0,0.0,0.0,0.0,0.0,0.0,0.0,0.0,0.0,0.0,0.0,0.0,0.0,0.0,0.0,0.0,0.0,0.0,0.0,0.0,0.0,0.0,0.0,0.0,0.0,0.0,4.0924,4.1338,4.2219,4.2364,4.2725,4.3511,4.3573,4.3615,4.3615,4.3615,4.3615,4.3656,4.5154,4.5837,4.5978,4.6024,4.6936,4.8438,5.0184,5.0737,5.0452,5.1114,5.0681,4.9576,4.8078,4.7191,4.6754,4.643,4.6308,4.6266,4.6266,4.7272,4.8208,4.7052,4.7672,4.8504,4.7272,4.781,4.882,4.882,5.0885,5.2745,5.1601,5.3825,5.6146,5.5901,5.6047,5.6219,5.6219,5.6219,5.6219,5.6219,5.529,5.4185,5.308,5.2,5.087,4.9741,4.959,4.959,4.959,4.959,4.959,4.959,4.959,4.959,4.959,4.959,4.959,4.959,4.959,4.959,4.959,4.959,4.959,4.959,4.959,4.959,4.959,4.959,4.959,3.6473,3.9288,4.1462,0.0,0.0,0.0,0.0,0.0,0.0,0.0,0.0,0.0,0.0,0.0,0.0,0.0,0.0,0.0,0.0,0.0,0.0,0.0,0.0,0.0,0.0,0.0,0.0,0.0,0.0,0.0,4.0862,4.1131,4.1441,4.1855,4.2373,4.2828,4.3221,4.3739,4.4132,4.4381,4.465,4.4774,4.4795,4.5416,4.5685,4.5747,4.6761,4.7527,4.8191,4.947,4.9616,4.9296,4.9425,4.8937,4.805,4.7276,4.6659,4.6266,4.6266,4.6266,4.6266,4.6266,4.6811,4.7272,4.6509,4.6811,4.7272,4.6509,4.6811,4.7592,4.8605,4.9897,5.1193,5.2365,5.375,5.5041,5.5974,5.6219,5.6219,5.6219,5.6219,5.6219,5.6219,5.5817,5.4913,5.3181,5.2528,5.1574,4.9816,4.959,4.959,4.959,4.959,4.959,4.959,4.959,4.959,4.959,4.959,4.959,4.959,4.959,4.959,4.959,4.959,4.959,4.959,4.959,4.959,4.959,4.959,4.959,0.0,0.0,0.0,0.0,0.0,0.0,0.0,0.0,0.0,0.0,0.0,0.0,0.0,0.0,0.0,0.0,0.0,0.0,0.0,0.0,0.0,0.0,0.0,0.0,0.0,0.0,0.0,0.0,0.0,0.0,4.0882,4.1317,4.1628,4.1731,4.2518,4.2973,4.3097,4.3905,4.4588,4.5167,4.5519,4.5747,4.585,4.5975,4.6099,4.6264,4.7506,4.8231,4.8562,4.879,4.8624,4.8189,4.8086,4.7548,4.6783,4.6783,4.6555,4.6266,4.6266,4.6266,4.6266,4.6266,4.6266,4.6266,4.6266,4.6266,4.6266,4.6266,4.6266,4.6569,4.781,4.8504,4.945,5.1884,5.3124,5.4199,5.5827,5.6219,5.6219,5.6219,5.6219,5.6219,5.6219,5.6219,5.5566,5.3632,5.3105,5.2226,5.0268,4.9766,4.959,4.959,4.959,4.959,4.959,4.959,4.959,4.959,4.959,4.959,4.959,4.959,4.959,4.959,4.959,4.959,4.959,4.959,4.959,4.959,4.959,4.959,0.0,0.0,0.0,0.0,0.0,0.0,0.0,0.0,0.0,0.0,0.0,0.0,0.0,0.0,0.0,0.0,0.0,0.0,0.0,0.0,0.0,0.0,0.0,0.0,0.0,0.0,0.0,0.0,0.0,0.0,4.0882,4.1317,4.1772,4.2281,4.2683,4.3139,4.3573,4.4049,4.4753,4.5643,4.5664,4.5912,4.6246,4.6761,4.7196,4.7568,4.7237,4.7838,4.8997,4.8583,4.8127,4.7672,4.7279,4.6721,4.6308,4.6308,4.6287,4.6266,4.6266,4.6266,4.6266,4.6266,4.6266,4.6266,4.6266,4.6266,4.6266,4.6266,4.6266,4.6347,4.6428,4.7592,4.882,4.8978,5.1424,5.4199,5.5827,5.6219,5.6219,5.6219,5.6219,5.6219,5.6219,5.6219,5.5817,5.4662,5.3582,5.2503,5.1348,5.0268,4.959,4.959,4.959,4.959,4.959,4.959,4.959,4.959,4.959,4.959,4.959,4.959,4.959,4.959,4.959,4.959,4.959,4.959,4.959,4.959,4.959,4.959,0.0,0.0,0.0,0.0,0.0,0.0,0.0,0.0,0.0,0.0,0.0,0.0,0.0,0.0,0.0,0.0,0.0,0.0,0.0,0.0,0.0,0.0,0.0,0.0,0.0,0.0,0.0,0.0,0.0,0.0,4.1804,4.1628,4.1897,4.2663,4.2828,4.3428,4.4484,4.496,4.5643,4.6554,4.7134,4.7486,4.7651,4.7506,4.7858,4.8541,4.7775,4.8065,4.9017,4.8562,4.8107,4.7631,4.7196,4.6679,4.6266,4.6266,4.6266,4.6266,4.6266,4.6266,4.6266,4.6266,4.6266,4.6266,4.6266,4.6266,4.6266,4.6266,4.6266,4.6569,4.7672,4.8367,4.9371,5.1424,5.3675,5.5435,5.6047,5.6219,5.6219,5.6219,5.6219,5.6219,5.6219,5.6219,5.5591,5.3783,5.3181,5.2277,5.0444,4.9841,4.959,4.959,4.959,4.959,4.959,4.959,4.959,4.959,4.959,4.959,4.959,4.959,4.959,4.959,4.959,4.959,4.959,4.959,4.959,4.959,4.959,4.959,0.0,0.0,0.0,0.0,0.0,0.0,0.0,0.0,0.0,0.0,0.0,0.0,0.0,0.0,0.0,0.0,0.0,0.0,0.0,0.0,0.0,0.0,0.0,0.0,0.0,0.0,0.0,0.0,0.0,0.0,4.2302,4.2104,4.2435,4.3346,4.3387,4.4049,4.5436,4.5747,4.643,4.7506,4.8086,4.8459,4.8583,4.8127,4.8334,4.9017,4.8252,4.8272,4.879,4.8334,4.7879,4.7424,4.6989,4.6535,4.6266,4.6266,4.6266,4.6266,4.6266,4.6266,4.6266,4.6266,4.6266,4.6266,4.6266,4.6266,4.6266,4.6266,4.6266,4.659,4.7651,4.797,4.8662,5.1424,5.2897,5.405,5.514,5.5827,5.6219,5.6219,5.6219,5.6219,5.6219,5.6219,5.5717,5.426,5.3406,5.2402,5.0896,5.0067,4.959,4.959,4.959,4.959,4.959,4.959,4.959,4.959,4.959,4.959,4.959,4.959,4.959,4.959,4.959,4.959,4.959,4.959,4.959,4.959,4.959,4.959,0.0,0.0,0.0,0.0,0.0,0.0,0.0,0.0,0.0,0.0,0.0,0.0,0.0,0.0,0.0,0.0,0.0,0.0,0.0,0.0,0.0,0.0,0.0,0.0,0.0,0.0,0.0,0.0,0.0,4.2364,4.2384,4.2745,4.3387,4.4298,4.4339,4.4981,4.6246,4.6287,4.7051,4.8376,4.8396,4.8624,4.9038,4.8583,4.8624,4.9017,4.8562,4.8355,4.8293,4.7858,4.7424,4.6907,4.6452,4.6266,4.6266,4.6266,4.6266,4.6266,4.6266,4.6266,4.6266,4.6266,4.6266,4.6266,4.6266,4.6266,4.6266,4.6266,4.6266,4.6266,4.6266,4.6347,4.6811,4.8446,4.8899,4.9819,5.3048,5.5041,5.6219,5.6219,5.6219,5.6219,5.6219,5.6219,5.6194,5.6168,5.431,5.2929,5.2879,5.0946,4.959,4.959,4.959,4.959,4.959,4.959,4.959,4.959,4.959,4.959,4.959,4.959,4.959,4.959,4.959,4.959,4.959,4.959,4.959,4.959,4.959,4.959,3.2669,0.0,0.0,0.0,0.0,0.0,0.0,0.0,0.0,0.0,0.0,0.0,0.0,0.0,0.0,0.0,0.0,0.0,0.0,0.0,0.0,0.0,0.0,0.0,0.0,0.0,0.0,0.0,4.2994,4.3035,4.3698,4.4174,4.4546,4.4795,4.5126,4.5643,4.6266,4.6989,4.7672,4.8376,4.8707,4.8935,4.9038,4.8583,4.8438,4.8562,4.8438,4.8003,4.7424,4.761,4.7424,4.6907,4.6452,4.6266,4.6266,4.6266,4.6266,4.6266,4.6266,4.6266,4.6266,4.6266,4.6266,4.6266,4.6266,4.6266,4.6266,4.6266,4.6266,4.6266,4.6266,4.7192,4.8208,4.8662,5.0598,5.257,5.3501,5.5041,5.6219,5.6219,5.6219,5.6219,5.6219,5.6219,5.5942,5.5139,5.3833,5.2628,5.185,5.0494,4.959,4.959,4.959,4.959,4.959,4.959,4.959,4.959,4.959,4.959,4.959,4.959,4.959,4.959,4.959,4.959,4.959,4.959,4.959,4.959,4.959,4.959,0.0,0.0,0.0,0.0,0.0,0.0,0.0,3.5811,0.0,0.0,0.0,0.0,0.0,0.0,0.0,0.0,0.0,0.0,0.0,0.0,0.0,0.0,0.0,0.0,0.0,0.0,0.0,0.0,4.3532,4.3822,4.4546,4.4857,4.5167,4.554,4.5809,4.6368,4.7175,4.7713,4.821,4.8666,4.8935,4.9059,4.9059,4.879,4.8666,4.8666,4.8666,4.8148,4.732,4.7589,4.732,4.6638,4.637,4.6266,4.6266,4.6266,4.6266,4.6266,4.6266,4.6266,4.6266,4.6266,4.6266,4.6266,4.6266,4.6266,4.6266,4.6266,4.6266,4.6266,4.6266,4.7512,4.882,4.882,5.083,5.2897,5.3576,5.4423,5.5361,5.6047,5.6219,5.6219,5.6219,5.6219,5.5993,5.534,5.431,5.3381,5.2729,5.1674,5.082,5.0343,5.0293,5.0117,4.964,4.959,4.959,4.959,4.959,4.959,4.959,4.959,4.959,4.959,4.959,4.959,4.959,4.959,4.959,4.959,4.959,4.959,0.0,0.0,0.0,0.0,0.0,0.0,3.4258,3.5583,3.6929,0.0,0.0,0.0,0.0,0.0,0.0,0.0,0.0,0.0,0.0,0.0,0.0,0.0,0.0,0.0,0.0,0.0,4.3635,4.3677,4.4174,4.465,4.5126,4.5188,4.5602,4.6308,4.6513,4.7154,4.8355,4.8417,4.8666,4.9059,4.9059,4.9038,4.8997,4.9038,4.8976,4.8852,4.8955,4.8438,4.7548,4.7589,4.7113,4.6266,4.6266,4.6266,4.6266,4.6266,4.6266,4.6266,4.6266,4.6266,4.6266,4.6266,4.6266,4.6266,4.6266,4.6266,4.6266,4.6266,4.6266,4.6266,4.6266,4.7512,4.882,4.882,5.0209,5.1984,5.3425,5.3876,5.4423,5.5901,5.6219,5.6219,5.6219,5.6219,5.6219,5.6219,5.5265,5.4561,5.4561,5.3607,5.2503,5.1398,5.1272,5.082,4.969,4.959,4.959,4.959,4.959,4.959,4.959,4.959,4.959,4.959,4.959,4.959,4.959,4.959,4.959,4.959,4.959,4.959,0.0,0.0,0.0,0.0,0.0,0.0,3.3058,3.4176,3.5231,0.0,0.0,0.0,0.0,0.0,0.0,0.0,0.0,0.0,0.0,0.0,0.0,0.0,0.0,0.0,0.0,0.0,4.376,4.4132,4.494,4.5602,4.6057,4.643,4.672,4.6906,4.761,4.8107,4.8376,4.8748,4.8976,4.9059,4.9059,4.8873,4.8521,4.8893,4.8479,4.7465,4.8189,4.7775,4.6637,4.701,4.6844,4.6266,4.6266,4.6266,4.6266,4.6266,4.6266,4.6266,4.6266,4.6266,4.6266,4.6266,4.6266,4.6266,4.6266,4.6266,4.6266,4.6266,4.6266,4.6266,4.6266,4.7512,4.882,4.882,5.1062,5.335,5.3651,5.4745,5.5827,5.6146,5.6219,5.6219,5.6219,5.6219,5.6219,5.6219,5.5265,5.4561,5.4561,5.3607,5.2503,5.1398,5.1272,5.082,4.969,4.959,4.959,4.959,4.959,4.959,4.959,4.959,4.959,4.959,4.959,4.959,4.959,4.959,4.959,4.959,4.959,4.959,0.0,0.0,0.0,3.2669,0.0,0.0,0.0,3.3782,3.4816,0.0,0.0,0.0,0.0,0.0,0.0,0.0,0.0,0.0,0.0,0.0,0.0,0.0,0.0,0.0,0.0,0.0,4.4236,4.494,4.5416,4.5871,4.6246,4.6782,4.7134,4.7361,4.8024,4.8479,4.8728,4.8955,4.9059,4.9059,4.9059,4.8955,4.8728,4.8955,4.8686,4.8065,4.8272,4.7858,4.701,4.703,4.6679,4.6266,4.6266,4.6266,4.6266,4.6266,4.6266,4.6266,4.6266,4.6266,4.6266,4.6266,4.6266,4.6266,4.6266,4.6266,4.6266,4.6266,4.6432,4.6617,4.6617,4.8043,4.9483,4.9483,5.2051,5.4467,5.4467,5.5878,5.7047,5.7047,5.7047,5.6872,5.6319,5.6219,5.6219,5.6219,5.5742,5.5491,5.5767,5.5064,5.4361,5.3808,5.2754,5.1774,5.0921,5.0067,4.959,4.959,4.959,4.959,4.959,4.959,4.959,4.959,4.959,4.959,4.959,4.959,4.959,4.959,4.959,4.959,0.0,0.0,0.0,0.0,0.0,3.2996,0.0,0.0,0.0,3.4691,0.0,0.0,0.0,0.0,0.0,0.0,0.0,0.0,0.0,0.0,0.0,0.0,0.0,0.0,0.0,0.0,4.4774,4.5623,4.5768,4.6016,4.637,4.6906,4.7361,4.7796,4.8272,4.8686,4.9059,4.9059,4.9059,4.9059,4.9059,4.9017,4.8935,4.9017,4.8976,4.879,4.85,4.8065,4.7527,4.7175,4.6679,4.6266,4.6266,4.6266,4.6266,4.6266,4.6266,4.6266,4.6266,4.6266,4.6266,4.6266,4.6328,4.639,4.639,4.6533,4.6596,4.6596,4.6865,4.7154,4.7154,4.8862,5.0667,5.0667,5.3283,5.5824,5.5824,5.6943,5.7901,5.7901,5.7901,5.76,5.6696,5.6545,5.6545,5.6545,5.662,5.6846,5.7298,5.6972,5.662,5.6394,5.4386,5.2804,5.2151,5.0569,4.959,4.959,4.959,4.959,4.959,4.959,4.959,4.959,4.959,4.959,4.959,4.959,4.959,4.959,4.959,4.959,0.0,0.0,0.0,0.0,3.3906,0.0,0.0,0.0,3.4194,3.4194,0.0,0.0,0.0,0.0,0.0,0.0,0.0,0.0,0.0,0.0,0.0,0.0,0.0,0.0,0.0,0.0,0.0,4.5643,4.6057,4.639,4.6947,4.7382,4.7817,4.8272,4.8748,4.9017,4.9059,4.9059,4.9059,4.9059,4.9059,4.8852,4.8459,4.8873,4.8624,4.7858,4.821,4.79,4.7113,4.7051,4.6679,4.6266,4.6266,4.6266,4.6266,4.6266,4.6266,4.6266,4.6266,4.6266,4.6266,4.6266,4.6535,4.6886,4.6886,4.7237,4.7527,4.7527,4.7568,4.761,4.761,5.0055,5.2491,5.2491,5.5105,5.7574,5.7574,5.775,5.7901,5.7901,5.7901,5.7851,5.7725,5.77,5.77,5.77,5.8102,5.8428,5.8529,5.8478,5.8052,5.7047,5.4938,5.3206,5.2201,5.0569,4.959,4.959,4.959,4.959,4.959,4.959,4.959,4.959,4.959,4.959,4.959,4.959,4.959,4.959,4.959,4.959,0.0,0.0,0.0,0.0,0.0,0.0,0.0,0.0,3.4132,0.0,0.0,0.0,0.0,0.0,0.0,0.0,0.0,0.0,0.0,0.0,0.0,0.0,0.0,0.0,0.0,0.0,0.0,0.0,0.0,4.6473,4.6927,4.7444,4.79,4.8355,4.8831,4.9059,4.9059,4.9059,4.9059,4.9059,4.9059,4.8955,4.879,4.8976,4.8852,4.8479,4.8396,4.8003,4.7403,4.7134,4.6679,4.6266,4.6266,4.6266,4.6266,4.6266,4.6266,4.6266,4.6266,4.6452,4.6782,4.703,4.7258,4.7424,4.7424,4.7548,4.7693,4.7693,4.7879,4.8086,4.8086,4.9342,5.0926,5.1893,5.406,5.6094,5.7135,5.8337,5.9307,5.9307,5.9583,5.9809,5.9809,5.9006,5.8378,5.8378,5.8805,5.9282,5.9608,5.9357,5.9232,5.9433,5.7449,5.5566,5.4135,5.2477,5.0971,4.9665,4.959,4.959,4.959,4.959,4.959,4.959,4.959,4.959,4.959,4.959,4.959,4.959,4.959,4.959,3.5935,0.0,0.0,0.0,0.0,0.0,0.0,0.0,0.0,0.0,0.0,0.0,0.0,0.0,0.0,0.0,0.0,0.0,0.0,0.0,0.0,0.0,0.0,0.0,0.0,0.0,0.0,0.0,4.5229,0.0,4.7154,4.7506,4.7962,4.8541,4.8893,4.9059,4.9059,4.9059,4.9059,4.9059,4.9059,4.9059,4.9059,4.9059,4.9059,4.9038,4.8707,4.8231,4.7651,4.7341,4.6865,4.6287,4.6411,4.6452,4.6452,4.6308,4.6349,4.6452,4.6452,4.6823,4.7258,4.7589,4.7775,4.7879,4.7879,4.7962,4.8065,4.8065,4.8314,4.8562,4.8562,4.9215,5.0125,5.1431,5.3161,5.4974,5.6773,5.8509,5.996,6.0484,6.0889,6.119,6.119,6.0186,5.9408,5.9408,5.9834,6.0337,6.0738,6.0437,6.0487,6.1316,5.9433,5.7449,5.5767,5.4084,5.2201,4.9967,4.9665,4.959,4.959,4.959,4.959,4.959,4.959,4.959,4.959,4.959,4.959,4.959,4.959,4.959,0.0,0.0,0.0,3.8046,0.0,0.0,0.0,0.0,3.5376,0.0,0.0,0.0,0.0,0.0,0.0,0.0,0.0,0.0,0.0,0.0,0.0,0.0,0.0,0.0,0.0,0.0,0.0,4.4132,4.4339,4.5333,4.7548,4.7672,4.8107,4.9017,4.9059,4.9059,4.9059,4.9059,4.9059,4.9059,4.9059,4.9059,4.9059,4.9059,4.9059,4.9059,4.9038,4.8521,4.7693,4.7672,4.7134,4.6308,4.6762,4.701,4.6886,4.6432,4.6637,4.701,4.701,4.7299,4.7672,4.7672,4.7982,4.8355,4.8355,4.8666,4.9017,4.9017,4.9038,4.9038,4.9038,5.0358,5.1598,5.1682,5.3347,5.5425,5.7323,5.8079,5.9033,6.0822,6.1165,6.119,6.119,6.114,6.1115,6.1115,6.1567,6.1943,6.1943,6.1943,6.1943,6.1969,6.001,5.8001,5.6319,5.4637,5.2729,5.0519,4.9891,4.959,4.959,4.959,4.959,4.959,4.959,4.959,4.959,4.959,4.959,4.959,4.959,4.959,0.0,0.0,3.8626,3.8626,0.0,0.0,0.0,0.0,0.0,0.0,0.0,0.0,0.0,0.0,0.0,0.0,0.0,0.0,0.0,0.0,0.0,0.0,0.0,0.0,0.0,0.0,0.0,4.1503,4.2435,4.3946,0.0,4.6368,4.7196,4.9017,4.9059,4.9059,4.9059,4.9059,4.9059,4.9059,4.9059,4.9059,4.9059,4.9059,4.9059,4.9059,4.9059,4.8707,4.8148,4.8148,4.7775,4.7237,4.7403,4.7465,4.7444,4.7299,4.7341,4.7506,4.7817,4.8024,4.8189,4.85,4.8707,4.8831,4.8831,4.8935,4.9059,4.9059,4.9059,4.9059,4.9059,4.9781,5.1018,5.3398,5.4759,5.6372,5.9379,6.041,6.0968,6.1637,6.2019,6.227,6.227,6.227,6.2144,6.1793,6.2195,6.2546,6.2546,6.2546,6.2546,6.2546,6.1893,6.0161,5.7022,5.3884,5.1774,5.1046,5.0444,5.0142,5.0142,4.9791,4.959,4.959,4.959,4.959,4.959,4.959,4.959,4.959,4.959,4.959,4.258,4.1358,0.0,4.0054,3.8916,0.0,3.7964,0.0,0.0,0.0,0.0,0.0,0.0,0.0,0.0,0.0,0.0,0.0,0.0,0.0,0.0,0.0,0.0,0.0,0.0,0.0,3.8895,4.0137,4.1193,4.2704,0.0,0.0,4.6658,4.8293,4.881,4.9059,4.9059,4.9059,4.9059,4.9059,4.9059,4.9059,4.9059,4.9059,4.9059,4.908,4.9245,4.9038,4.8624,4.8624,4.8355,4.792,4.792,4.792,4.792,4.7755,4.7796,4.8003,4.8459,4.8624,4.8666,4.8976,4.9059,4.9059,4.9059,4.9059,4.9059,4.9059,4.9059,4.91,4.9266,5.0032,5.136,5.3868,5.5283,5.6908,5.9862,6.0979,6.1538,6.2133,6.2571,6.2822,6.2822,6.2822,6.2697,6.2345,6.2596,6.2822,6.2822,6.2822,6.2822,6.2822,6.2822,6.1341,5.765,5.3808,5.1574,5.1574,5.1046,5.072,5.072,5.0193,4.9992,5.0193,4.9791,4.969,4.9891,4.969,4.959,4.959,4.959,4.959]}]]